<?xml version="1.0" encoding="UTF-8" standalone="no" ?>
<gpx xmlns="http://www.topografix.com/GPX/1/1" xmlns:xsi="http://www.w3.org/2001/XMLSchema-instance" xsi:schemaLocation="http://www.topografix.com/GPX/1/1 http://www.topografix.com/GPX/1/1/gpx.xsd" version="1.1" creator="VisuGPX - https://www.visugpx.com">
  <metadata>
    <name>Domene-Rouset-Revel-Domene</name>
    <desc><![CDATA[Domene-Rousset-Reval-Domene]]></desc>
  </metadata>
  <trk>
    <name><![CDATA[Domene-Rousset-Revel-Domene]]></name>
    <trkseg>
      <trkpt lat="45.2045" lon="5.83143">
        <ele>222.39999389648</ele>
        <time>2013-12-14T08:42:47.000Z</time>
      </trkpt>
      <trkpt lat="45.20445" lon="5.83151">
        <ele>222.60000610352</ele>
        <time>2013-12-14T08:42:51.000Z</time>
      </trkpt>
      <trkpt lat="45.20432" lon="5.83171">
        <ele>223</ele>
        <time>2013-12-14T08:42:58.000Z</time>
      </trkpt>
      <trkpt lat="45.20418" lon="5.8319">
        <ele>223.60000610352</ele>
        <time>2013-12-14T08:43:04.000Z</time>
      </trkpt>
      <trkpt lat="45.20403" lon="5.83211">
        <ele>224</ele>
        <time>2013-12-14T08:43:11.000Z</time>
      </trkpt>
      <trkpt lat="45.20393" lon="5.83228">
        <ele>224.39999389648</ele>
        <time>2013-12-14T08:43:16.000Z</time>
      </trkpt>
      <trkpt lat="45.20391" lon="5.83244">
        <ele>224.80000305176</ele>
        <time>2013-12-14T08:43:20.000Z</time>
      </trkpt>
      <trkpt lat="45.20401" lon="5.83263">
        <ele>225.19999694824</ele>
        <time>2013-12-14T08:43:25.000Z</time>
      </trkpt>
      <trkpt lat="45.2041" lon="5.83275">
        <ele>225.39999389648</ele>
        <time>2013-12-14T08:43:29.000Z</time>
      </trkpt>
      <trkpt lat="45.20424" lon="5.83294">
        <ele>225.39999389648</ele>
        <time>2013-12-14T08:43:35.000Z</time>
      </trkpt>
      <trkpt lat="45.20435" lon="5.83311">
        <ele>225.60000610352</ele>
        <time>2013-12-14T08:43:40.000Z</time>
      </trkpt>
      <trkpt lat="45.20446" lon="5.83327">
        <ele>225.60000610352</ele>
        <time>2013-12-14T08:43:45.000Z</time>
      </trkpt>
      <trkpt lat="45.20456" lon="5.83341">
        <ele>225.80000305176</ele>
        <time>2013-12-14T08:43:50.000Z</time>
      </trkpt>
      <trkpt lat="45.20454" lon="5.83356">
        <ele>226.19999694824</ele>
        <time>2013-12-14T08:43:54.000Z</time>
      </trkpt>
      <trkpt lat="45.20437" lon="5.83376">
        <ele>227.19999694824</ele>
        <time>2013-12-14T08:44:01.000Z</time>
      </trkpt>
      <trkpt lat="45.20426" lon="5.83388">
        <ele>227.80000305176</ele>
        <time>2013-12-14T08:44:06.000Z</time>
      </trkpt>
      <trkpt lat="45.20417" lon="5.83401">
        <ele>228.39999389648</ele>
        <time>2013-12-14T08:44:11.000Z</time>
      </trkpt>
      <trkpt lat="45.20405" lon="5.83416">
        <ele>229</ele>
        <time>2013-12-14T08:44:17.000Z</time>
      </trkpt>
      <trkpt lat="45.20394" lon="5.83432">
        <ele>229.39999389648</ele>
        <time>2013-12-14T08:44:22.000Z</time>
      </trkpt>
      <trkpt lat="45.20384" lon="5.83447">
        <ele>229.60000610352</ele>
        <time>2013-12-14T08:44:27.000Z</time>
      </trkpt>
      <trkpt lat="45.20369" lon="5.83469">
        <ele>229.80000305176</ele>
        <time>2013-12-14T08:44:34.000Z</time>
      </trkpt>
      <trkpt lat="45.20356" lon="5.8349">
        <ele>230.19999694824</ele>
        <time>2013-12-14T08:44:40.000Z</time>
      </trkpt>
      <trkpt lat="45.20343" lon="5.8351">
        <ele>230.39999389648</ele>
        <time>2013-12-14T08:44:46.000Z</time>
      </trkpt>
      <trkpt lat="45.20329" lon="5.83534">
        <ele>231.39999389648</ele>
        <time>2013-12-14T08:44:53.000Z</time>
      </trkpt>
      <trkpt lat="45.20318" lon="5.83553">
        <ele>232.60000610352</ele>
        <time>2013-12-14T08:44:59.000Z</time>
      </trkpt>
      <trkpt lat="45.20306" lon="5.83573">
        <ele>234</ele>
        <time>2013-12-14T08:45:05.000Z</time>
      </trkpt>
      <trkpt lat="45.20297" lon="5.83591">
        <ele>234.80000305176</ele>
        <time>2013-12-14T08:45:10.000Z</time>
      </trkpt>
      <trkpt lat="45.20286" lon="5.83613">
        <ele>235.39999389648</ele>
        <time>2013-12-14T08:45:16.000Z</time>
      </trkpt>
      <trkpt lat="45.20278" lon="5.8363">
        <ele>235.60000610352</ele>
        <time>2013-12-14T08:45:21.000Z</time>
      </trkpt>
      <trkpt lat="45.20264" lon="5.83654">
        <ele>236</ele>
        <time>2013-12-14T08:45:28.000Z</time>
      </trkpt>
      <trkpt lat="45.20253" lon="5.83673">
        <ele>236.19999694824</ele>
        <time>2013-12-14T08:45:34.000Z</time>
      </trkpt>
      <trkpt lat="45.2024" lon="5.83692">
        <ele>236.80000305176</ele>
        <time>2013-12-14T08:45:40.000Z</time>
      </trkpt>
      <trkpt lat="45.20225" lon="5.83719">
        <ele>237.80000305176</ele>
        <time>2013-12-14T08:45:48.000Z</time>
      </trkpt>
      <trkpt lat="45.2021" lon="5.83734">
        <ele>238.60000610352</ele>
        <time>2013-12-14T08:45:54.000Z</time>
      </trkpt>
      <trkpt lat="45.20199" lon="5.83734">
        <ele>238.80000305176</ele>
        <time>2013-12-14T08:45:58.000Z</time>
      </trkpt>
      <trkpt lat="45.20187" lon="5.83738">
        <ele>239.19999694824</ele>
        <time>2013-12-14T08:46:03.000Z</time>
      </trkpt>
      <trkpt lat="45.20176" lon="5.8375">
        <ele>239.80000305176</ele>
        <time>2013-12-14T08:46:08.000Z</time>
      </trkpt>
      <trkpt lat="45.20166" lon="5.83757">
        <ele>240.39999389648</ele>
        <time>2013-12-14T08:46:12.000Z</time>
      </trkpt>
      <trkpt lat="45.20156" lon="5.83766">
        <ele>240.80000305176</ele>
        <time>2013-12-14T08:46:16.000Z</time>
      </trkpt>
      <trkpt lat="45.20154" lon="5.83777">
        <ele>241.39999389648</ele>
        <time>2013-12-14T08:46:19.000Z</time>
      </trkpt>
      <trkpt lat="45.20156" lon="5.83802">
        <ele>242.60000610352</ele>
        <time>2013-12-14T08:46:25.000Z</time>
      </trkpt>
      <trkpt lat="45.20155" lon="5.83809">
        <ele>243</ele>
        <time>2013-12-14T08:46:27.000Z</time>
      </trkpt>
      <trkpt lat="45.2015" lon="5.83833">
        <ele>244.19999694824</ele>
        <time>2013-12-14T08:46:33.000Z</time>
      </trkpt>
      <trkpt lat="45.20154" lon="5.83854">
        <ele>245.19999694824</ele>
        <time>2013-12-14T08:46:39.000Z</time>
      </trkpt>
      <trkpt lat="45.20156" lon="5.83874">
        <ele>246.19999694824</ele>
        <time>2013-12-14T08:46:44.000Z</time>
      </trkpt>
      <trkpt lat="45.20159" lon="5.83894">
        <ele>247.19999694824</ele>
        <time>2013-12-14T08:46:49.000Z</time>
      </trkpt>
      <trkpt lat="45.20161" lon="5.83913">
        <ele>248</ele>
        <time>2013-12-14T08:46:54.000Z</time>
      </trkpt>
      <trkpt lat="45.20163" lon="5.83939">
        <ele>249</ele>
        <time>2013-12-14T08:47:00.000Z</time>
      </trkpt>
      <trkpt lat="45.20164" lon="5.83963">
        <ele>249.80000305176</ele>
        <time>2013-12-14T08:47:06.000Z</time>
      </trkpt>
      <trkpt lat="45.20161" lon="5.83987">
        <ele>250.80000305176</ele>
        <time>2013-12-14T08:47:12.000Z</time>
      </trkpt>
      <trkpt lat="45.20159" lon="5.83998">
        <ele>251.39999389648</ele>
        <time>2013-12-14T08:47:15.000Z</time>
      </trkpt>
      <trkpt lat="45.20148" lon="5.84009">
        <ele>252.39999389648</ele>
        <time>2013-12-14T08:47:21.000Z</time>
      </trkpt>
      <trkpt lat="45.20137" lon="5.84023">
        <ele>253.39999389648</ele>
        <time>2013-12-14T08:47:25.000Z</time>
      </trkpt>
      <trkpt lat="45.20123" lon="5.84043">
        <ele>254.39999389648</ele>
        <time>2013-12-14T08:47:31.000Z</time>
      </trkpt>
      <trkpt lat="45.20117" lon="5.84061">
        <ele>254.80000305176</ele>
        <time>2013-12-14T08:47:36.000Z</time>
      </trkpt>
      <trkpt lat="45.20124" lon="5.8408">
        <ele>254.60000610352</ele>
        <time>2013-12-14T08:47:41.000Z</time>
      </trkpt>
      <trkpt lat="45.20131" lon="5.84093">
        <ele>255</ele>
        <time>2013-12-14T08:47:46.000Z</time>
      </trkpt>
      <trkpt lat="45.20134" lon="5.84107">
        <ele>255.80000305176</ele>
        <time>2013-12-14T08:47:51.000Z</time>
      </trkpt>
      <trkpt lat="45.20135" lon="5.84117">
        <ele>256.60000610352</ele>
        <time>2013-12-14T08:47:54.000Z</time>
      </trkpt>
      <trkpt lat="45.20139" lon="5.84136">
        <ele>258</ele>
        <time>2013-12-14T08:48:00.000Z</time>
      </trkpt>
      <trkpt lat="45.20143" lon="5.84153">
        <ele>259.39999389648</ele>
        <time>2013-12-14T08:48:06.000Z</time>
      </trkpt>
      <trkpt lat="45.20145" lon="5.84158">
        <ele>259.79998779297</ele>
        <time>2013-12-14T08:48:08.000Z</time>
      </trkpt>
      <trkpt lat="45.20153" lon="5.84164">
        <ele>260.39999389648</ele>
        <time>2013-12-14T08:48:13.000Z</time>
      </trkpt>
      <trkpt lat="45.20159" lon="5.84168">
        <ele>261.20001220703</ele>
        <time>2013-12-14T08:48:18.000Z</time>
      </trkpt>
      <trkpt lat="45.20165" lon="5.84177">
        <ele>263</ele>
        <time>2013-12-14T08:48:23.000Z</time>
      </trkpt>
      <trkpt lat="45.20164" lon="5.84186">
        <ele>265</ele>
        <time>2013-12-14T08:48:27.000Z</time>
      </trkpt>
      <trkpt lat="45.20162" lon="5.84193">
        <ele>266.60000610352</ele>
        <time>2013-12-14T08:48:30.000Z</time>
      </trkpt>
      <trkpt lat="45.20153" lon="5.84199">
        <ele>267.39999389648</ele>
        <time>2013-12-14T08:48:36.000Z</time>
      </trkpt>
      <trkpt lat="45.20151" lon="5.84202">
        <ele>268.20001220703</ele>
        <time>2013-12-14T08:48:39.000Z</time>
      </trkpt>
      <trkpt lat="45.20142" lon="5.84208">
        <ele>269</ele>
        <time>2013-12-14T08:48:46.000Z</time>
      </trkpt>
      <trkpt lat="45.2014" lon="5.84209">
        <ele>269.20001220703</ele>
        <time>2013-12-14T08:48:48.000Z</time>
      </trkpt>
      <trkpt lat="45.20145" lon="5.84216">
        <ele>270.79998779297</ele>
        <time>2013-12-14T08:48:52.000Z</time>
      </trkpt>
      <trkpt lat="45.2016" lon="5.8423">
        <ele>274.20001220703</ele>
        <time>2013-12-14T08:48:59.000Z</time>
      </trkpt>
      <trkpt lat="45.20161" lon="5.84232">
        <ele>274.79998779297</ele>
        <time>2013-12-14T08:49:00.000Z</time>
      </trkpt>
      <trkpt lat="45.20156" lon="5.84238">
        <ele>276</ele>
        <time>2013-12-14T08:49:04.000Z</time>
      </trkpt>
      <trkpt lat="45.20142" lon="5.84232">
        <ele>274.20001220703</ele>
        <time>2013-12-14T08:49:10.000Z</time>
      </trkpt>
      <trkpt lat="45.20132" lon="5.84235">
        <ele>274.20001220703</ele>
        <time>2013-12-14T08:49:15.000Z</time>
      </trkpt>
      <trkpt lat="45.20124" lon="5.84246">
        <ele>276</ele>
        <time>2013-12-14T08:49:20.000Z</time>
      </trkpt>
      <trkpt lat="45.20114" lon="5.8426">
        <ele>281.20001220703</ele>
        <time>2013-12-14T08:49:26.000Z</time>
      </trkpt>
      <trkpt lat="45.20106" lon="5.84271">
        <ele>286.79998779297</ele>
        <time>2013-12-14T08:49:32.000Z</time>
      </trkpt>
      <trkpt lat="45.20104" lon="5.84273">
        <ele>287.39999389648</ele>
        <time>2013-12-14T08:49:34.000Z</time>
      </trkpt>
      <trkpt lat="45.20111" lon="5.84266">
        <ele>284</ele>
        <time>2013-12-14T08:49:41.000Z</time>
      </trkpt>
      <trkpt lat="45.20112" lon="5.84261">
        <ele>281.79998779297</ele>
        <time>2013-12-14T08:49:46.000Z</time>
      </trkpt>
      <trkpt lat="45.20118" lon="5.84257">
        <ele>280</ele>
        <time>2013-12-14T08:49:49.000Z</time>
      </trkpt>
      <trkpt lat="45.20126" lon="5.84254">
        <ele>278.79998779297</ele>
        <time>2013-12-14T08:49:54.000Z</time>
      </trkpt>
      <trkpt lat="45.20135" lon="5.84254">
        <ele>279.39999389648</ele>
        <time>2013-12-14T08:50:00.000Z</time>
      </trkpt>
      <trkpt lat="45.20141" lon="5.84261">
        <ele>282.39999389648</ele>
        <time>2013-12-14T08:50:06.000Z</time>
      </trkpt>
      <trkpt lat="45.20143" lon="5.84269">
        <ele>285.79998779297</ele>
        <time>2013-12-14T08:50:10.000Z</time>
      </trkpt>
      <trkpt lat="45.20151" lon="5.84283">
        <ele>291.20001220703</ele>
        <time>2013-12-14T08:50:15.000Z</time>
      </trkpt>
      <trkpt lat="45.20153" lon="5.84289">
        <ele>293.39999389648</ele>
        <time>2013-12-14T08:50:17.000Z</time>
      </trkpt>
      <trkpt lat="45.20161" lon="5.84302">
        <ele>298.20001220703</ele>
        <time>2013-12-14T08:50:23.000Z</time>
      </trkpt>
      <trkpt lat="45.20167" lon="5.84313">
        <ele>301.20001220703</ele>
        <time>2013-12-14T08:50:28.000Z</time>
      </trkpt>
      <trkpt lat="45.20172" lon="5.84328">
        <ele>303.20001220703</ele>
        <time>2013-12-14T08:50:34.000Z</time>
      </trkpt>
      <trkpt lat="45.20179" lon="5.84343">
        <ele>305.20001220703</ele>
        <time>2013-12-14T08:50:40.000Z</time>
      </trkpt>
      <trkpt lat="45.20186" lon="5.84357">
        <ele>306.39999389648</ele>
        <time>2013-12-14T08:50:46.000Z</time>
      </trkpt>
      <trkpt lat="45.20187" lon="5.84361">
        <ele>307.79998779297</ele>
        <time>2013-12-14T08:50:48.000Z</time>
      </trkpt>
      <trkpt lat="45.2019" lon="5.84377">
        <ele>312.60000610352</ele>
        <time>2013-12-14T08:50:55.000Z</time>
      </trkpt>
      <trkpt lat="45.20193" lon="5.84391">
        <ele>316</ele>
        <time>2013-12-14T08:51:01.000Z</time>
      </trkpt>
      <trkpt lat="45.20199" lon="5.844">
        <ele>315.79998779297</ele>
        <time>2013-12-14T08:51:06.000Z</time>
      </trkpt>
      <trkpt lat="45.20199" lon="5.84411">
        <ele>320.39999389648</ele>
        <time>2013-12-14T08:51:12.000Z</time>
      </trkpt>
      <trkpt lat="45.20199" lon="5.84413">
        <ele>321.60000610352</ele>
        <time>2013-12-14T08:51:13.000Z</time>
      </trkpt>
      <trkpt lat="45.20201" lon="5.84422">
        <ele>323</ele>
        <time>2013-12-14T08:51:17.000Z</time>
      </trkpt>
      <trkpt lat="45.20203" lon="5.84432">
        <ele>325.39999389648</ele>
        <time>2013-12-14T08:51:21.000Z</time>
      </trkpt>
      <trkpt lat="45.20203" lon="5.84441">
        <ele>328</ele>
        <time>2013-12-14T08:51:25.000Z</time>
      </trkpt>
      <trkpt lat="45.20203" lon="5.84445">
        <ele>329.39999389648</ele>
        <time>2013-12-14T08:51:27.000Z</time>
      </trkpt>
      <trkpt lat="45.20207" lon="5.84467">
        <ele>333.39999389648</ele>
        <time>2013-12-14T08:51:34.000Z</time>
      </trkpt>
      <trkpt lat="45.20206" lon="5.84481">
        <ele>339</ele>
        <time>2013-12-14T08:51:39.000Z</time>
      </trkpt>
      <trkpt lat="45.20202" lon="5.84494">
        <ele>346.79998779297</ele>
        <time>2013-12-14T08:51:44.000Z</time>
      </trkpt>
      <trkpt lat="45.20202" lon="5.84501">
        <ele>348.60000610352</ele>
        <time>2013-12-14T08:51:49.000Z</time>
      </trkpt>
      <trkpt lat="45.20211" lon="5.84514">
        <ele>343.79998779297</ele>
        <time>2013-12-14T08:51:53.000Z</time>
      </trkpt>
      <trkpt lat="45.20214" lon="5.84529">
        <ele>343.39999389648</ele>
        <time>2013-12-14T08:51:57.000Z</time>
      </trkpt>
      <trkpt lat="45.20216" lon="5.84545">
        <ele>345.60000610352</ele>
        <time>2013-12-14T08:52:02.000Z</time>
      </trkpt>
      <trkpt lat="45.2022" lon="5.84557">
        <ele>344.79998779297</ele>
        <time>2013-12-14T08:52:07.000Z</time>
      </trkpt>
      <trkpt lat="45.20221" lon="5.84572">
        <ele>347</ele>
        <time>2013-12-14T08:52:13.000Z</time>
      </trkpt>
      <trkpt lat="45.20221" lon="5.84577">
        <ele>348.20001220703</ele>
        <time>2013-12-14T08:52:15.000Z</time>
      </trkpt>
      <trkpt lat="45.20226" lon="5.84589">
        <ele>348</ele>
        <time>2013-12-14T08:52:20.000Z</time>
      </trkpt>
      <trkpt lat="45.20227" lon="5.84591">
        <ele>348</ele>
        <time>2013-12-14T08:52:21.000Z</time>
      </trkpt>
      <trkpt lat="45.2023" lon="5.84601">
        <ele>348.79998779297</ele>
        <time>2013-12-14T08:52:26.000Z</time>
      </trkpt>
      <trkpt lat="45.20236" lon="5.84614">
        <ele>349.60000610352</ele>
        <time>2013-12-14T08:52:32.000Z</time>
      </trkpt>
      <trkpt lat="45.20237" lon="5.84623">
        <ele>352.20001220703</ele>
        <time>2013-12-14T08:52:36.000Z</time>
      </trkpt>
      <trkpt lat="45.2024" lon="5.84628">
        <ele>352</ele>
        <time>2013-12-14T08:52:38.000Z</time>
      </trkpt>
      <trkpt lat="45.20241" lon="5.8464">
        <ele>355.79998779297</ele>
        <time>2013-12-14T08:52:42.000Z</time>
      </trkpt>
      <trkpt lat="45.20242" lon="5.84651">
        <ele>359.20001220703</ele>
        <time>2013-12-14T08:52:48.000Z</time>
      </trkpt>
      <trkpt lat="45.20242" lon="5.84653">
        <ele>359.39999389648</ele>
        <time>2013-12-14T08:52:49.000Z</time>
      </trkpt>
      <trkpt lat="45.20248" lon="5.84665">
        <ele>360.39999389648</ele>
        <time>2013-12-14T08:52:55.000Z</time>
      </trkpt>
      <trkpt lat="45.20251" lon="5.84669">
        <ele>359.60000610352</ele>
        <time>2013-12-14T08:52:57.000Z</time>
      </trkpt>
      <trkpt lat="45.20261" lon="5.84679">
        <ele>354.60000610352</ele>
        <time>2013-12-14T08:53:03.000Z</time>
      </trkpt>
      <trkpt lat="45.20263" lon="5.84681">
        <ele>353</ele>
        <time>2013-12-14T08:53:05.000Z</time>
      </trkpt>
      <trkpt lat="45.20271" lon="5.84693">
        <ele>349.20001220703</ele>
        <time>2013-12-14T08:53:12.000Z</time>
      </trkpt>
      <trkpt lat="45.20272" lon="5.84697">
        <ele>349.60000610352</ele>
        <time>2013-12-14T08:53:14.000Z</time>
      </trkpt>
      <trkpt lat="45.20273" lon="5.84701">
        <ele>350</ele>
        <time>2013-12-14T08:53:16.000Z</time>
      </trkpt>
      <trkpt lat="45.20273" lon="5.84704">
        <ele>350.20001220703</ele>
        <time>2013-12-14T08:53:18.000Z</time>
      </trkpt>
      <trkpt lat="45.20275" lon="5.84707">
        <ele>350</ele>
        <time>2013-12-14T08:53:20.000Z</time>
      </trkpt>
      <trkpt lat="45.20276" lon="5.84719">
        <ele>351.60000610352</ele>
        <time>2013-12-14T08:53:27.000Z</time>
      </trkpt>
      <trkpt lat="45.20277" lon="5.84721">
        <ele>351.20001220703</ele>
        <time>2013-12-14T08:53:28.000Z</time>
      </trkpt>
      <trkpt lat="45.20277" lon="5.84732">
        <ele>353.60000610352</ele>
        <time>2013-12-14T08:53:33.000Z</time>
      </trkpt>
      <trkpt lat="45.20278" lon="5.84746">
        <ele>356.39999389648</ele>
        <time>2013-12-14T08:53:39.000Z</time>
      </trkpt>
      <trkpt lat="45.20278" lon="5.84755">
        <ele>358</ele>
        <time>2013-12-14T08:53:42.000Z</time>
      </trkpt>
      <trkpt lat="45.2028" lon="5.84762">
        <ele>358.39999389648</ele>
        <time>2013-12-14T08:53:45.000Z</time>
      </trkpt>
      <trkpt lat="45.20278" lon="5.84776">
        <ele>363.79998779297</ele>
        <time>2013-12-14T08:53:51.000Z</time>
      </trkpt>
      <trkpt lat="45.20278" lon="5.84784">
        <ele>365.60000610352</ele>
        <time>2013-12-14T08:53:54.000Z</time>
      </trkpt>
      <trkpt lat="45.20282" lon="5.84798">
        <ele>366.20001220703</ele>
        <time>2013-12-14T08:54:00.000Z</time>
      </trkpt>
      <trkpt lat="45.20283" lon="5.84809">
        <ele>367.79998779297</ele>
        <time>2013-12-14T08:54:05.000Z</time>
      </trkpt>
      <trkpt lat="45.20286" lon="5.84818">
        <ele>368.20001220703</ele>
        <time>2013-12-14T08:54:09.000Z</time>
      </trkpt>
      <trkpt lat="45.20282" lon="5.84823">
        <ele>372</ele>
        <time>2013-12-14T08:54:13.000Z</time>
      </trkpt>
      <trkpt lat="45.20277" lon="5.84833">
        <ele>378</ele>
        <time>2013-12-14T08:54:19.000Z</time>
      </trkpt>
      <trkpt lat="45.2028" lon="5.84851">
        <ele>379.79998779297</ele>
        <time>2013-12-14T08:54:24.000Z</time>
      </trkpt>
      <trkpt lat="45.20283" lon="5.84867">
        <ele>381.60000610352</ele>
        <time>2013-12-14T08:54:29.000Z</time>
      </trkpt>
      <trkpt lat="45.20288" lon="5.84885">
        <ele>381.60000610352</ele>
        <time>2013-12-14T08:54:36.000Z</time>
      </trkpt>
      <trkpt lat="45.20288" lon="5.84887">
        <ele>382.20001220703</ele>
        <time>2013-12-14T08:54:37.000Z</time>
      </trkpt>
      <trkpt lat="45.20293" lon="5.84902">
        <ele>382</ele>
        <time>2013-12-14T08:54:44.000Z</time>
      </trkpt>
      <trkpt lat="45.20294" lon="5.84912">
        <ele>383</ele>
        <time>2013-12-14T08:54:50.000Z</time>
      </trkpt>
      <trkpt lat="45.20294" lon="5.84914">
        <ele>383.39999389648</ele>
        <time>2013-12-14T08:54:51.000Z</time>
      </trkpt>
      <trkpt lat="45.20298" lon="5.84925">
        <ele>384</ele>
        <time>2013-12-14T08:54:57.000Z</time>
      </trkpt>
      <trkpt lat="45.203" lon="5.84929">
        <ele>383.39999389648</ele>
        <time>2013-12-14T08:54:59.000Z</time>
      </trkpt>
      <trkpt lat="45.20301" lon="5.84932">
        <ele>383.39999389648</ele>
        <time>2013-12-14T08:55:01.000Z</time>
      </trkpt>
      <trkpt lat="45.20304" lon="5.84944">
        <ele>384.60000610352</ele>
        <time>2013-12-14T08:55:06.000Z</time>
      </trkpt>
      <trkpt lat="45.20305" lon="5.84948">
        <ele>385</ele>
        <time>2013-12-14T08:55:08.000Z</time>
      </trkpt>
      <trkpt lat="45.20309" lon="5.8496">
        <ele>386</ele>
        <time>2013-12-14T08:55:13.000Z</time>
      </trkpt>
      <trkpt lat="45.20313" lon="5.84971">
        <ele>386.39999389648</ele>
        <time>2013-12-14T08:55:19.000Z</time>
      </trkpt>
      <trkpt lat="45.20314" lon="5.8498">
        <ele>387.79998779297</ele>
        <time>2013-12-14T08:55:23.000Z</time>
      </trkpt>
      <trkpt lat="45.20315" lon="5.84994">
        <ele>391.20001220703</ele>
        <time>2013-12-14T08:55:30.000Z</time>
      </trkpt>
      <trkpt lat="45.20315" lon="5.84995">
        <ele>391.79998779297</ele>
        <time>2013-12-14T08:55:31.000Z</time>
      </trkpt>
      <trkpt lat="45.20319" lon="5.85006">
        <ele>392.20001220703</ele>
        <time>2013-12-14T08:55:36.000Z</time>
      </trkpt>
      <trkpt lat="45.20321" lon="5.85014">
        <ele>393.79998779297</ele>
        <time>2013-12-14T08:55:40.000Z</time>
      </trkpt>
      <trkpt lat="45.20326" lon="5.85027">
        <ele>395.39999389648</ele>
        <time>2013-12-14T08:55:46.000Z</time>
      </trkpt>
      <trkpt lat="45.20328" lon="5.85038">
        <ele>397.79998779297</ele>
        <time>2013-12-14T08:55:51.000Z</time>
      </trkpt>
      <trkpt lat="45.2033" lon="5.85051">
        <ele>401.60000610352</ele>
        <time>2013-12-14T08:55:57.000Z</time>
      </trkpt>
      <trkpt lat="45.20333" lon="5.85062">
        <ele>404</ele>
        <time>2013-12-14T08:56:02.000Z</time>
      </trkpt>
      <trkpt lat="45.20335" lon="5.85071">
        <ele>405.60000610352</ele>
        <time>2013-12-14T08:56:07.000Z</time>
      </trkpt>
      <trkpt lat="45.20334" lon="5.85083">
        <ele>411</ele>
        <time>2013-12-14T08:56:13.000Z</time>
      </trkpt>
      <trkpt lat="45.20336" lon="5.8509">
        <ele>411</ele>
        <time>2013-12-14T08:56:17.000Z</time>
      </trkpt>
      <trkpt lat="45.20338" lon="5.85098">
        <ele>410.79998779297</ele>
        <time>2013-12-14T08:56:21.000Z</time>
      </trkpt>
      <trkpt lat="45.20338" lon="5.85109">
        <ele>412.39999389648</ele>
        <time>2013-12-14T08:56:26.000Z</time>
      </trkpt>
      <trkpt lat="45.2034" lon="5.85122">
        <ele>412.79998779297</ele>
        <time>2013-12-14T08:56:33.000Z</time>
      </trkpt>
      <trkpt lat="45.2034" lon="5.85131">
        <ele>413.60000610352</ele>
        <time>2013-12-14T08:56:37.000Z</time>
      </trkpt>
      <trkpt lat="45.20339" lon="5.85141">
        <ele>415.60000610352</ele>
        <time>2013-12-14T08:56:42.000Z</time>
      </trkpt>
      <trkpt lat="45.20342" lon="5.85158">
        <ele>416.20001220703</ele>
        <time>2013-12-14T08:56:49.000Z</time>
      </trkpt>
      <trkpt lat="45.20341" lon="5.85168">
        <ele>418.60000610352</ele>
        <time>2013-12-14T08:56:54.000Z</time>
      </trkpt>
      <trkpt lat="45.20341" lon="5.85172">
        <ele>418.79998779297</ele>
        <time>2013-12-14T08:56:56.000Z</time>
      </trkpt>
      <trkpt lat="45.2034" lon="5.85183">
        <ele>421.20001220703</ele>
        <time>2013-12-14T08:57:02.000Z</time>
      </trkpt>
      <trkpt lat="45.20339" lon="5.85193">
        <ele>422.39999389648</ele>
        <time>2013-12-14T08:57:07.000Z</time>
      </trkpt>
      <trkpt lat="45.20338" lon="5.85202">
        <ele>424.39999389648</ele>
        <time>2013-12-14T08:57:11.000Z</time>
      </trkpt>
      <trkpt lat="45.20338" lon="5.85208">
        <ele>425.20001220703</ele>
        <time>2013-12-14T08:57:13.000Z</time>
      </trkpt>
      <trkpt lat="45.20336" lon="5.85223">
        <ele>427.60000610352</ele>
        <time>2013-12-14T08:57:20.000Z</time>
      </trkpt>
      <trkpt lat="45.20339" lon="5.85235">
        <ele>426.79998779297</ele>
        <time>2013-12-14T08:57:24.000Z</time>
      </trkpt>
      <trkpt lat="45.2034" lon="5.8525">
        <ele>428</ele>
        <time>2013-12-14T08:57:30.000Z</time>
      </trkpt>
      <trkpt lat="45.2034" lon="5.85261">
        <ele>428.79998779297</ele>
        <time>2013-12-14T08:57:34.000Z</time>
      </trkpt>
      <trkpt lat="45.20341" lon="5.85272">
        <ele>429.39999389648</ele>
        <time>2013-12-14T08:57:38.000Z</time>
      </trkpt>
      <trkpt lat="45.20337" lon="5.85287">
        <ele>433</ele>
        <time>2013-12-14T08:57:46.000Z</time>
      </trkpt>
      <trkpt lat="45.20336" lon="5.85294">
        <ele>434.20001220703</ele>
        <time>2013-12-14T08:57:50.000Z</time>
      </trkpt>
      <trkpt lat="45.20336" lon="5.85296">
        <ele>434.20001220703</ele>
        <time>2013-12-14T08:57:51.000Z</time>
      </trkpt>
      <trkpt lat="45.20335" lon="5.85303">
        <ele>435.60000610352</ele>
        <time>2013-12-14T08:57:57.000Z</time>
      </trkpt>
      <trkpt lat="45.20334" lon="5.85307">
        <ele>436.39999389648</ele>
        <time>2013-12-14T08:58:00.000Z</time>
      </trkpt>
      <trkpt lat="45.20332" lon="5.85315">
        <ele>437.79998779297</ele>
        <time>2013-12-14T08:58:05.000Z</time>
      </trkpt>
      <trkpt lat="45.20332" lon="5.8532">
        <ele>438.20001220703</ele>
        <time>2013-12-14T08:58:08.000Z</time>
      </trkpt>
      <trkpt lat="45.20335" lon="5.85331">
        <ele>438</ele>
        <time>2013-12-14T08:58:13.000Z</time>
      </trkpt>
      <trkpt lat="45.20334" lon="5.85333">
        <ele>438.39999389648</ele>
        <time>2013-12-14T08:58:14.000Z</time>
      </trkpt>
      <trkpt lat="45.20333" lon="5.85345">
        <ele>441.39999389648</ele>
        <time>2013-12-14T08:58:20.000Z</time>
      </trkpt>
      <trkpt lat="45.2033" lon="5.85351">
        <ele>443.60000610352</ele>
        <time>2013-12-14T08:58:24.000Z</time>
      </trkpt>
      <trkpt lat="45.20325" lon="5.85356">
        <ele>446.20001220703</ele>
        <time>2013-12-14T08:58:27.000Z</time>
      </trkpt>
      <trkpt lat="45.20314" lon="5.85358">
        <ele>450.39999389648</ele>
        <time>2013-12-14T08:58:33.000Z</time>
      </trkpt>
      <trkpt lat="45.20311" lon="5.85358">
        <ele>451.39999389648</ele>
        <time>2013-12-14T08:58:35.000Z</time>
      </trkpt>
      <trkpt lat="45.20309" lon="5.85359">
        <ele>452.20001220703</ele>
        <time>2013-12-14T08:58:38.000Z</time>
      </trkpt>
      <trkpt lat="45.20308" lon="5.85368">
        <ele>454.20001220703</ele>
        <time>2013-12-14T08:58:43.000Z</time>
      </trkpt>
      <trkpt lat="45.2031" lon="5.85377">
        <ele>455.39999389648</ele>
        <time>2013-12-14T08:58:47.000Z</time>
      </trkpt>
      <trkpt lat="45.20314" lon="5.85383">
        <ele>455.20001220703</ele>
        <time>2013-12-14T08:58:51.000Z</time>
      </trkpt>
      <trkpt lat="45.20317" lon="5.85394">
        <ele>456</ele>
        <time>2013-12-14T08:58:57.000Z</time>
      </trkpt>
      <trkpt lat="45.2032" lon="5.854">
        <ele>456.39999389648</ele>
        <time>2013-12-14T08:59:01.000Z</time>
      </trkpt>
      <trkpt lat="45.20322" lon="5.85404">
        <ele>456.39999389648</ele>
        <time>2013-12-14T08:59:03.000Z</time>
      </trkpt>
      <trkpt lat="45.20323" lon="5.85407">
        <ele>456.60000610352</ele>
        <time>2013-12-14T08:59:05.000Z</time>
      </trkpt>
      <trkpt lat="45.20326" lon="5.85413">
        <ele>456.79998779297</ele>
        <time>2013-12-14T08:59:09.000Z</time>
      </trkpt>
      <trkpt lat="45.20328" lon="5.8542">
        <ele>457.79998779297</ele>
        <time>2013-12-14T08:59:14.000Z</time>
      </trkpt>
      <trkpt lat="45.20333" lon="5.85432">
        <ele>459</ele>
        <time>2013-12-14T08:59:19.000Z</time>
      </trkpt>
      <trkpt lat="45.20336" lon="5.85442">
        <ele>460.39999389648</ele>
        <time>2013-12-14T08:59:25.000Z</time>
      </trkpt>
      <trkpt lat="45.20339" lon="5.85448">
        <ele>460.79998779297</ele>
        <time>2013-12-14T08:59:28.000Z</time>
      </trkpt>
      <trkpt lat="45.20341" lon="5.85456">
        <ele>462.20001220703</ele>
        <time>2013-12-14T08:59:34.000Z</time>
      </trkpt>
      <trkpt lat="45.2034" lon="5.85467">
        <ele>465.39999389648</ele>
        <time>2013-12-14T08:59:41.000Z</time>
      </trkpt>
      <trkpt lat="45.20341" lon="5.85472">
        <ele>466.20001220703</ele>
        <time>2013-12-14T08:59:46.000Z</time>
      </trkpt>
      <trkpt lat="45.20341" lon="5.85477">
        <ele>467.60000610352</ele>
        <time>2013-12-14T08:59:49.000Z</time>
      </trkpt>
      <trkpt lat="45.20349" lon="5.85496">
        <ele>470</ele>
        <time>2013-12-14T08:59:56.000Z</time>
      </trkpt>
      <trkpt lat="45.20352" lon="5.85507">
        <ele>471.79998779297</ele>
        <time>2013-12-14T09:00:00.000Z</time>
      </trkpt>
      <trkpt lat="45.20356" lon="5.85516">
        <ele>472</ele>
        <time>2013-12-14T09:00:05.000Z</time>
      </trkpt>
      <trkpt lat="45.20357" lon="5.85517">
        <ele>472.20001220703</ele>
        <time>2013-12-14T09:00:06.000Z</time>
      </trkpt>
      <trkpt lat="45.20364" lon="5.85524">
        <ele>471.39999389648</ele>
        <time>2013-12-14T09:00:11.000Z</time>
      </trkpt>
      <trkpt lat="45.20369" lon="5.85531">
        <ele>471</ele>
        <time>2013-12-14T09:00:15.000Z</time>
      </trkpt>
      <trkpt lat="45.20376" lon="5.85543">
        <ele>471.39999389648</ele>
        <time>2013-12-14T09:00:21.000Z</time>
      </trkpt>
      <trkpt lat="45.2038" lon="5.85552">
        <ele>472.20001220703</ele>
        <time>2013-12-14T09:00:25.000Z</time>
      </trkpt>
      <trkpt lat="45.20384" lon="5.85562">
        <ele>473.20001220703</ele>
        <time>2013-12-14T09:00:29.000Z</time>
      </trkpt>
      <trkpt lat="45.2039" lon="5.85581">
        <ele>475.60000610352</ele>
        <time>2013-12-14T09:00:35.000Z</time>
      </trkpt>
      <trkpt lat="45.20396" lon="5.85595">
        <ele>476.20001220703</ele>
        <time>2013-12-14T09:00:39.000Z</time>
      </trkpt>
      <trkpt lat="45.20403" lon="5.85609">
        <ele>476.60000610352</ele>
        <time>2013-12-14T09:00:44.000Z</time>
      </trkpt>
      <trkpt lat="45.20408" lon="5.85627">
        <ele>477.60000610352</ele>
        <time>2013-12-14T09:00:50.000Z</time>
      </trkpt>
      <trkpt lat="45.20411" lon="5.85642">
        <ele>478.60000610352</ele>
        <time>2013-12-14T09:00:55.000Z</time>
      </trkpt>
      <trkpt lat="45.20412" lon="5.8565">
        <ele>479.39999389648</ele>
        <time>2013-12-14T09:00:58.000Z</time>
      </trkpt>
      <trkpt lat="45.20415" lon="5.85664">
        <ele>480.20001220703</ele>
        <time>2013-12-14T09:01:04.000Z</time>
      </trkpt>
      <trkpt lat="45.20416" lon="5.85674">
        <ele>480.60000610352</ele>
        <time>2013-12-14T09:01:08.000Z</time>
      </trkpt>
      <trkpt lat="45.20416" lon="5.85685">
        <ele>481.39999389648</ele>
        <time>2013-12-14T09:01:13.000Z</time>
      </trkpt>
      <trkpt lat="45.20414" lon="5.85689">
        <ele>482.39999389648</ele>
        <time>2013-12-14T09:01:15.000Z</time>
      </trkpt>
      <trkpt lat="45.20413" lon="5.85705">
        <ele>483.79998779297</ele>
        <time>2013-12-14T09:01:21.000Z</time>
      </trkpt>
      <trkpt lat="45.20415" lon="5.85711">
        <ele>483.60000610352</ele>
        <time>2013-12-14T09:01:23.000Z</time>
      </trkpt>
      <trkpt lat="45.20413" lon="5.85724">
        <ele>485</ele>
        <time>2013-12-14T09:01:29.000Z</time>
      </trkpt>
      <trkpt lat="45.20408" lon="5.8574">
        <ele>488.20001220703</ele>
        <time>2013-12-14T09:01:35.000Z</time>
      </trkpt>
      <trkpt lat="45.20401" lon="5.85755">
        <ele>492.39999389648</ele>
        <time>2013-12-14T09:01:40.000Z</time>
      </trkpt>
      <trkpt lat="45.20393" lon="5.85767">
        <ele>497.60000610352</ele>
        <time>2013-12-14T09:01:45.000Z</time>
      </trkpt>
      <trkpt lat="45.20393" lon="5.85775">
        <ele>498.39999389648</ele>
        <time>2013-12-14T09:01:49.000Z</time>
      </trkpt>
      <trkpt lat="45.20388" lon="5.85781">
        <ele>501.20001220703</ele>
        <time>2013-12-14T09:01:54.000Z</time>
      </trkpt>
      <trkpt lat="45.20376" lon="5.85791">
        <ele>506.79998779297</ele>
        <time>2013-12-14T09:01:59.000Z</time>
      </trkpt>
      <trkpt lat="45.2037" lon="5.85796">
        <ele>509.39999389648</ele>
        <time>2013-12-14T09:02:02.000Z</time>
      </trkpt>
      <trkpt lat="45.20372" lon="5.85807">
        <ele>509.79998779297</ele>
        <time>2013-12-14T09:02:07.000Z</time>
      </trkpt>
      <trkpt lat="45.20373" lon="5.85809">
        <ele>509.60000610352</ele>
        <time>2013-12-14T09:02:09.000Z</time>
      </trkpt>
      <trkpt lat="45.2038" lon="5.85815">
        <ele>507.60000610352</ele>
        <time>2013-12-14T09:02:15.000Z</time>
      </trkpt>
      <trkpt lat="45.20386" lon="5.85816">
        <ele>505.79998779297</ele>
        <time>2013-12-14T09:02:20.000Z</time>
      </trkpt>
      <trkpt lat="45.20389" lon="5.85817">
        <ele>504.79998779297</ele>
        <time>2013-12-14T09:02:23.000Z</time>
      </trkpt>
      <trkpt lat="45.20394" lon="5.85817">
        <ele>503.20001220703</ele>
        <time>2013-12-14T09:02:26.000Z</time>
      </trkpt>
      <trkpt lat="45.20394" lon="5.85816">
        <ele>502.79998779297</ele>
        <time>2013-12-14T09:02:28.000Z</time>
      </trkpt>
      <trkpt lat="45.20398" lon="5.85819">
        <ele>502</ele>
        <time>2013-12-14T09:02:33.000Z</time>
      </trkpt>
      <trkpt lat="45.20401" lon="5.85824">
        <ele>501.60000610352</ele>
        <time>2013-12-14T09:02:37.000Z</time>
      </trkpt>
      <trkpt lat="45.20407" lon="5.85832">
        <ele>500.79998779297</ele>
        <time>2013-12-14T09:02:44.000Z</time>
      </trkpt>
      <trkpt lat="45.20408" lon="5.85837">
        <ele>501.39999389648</ele>
        <time>2013-12-14T09:02:49.000Z</time>
      </trkpt>
      <trkpt lat="45.20412" lon="5.85843">
        <ele>501.79998779297</ele>
        <time>2013-12-14T09:02:54.000Z</time>
      </trkpt>
      <trkpt lat="45.20412" lon="5.85845">
        <ele>502.20001220703</ele>
        <time>2013-12-14T09:02:56.000Z</time>
      </trkpt>
      <trkpt lat="45.20412" lon="5.85848">
        <ele>503</ele>
        <time>2013-12-14T09:02:58.000Z</time>
      </trkpt>
      <trkpt lat="45.20416" lon="5.85855">
        <ele>503.39999389648</ele>
        <time>2013-12-14T09:03:03.000Z</time>
      </trkpt>
      <trkpt lat="45.20417" lon="5.85856">
        <ele>503.20001220703</ele>
        <time>2013-12-14T09:03:04.000Z</time>
      </trkpt>
      <trkpt lat="45.20418" lon="5.85867">
        <ele>505.60000610352</ele>
        <time>2013-12-14T09:03:10.000Z</time>
      </trkpt>
      <trkpt lat="45.20421" lon="5.85872">
        <ele>505.79998779297</ele>
        <time>2013-12-14T09:03:13.000Z</time>
      </trkpt>
      <trkpt lat="45.20421" lon="5.85875">
        <ele>506.39999389648</ele>
        <time>2013-12-14T09:03:15.000Z</time>
      </trkpt>
      <trkpt lat="45.2042" lon="5.85881">
        <ele>508.39999389648</ele>
        <time>2013-12-14T09:03:19.000Z</time>
      </trkpt>
      <trkpt lat="45.20423" lon="5.85893">
        <ele>510.20001220703</ele>
        <time>2013-12-14T09:03:24.000Z</time>
      </trkpt>
      <trkpt lat="45.20424" lon="5.85904">
        <ele>512.79998779297</ele>
        <time>2013-12-14T09:03:30.000Z</time>
      </trkpt>
      <trkpt lat="45.20423" lon="5.8591">
        <ele>514.59997558594</ele>
        <time>2013-12-14T09:03:34.000Z</time>
      </trkpt>
      <trkpt lat="45.20416" lon="5.85913">
        <ele>517.59997558594</ele>
        <time>2013-12-14T09:03:40.000Z</time>
      </trkpt>
      <trkpt lat="45.2041" lon="5.85917">
        <ele>520</ele>
        <time>2013-12-14T09:03:45.000Z</time>
      </trkpt>
      <trkpt lat="45.20407" lon="5.85918">
        <ele>521.20001220703</ele>
        <time>2013-12-14T09:03:48.000Z</time>
      </trkpt>
      <trkpt lat="45.20403" lon="5.85926">
        <ele>523.59997558594</ele>
        <time>2013-12-14T09:03:53.000Z</time>
      </trkpt>
      <trkpt lat="45.20399" lon="5.85934">
        <ele>526</ele>
        <time>2013-12-14T09:03:59.000Z</time>
      </trkpt>
      <trkpt lat="45.20396" lon="5.85944">
        <ele>528.20001220703</ele>
        <time>2013-12-14T09:04:05.000Z</time>
      </trkpt>
      <trkpt lat="45.20392" lon="5.85952">
        <ele>530.59997558594</ele>
        <time>2013-12-14T09:04:10.000Z</time>
      </trkpt>
      <trkpt lat="45.2039" lon="5.85964">
        <ele>533</ele>
        <time>2013-12-14T09:04:15.000Z</time>
      </trkpt>
      <trkpt lat="45.20389" lon="5.85966">
        <ele>533.59997558594</ele>
        <time>2013-12-14T09:04:16.000Z</time>
      </trkpt>
      <trkpt lat="45.20378" lon="5.85975">
        <ele>538.40002441406</ele>
        <time>2013-12-14T09:04:23.000Z</time>
      </trkpt>
      <trkpt lat="45.20369" lon="5.85981">
        <ele>542.40002441406</ele>
        <time>2013-12-14T09:04:28.000Z</time>
      </trkpt>
      <trkpt lat="45.20363" lon="5.85992">
        <ele>546.20001220703</ele>
        <time>2013-12-14T09:04:32.000Z</time>
      </trkpt>
      <trkpt lat="45.20361" lon="5.86001">
        <ele>548.20001220703</ele>
        <time>2013-12-14T09:04:35.000Z</time>
      </trkpt>
      <trkpt lat="45.20368" lon="5.86012">
        <ele>547.59997558594</ele>
        <time>2013-12-14T09:04:39.000Z</time>
      </trkpt>
      <trkpt lat="45.20383" lon="5.86012">
        <ele>542.79998779297</ele>
        <time>2013-12-14T09:04:44.000Z</time>
      </trkpt>
      <trkpt lat="45.20388" lon="5.86014">
        <ele>541.40002441406</ele>
        <time>2013-12-14T09:04:47.000Z</time>
      </trkpt>
      <trkpt lat="45.20406" lon="5.86016">
        <ele>536</ele>
        <time>2013-12-14T09:04:55.000Z</time>
      </trkpt>
      <trkpt lat="45.20407" lon="5.86017">
        <ele>535.59997558594</ele>
        <time>2013-12-14T09:04:56.000Z</time>
      </trkpt>
      <trkpt lat="45.20409" lon="5.86018">
        <ele>535.40002441406</ele>
        <time>2013-12-14T09:04:58.000Z</time>
      </trkpt>
      <trkpt lat="45.20414" lon="5.86021">
        <ele>534.20001220703</ele>
        <time>2013-12-14T09:05:01.000Z</time>
      </trkpt>
      <trkpt lat="45.20419" lon="5.86023">
        <ele>533.59997558594</ele>
        <time>2013-12-14T09:05:04.000Z</time>
      </trkpt>
      <trkpt lat="45.20425" lon="5.86027">
        <ele>533.59997558594</ele>
        <time>2013-12-14T09:05:08.000Z</time>
      </trkpt>
      <trkpt lat="45.20434" lon="5.8603">
        <ele>532.79998779297</ele>
        <time>2013-12-14T09:05:14.000Z</time>
      </trkpt>
      <trkpt lat="45.2044" lon="5.86032">
        <ele>532.20001220703</ele>
        <time>2013-12-14T09:05:18.000Z</time>
      </trkpt>
      <trkpt lat="45.20446" lon="5.86034">
        <ele>531.79998779297</ele>
        <time>2013-12-14T09:05:22.000Z</time>
      </trkpt>
      <trkpt lat="45.20454" lon="5.86038">
        <ele>531.20001220703</ele>
        <time>2013-12-14T09:05:27.000Z</time>
      </trkpt>
      <trkpt lat="45.20456" lon="5.8604">
        <ele>531.20001220703</ele>
        <time>2013-12-14T09:05:28.000Z</time>
      </trkpt>
      <trkpt lat="45.20462" lon="5.86045">
        <ele>531.20001220703</ele>
        <time>2013-12-14T09:05:31.000Z</time>
      </trkpt>
      <trkpt lat="45.2047" lon="5.8605">
        <ele>531</ele>
        <time>2013-12-14T09:05:35.000Z</time>
      </trkpt>
      <trkpt lat="45.20486" lon="5.86066">
        <ele>530.79998779297</ele>
        <time>2013-12-14T09:05:41.000Z</time>
      </trkpt>
      <trkpt lat="45.20497" lon="5.86084">
        <ele>531.59997558594</ele>
        <time>2013-12-14T09:05:46.000Z</time>
      </trkpt>
      <trkpt lat="45.205" lon="5.86092">
        <ele>533</ele>
        <time>2013-12-14T09:05:49.000Z</time>
      </trkpt>
      <trkpt lat="45.20508" lon="5.86107">
        <ele>534.59997558594</ele>
        <time>2013-12-14T09:05:54.000Z</time>
      </trkpt>
      <trkpt lat="45.20514" lon="5.86123">
        <ele>537</ele>
        <time>2013-12-14T09:06:00.000Z</time>
      </trkpt>
      <trkpt lat="45.20526" lon="5.86132">
        <ele>536</ele>
        <time>2013-12-14T09:06:05.000Z</time>
      </trkpt>
      <trkpt lat="45.20537" lon="5.86144">
        <ele>535.40002441406</ele>
        <time>2013-12-14T09:06:11.000Z</time>
      </trkpt>
      <trkpt lat="45.20541" lon="5.86148">
        <ele>535.40002441406</ele>
        <time>2013-12-14T09:06:13.000Z</time>
      </trkpt>
      <trkpt lat="45.20543" lon="5.8615">
        <ele>535.40002441406</ele>
        <time>2013-12-14T09:06:15.000Z</time>
      </trkpt>
      <trkpt lat="45.20552" lon="5.86164">
        <ele>536.59997558594</ele>
        <time>2013-12-14T09:06:20.000Z</time>
      </trkpt>
      <trkpt lat="45.20565" lon="5.86182">
        <ele>538.20001220703</ele>
        <time>2013-12-14T09:06:25.000Z</time>
      </trkpt>
      <trkpt lat="45.20578" lon="5.86197">
        <ele>538</ele>
        <time>2013-12-14T09:06:30.000Z</time>
      </trkpt>
      <trkpt lat="45.20583" lon="5.86204">
        <ele>538.40002441406</ele>
        <time>2013-12-14T09:06:33.000Z</time>
      </trkpt>
      <trkpt lat="45.20587" lon="5.86213">
        <ele>539.40002441406</ele>
        <time>2013-12-14T09:06:36.000Z</time>
      </trkpt>
      <trkpt lat="45.20593" lon="5.86223">
        <ele>539.59997558594</ele>
        <time>2013-12-14T09:06:40.000Z</time>
      </trkpt>
      <trkpt lat="45.20602" lon="5.86241">
        <ele>540.59997558594</ele>
        <time>2013-12-14T09:06:46.000Z</time>
      </trkpt>
      <trkpt lat="45.20613" lon="5.86254">
        <ele>538.79998779297</ele>
        <time>2013-12-14T09:06:52.000Z</time>
      </trkpt>
      <trkpt lat="45.20617" lon="5.86264">
        <ele>538.79998779297</ele>
        <time>2013-12-14T09:06:55.000Z</time>
      </trkpt>
      <trkpt lat="45.20627" lon="5.86282">
        <ele>536.59997558594</ele>
        <time>2013-12-14T09:07:01.000Z</time>
      </trkpt>
      <trkpt lat="45.20632" lon="5.86296">
        <ele>536.40002441406</ele>
        <time>2013-12-14T09:07:05.000Z</time>
      </trkpt>
      <trkpt lat="45.20636" lon="5.86316">
        <ele>537.40002441406</ele>
        <time>2013-12-14T09:07:10.000Z</time>
      </trkpt>
      <trkpt lat="45.20638" lon="5.86326">
        <ele>537.20001220703</ele>
        <time>2013-12-14T09:07:12.000Z</time>
      </trkpt>
      <trkpt lat="45.20635" lon="5.86358">
        <ele>538.40002441406</ele>
        <time>2013-12-14T09:07:19.000Z</time>
      </trkpt>
      <trkpt lat="45.20628" lon="5.86377">
        <ele>541.20001220703</ele>
        <time>2013-12-14T09:07:23.000Z</time>
      </trkpt>
      <trkpt lat="45.20618" lon="5.86396">
        <ele>544.79998779297</ele>
        <time>2013-12-14T09:07:28.000Z</time>
      </trkpt>
      <trkpt lat="45.20619" lon="5.86408">
        <ele>544</ele>
        <time>2013-12-14T09:07:32.000Z</time>
      </trkpt>
      <trkpt lat="45.20618" lon="5.86427">
        <ele>544.79998779297</ele>
        <time>2013-12-14T09:07:38.000Z</time>
      </trkpt>
      <trkpt lat="45.20612" lon="5.86444">
        <ele>548.40002441406</ele>
        <time>2013-12-14T09:07:44.000Z</time>
      </trkpt>
      <trkpt lat="45.20609" lon="5.86461">
        <ele>550</ele>
        <time>2013-12-14T09:07:49.000Z</time>
      </trkpt>
      <trkpt lat="45.20604" lon="5.86477">
        <ele>552.59997558594</ele>
        <time>2013-12-14T09:07:53.000Z</time>
      </trkpt>
      <trkpt lat="45.206" lon="5.86494">
        <ele>554.40002441406</ele>
        <time>2013-12-14T09:07:57.000Z</time>
      </trkpt>
      <trkpt lat="45.20597" lon="5.86502">
        <ele>556.20001220703</ele>
        <time>2013-12-14T09:07:59.000Z</time>
      </trkpt>
      <trkpt lat="45.20597" lon="5.86507">
        <ele>558</ele>
        <time>2013-12-14T09:08:01.000Z</time>
      </trkpt>
      <trkpt lat="45.20597" lon="5.86507">
        <ele>557.79998779297</ele>
        <time>2013-12-14T09:08:03.000Z</time>
      </trkpt>
      <trkpt lat="45.20599" lon="5.86507">
        <ele>557</ele>
        <time>2013-12-14T09:08:05.000Z</time>
      </trkpt>
      <trkpt lat="45.20601" lon="5.86505">
        <ele>556</ele>
        <time>2013-12-14T09:08:07.000Z</time>
      </trkpt>
      <trkpt lat="45.20615" lon="5.86503">
        <ele>550.79998779297</ele>
        <time>2013-12-14T09:08:13.000Z</time>
      </trkpt>
      <trkpt lat="45.20622" lon="5.865">
        <ele>547.40002441406</ele>
        <time>2013-12-14T09:08:17.000Z</time>
      </trkpt>
      <trkpt lat="45.20624" lon="5.86499">
        <ele>546.79998779297</ele>
        <time>2013-12-14T09:08:19.000Z</time>
      </trkpt>
      <trkpt lat="45.20637" lon="5.86507">
        <ele>545.20001220703</ele>
        <time>2013-12-14T09:08:27.000Z</time>
      </trkpt>
      <trkpt lat="45.20647" lon="5.86516">
        <ele>545.79998779297</ele>
        <time>2013-12-14T09:08:32.000Z</time>
      </trkpt>
      <trkpt lat="45.20655" lon="5.86523">
        <ele>546.20001220703</ele>
        <time>2013-12-14T09:08:37.000Z</time>
      </trkpt>
      <trkpt lat="45.20658" lon="5.86525">
        <ele>546.40002441406</ele>
        <time>2013-12-14T09:08:39.000Z</time>
      </trkpt>
      <trkpt lat="45.20665" lon="5.86529">
        <ele>545.79998779297</ele>
        <time>2013-12-14T09:08:44.000Z</time>
      </trkpt>
      <trkpt lat="45.20673" lon="5.8653">
        <ele>545.59997558594</ele>
        <time>2013-12-14T09:08:49.000Z</time>
      </trkpt>
      <trkpt lat="45.2068" lon="5.86533">
        <ele>546.59997558594</ele>
        <time>2013-12-14T09:08:54.000Z</time>
      </trkpt>
      <trkpt lat="45.20682" lon="5.86535">
        <ele>547.20001220703</ele>
        <time>2013-12-14T09:08:55.000Z</time>
      </trkpt>
      <trkpt lat="45.2069" lon="5.86541">
        <ele>549</ele>
        <time>2013-12-14T09:09:01.000Z</time>
      </trkpt>
      <trkpt lat="45.207" lon="5.86546">
        <ele>550.20001220703</ele>
        <time>2013-12-14T09:09:08.000Z</time>
      </trkpt>
      <trkpt lat="45.2071" lon="5.86549">
        <ele>550.59997558594</ele>
        <time>2013-12-14T09:09:14.000Z</time>
      </trkpt>
      <trkpt lat="45.20716" lon="5.86551">
        <ele>551</ele>
        <time>2013-12-14T09:09:18.000Z</time>
      </trkpt>
      <trkpt lat="45.20728" lon="5.86559">
        <ele>552.40002441406</ele>
        <time>2013-12-14T09:09:24.000Z</time>
      </trkpt>
      <trkpt lat="45.20735" lon="5.86566">
        <ele>554.20001220703</ele>
        <time>2013-12-14T09:09:28.000Z</time>
      </trkpt>
      <trkpt lat="45.20747" lon="5.8658">
        <ele>557.40002441406</ele>
        <time>2013-12-14T09:09:35.000Z</time>
      </trkpt>
      <trkpt lat="45.20754" lon="5.86593">
        <ele>559.40002441406</ele>
        <time>2013-12-14T09:09:41.000Z</time>
      </trkpt>
      <trkpt lat="45.20758" lon="5.86602">
        <ele>560.79998779297</ele>
        <time>2013-12-14T09:09:46.000Z</time>
      </trkpt>
      <trkpt lat="45.20765" lon="5.86615">
        <ele>562.40002441406</ele>
        <time>2013-12-14T09:09:52.000Z</time>
      </trkpt>
      <trkpt lat="45.20773" lon="5.86624">
        <ele>562.40002441406</ele>
        <time>2013-12-14T09:09:57.000Z</time>
      </trkpt>
      <trkpt lat="45.20775" lon="5.86626">
        <ele>562.40002441406</ele>
        <time>2013-12-14T09:09:58.000Z</time>
      </trkpt>
      <trkpt lat="45.20781" lon="5.86637">
        <ele>563.40002441406</ele>
        <time>2013-12-14T09:10:04.000Z</time>
      </trkpt>
      <trkpt lat="45.20787" lon="5.86647">
        <ele>564.40002441406</ele>
        <time>2013-12-14T09:10:10.000Z</time>
      </trkpt>
      <trkpt lat="45.20789" lon="5.8665">
        <ele>564.40002441406</ele>
        <time>2013-12-14T09:10:12.000Z</time>
      </trkpt>
      <trkpt lat="45.20796" lon="5.86659">
        <ele>564.59997558594</ele>
        <time>2013-12-14T09:10:17.000Z</time>
      </trkpt>
      <trkpt lat="45.20797" lon="5.86661">
        <ele>564.59997558594</ele>
        <time>2013-12-14T09:10:18.000Z</time>
      </trkpt>
      <trkpt lat="45.20794" lon="5.86664">
        <ele>566.20001220703</ele>
        <time>2013-12-14T09:10:22.000Z</time>
      </trkpt>
      <trkpt lat="45.20793" lon="5.86663">
        <ele>566.40002441406</ele>
        <time>2013-12-14T09:10:23.000Z</time>
      </trkpt>
      <trkpt lat="45.20779" lon="5.86657">
        <ele>568.79998779297</ele>
        <time>2013-12-14T09:10:29.000Z</time>
      </trkpt>
      <trkpt lat="45.20771" lon="5.86655">
        <ele>570.79998779297</ele>
        <time>2013-12-14T09:10:34.000Z</time>
      </trkpt>
      <trkpt lat="45.20759" lon="5.86651">
        <ele>573.20001220703</ele>
        <time>2013-12-14T09:10:40.000Z</time>
      </trkpt>
      <trkpt lat="45.20748" lon="5.86647">
        <ele>575.20001220703</ele>
        <time>2013-12-14T09:10:45.000Z</time>
      </trkpt>
      <trkpt lat="45.20732" lon="5.8664">
        <ele>576.79998779297</ele>
        <time>2013-12-14T09:10:52.000Z</time>
      </trkpt>
      <trkpt lat="45.20718" lon="5.86633">
        <ele>577.79998779297</ele>
        <time>2013-12-14T09:10:57.000Z</time>
      </trkpt>
      <trkpt lat="45.20707" lon="5.86627">
        <ele>578.20001220703</ele>
        <time>2013-12-14T09:11:01.000Z</time>
      </trkpt>
      <trkpt lat="45.20697" lon="5.86622">
        <ele>578.59997558594</ele>
        <time>2013-12-14T09:11:05.000Z</time>
      </trkpt>
      <trkpt lat="45.20682" lon="5.86613">
        <ele>578</ele>
        <time>2013-12-14T09:11:11.000Z</time>
      </trkpt>
      <trkpt lat="45.2067" lon="5.86607">
        <ele>577.79998779297</ele>
        <time>2013-12-14T09:11:16.000Z</time>
      </trkpt>
      <trkpt lat="45.20656" lon="5.86595">
        <ele>575.59997558594</ele>
        <time>2013-12-14T09:11:21.000Z</time>
      </trkpt>
      <trkpt lat="45.2064" lon="5.86581">
        <ele>573.20001220703</ele>
        <time>2013-12-14T09:11:27.000Z</time>
      </trkpt>
      <trkpt lat="45.20624" lon="5.86577">
        <ele>574.40002441406</ele>
        <time>2013-12-14T09:11:32.000Z</time>
      </trkpt>
      <trkpt lat="45.20613" lon="5.86579">
        <ele>577.40002441406</ele>
        <time>2013-12-14T09:11:36.000Z</time>
      </trkpt>
      <trkpt lat="45.20597" lon="5.86582">
        <ele>581</ele>
        <time>2013-12-14T09:11:41.000Z</time>
      </trkpt>
      <trkpt lat="45.20579" lon="5.86586">
        <ele>586.40002441406</ele>
        <time>2013-12-14T09:11:47.000Z</time>
      </trkpt>
      <trkpt lat="45.20567" lon="5.86583">
        <ele>588.79998779297</ele>
        <time>2013-12-14T09:11:51.000Z</time>
      </trkpt>
      <trkpt lat="45.20556" lon="5.86579">
        <ele>591.40002441406</ele>
        <time>2013-12-14T09:11:56.000Z</time>
      </trkpt>
      <trkpt lat="45.20547" lon="5.86575">
        <ele>593.40002441406</ele>
        <time>2013-12-14T09:12:01.000Z</time>
      </trkpt>
      <trkpt lat="45.20535" lon="5.86572">
        <ele>596.79998779297</ele>
        <time>2013-12-14T09:12:06.000Z</time>
      </trkpt>
      <trkpt lat="45.20534" lon="5.86571">
        <ele>597</ele>
        <time>2013-12-14T09:12:07.000Z</time>
      </trkpt>
      <trkpt lat="45.20526" lon="5.86569">
        <ele>599.79998779297</ele>
        <time>2013-12-14T09:12:12.000Z</time>
      </trkpt>
      <trkpt lat="45.20512" lon="5.86572">
        <ele>604.59997558594</ele>
        <time>2013-12-14T09:12:18.000Z</time>
      </trkpt>
      <trkpt lat="45.20508" lon="5.8657">
        <ele>605.79998779297</ele>
        <time>2013-12-14T09:12:20.000Z</time>
      </trkpt>
      <trkpt lat="45.20504" lon="5.86563">
        <ele>606.79998779297</ele>
        <time>2013-12-14T09:12:23.000Z</time>
      </trkpt>
      <trkpt lat="45.20502" lon="5.86548">
        <ele>606.79998779297</ele>
        <time>2013-12-14T09:12:28.000Z</time>
      </trkpt>
      <trkpt lat="45.20505" lon="5.86531">
        <ele>605</ele>
        <time>2013-12-14T09:12:33.000Z</time>
      </trkpt>
      <trkpt lat="45.20506" lon="5.86526">
        <ele>604</ele>
        <time>2013-12-14T09:12:35.000Z</time>
      </trkpt>
      <trkpt lat="45.20509" lon="5.86506">
        <ele>601.20001220703</ele>
        <time>2013-12-14T09:12:42.000Z</time>
      </trkpt>
      <trkpt lat="45.20512" lon="5.8649">
        <ele>599.20001220703</ele>
        <time>2013-12-14T09:12:49.000Z</time>
      </trkpt>
      <trkpt lat="45.20514" lon="5.86485">
        <ele>598</ele>
        <time>2013-12-14T09:12:51.000Z</time>
      </trkpt>
      <trkpt lat="45.20521" lon="5.86469">
        <ele>594.59997558594</ele>
        <time>2013-12-14T09:12:57.000Z</time>
      </trkpt>
      <trkpt lat="45.20524" lon="5.86457">
        <ele>593</ele>
        <time>2013-12-14T09:13:01.000Z</time>
      </trkpt>
      <trkpt lat="45.20524" lon="5.8643">
        <ele>593.20001220703</ele>
        <time>2013-12-14T09:13:08.000Z</time>
      </trkpt>
      <trkpt lat="45.20518" lon="5.86413">
        <ele>596</ele>
        <time>2013-12-14T09:13:13.000Z</time>
      </trkpt>
      <trkpt lat="45.20514" lon="5.86396">
        <ele>597.40002441406</ele>
        <time>2013-12-14T09:13:17.000Z</time>
      </trkpt>
      <trkpt lat="45.20513" lon="5.86373">
        <ele>597.40002441406</ele>
        <time>2013-12-14T09:13:23.000Z</time>
      </trkpt>
      <trkpt lat="45.20511" lon="5.86351">
        <ele>597</ele>
        <time>2013-12-14T09:13:28.000Z</time>
      </trkpt>
      <trkpt lat="45.20508" lon="5.86334">
        <ele>597.59997558594</ele>
        <time>2013-12-14T09:13:32.000Z</time>
      </trkpt>
      <trkpt lat="45.20502" lon="5.86317">
        <ele>596.40002441406</ele>
        <time>2013-12-14T09:13:37.000Z</time>
      </trkpt>
      <trkpt lat="45.20493" lon="5.86297">
        <ele>595.40002441406</ele>
        <time>2013-12-14T09:13:43.000Z</time>
      </trkpt>
      <trkpt lat="45.20487" lon="5.86281">
        <ele>594.40002441406</ele>
        <time>2013-12-14T09:13:48.000Z</time>
      </trkpt>
      <trkpt lat="45.20473" lon="5.86265">
        <ele>596.20001220703</ele>
        <time>2013-12-14T09:13:54.000Z</time>
      </trkpt>
      <trkpt lat="45.20467" lon="5.86256">
        <ele>597</ele>
        <time>2013-12-14T09:13:58.000Z</time>
      </trkpt>
      <trkpt lat="45.20459" lon="5.86247">
        <ele>597.79998779297</ele>
        <time>2013-12-14T09:14:02.000Z</time>
      </trkpt>
      <trkpt lat="45.20447" lon="5.86238">
        <ele>599.40002441406</ele>
        <time>2013-12-14T09:14:08.000Z</time>
      </trkpt>
      <trkpt lat="45.20437" lon="5.86234">
        <ele>601.59997558594</ele>
        <time>2013-12-14T09:14:13.000Z</time>
      </trkpt>
      <trkpt lat="45.20433" lon="5.86232">
        <ele>602.79998779297</ele>
        <time>2013-12-14T09:14:15.000Z</time>
      </trkpt>
      <trkpt lat="45.2042" lon="5.86217">
        <ele>602</ele>
        <time>2013-12-14T09:14:22.000Z</time>
      </trkpt>
      <trkpt lat="45.20415" lon="5.8621">
        <ele>601.59997558594</ele>
        <time>2013-12-14T09:14:26.000Z</time>
      </trkpt>
      <trkpt lat="45.20403" lon="5.86205">
        <ele>601.59997558594</ele>
        <time>2013-12-14T09:14:31.000Z</time>
      </trkpt>
      <trkpt lat="45.20401" lon="5.86203">
        <ele>601.40002441406</ele>
        <time>2013-12-14T09:14:32.000Z</time>
      </trkpt>
      <trkpt lat="45.20399" lon="5.86201">
        <ele>600.79998779297</ele>
        <time>2013-12-14T09:14:34.000Z</time>
      </trkpt>
      <trkpt lat="45.20387" lon="5.86199">
        <ele>602.20001220703</ele>
        <time>2013-12-14T09:14:40.000Z</time>
      </trkpt>
      <trkpt lat="45.20373" lon="5.86199">
        <ele>605</ele>
        <time>2013-12-14T09:14:45.000Z</time>
      </trkpt>
      <trkpt lat="45.20361" lon="5.86197">
        <ele>606</ele>
        <time>2013-12-14T09:14:50.000Z</time>
      </trkpt>
      <trkpt lat="45.20344" lon="5.86194">
        <ele>607.79998779297</ele>
        <time>2013-12-14T09:14:56.000Z</time>
      </trkpt>
      <trkpt lat="45.20341" lon="5.86194">
        <ele>608</ele>
        <time>2013-12-14T09:14:57.000Z</time>
      </trkpt>
      <trkpt lat="45.20325" lon="5.86183">
        <ele>607.59997558594</ele>
        <time>2013-12-14T09:15:03.000Z</time>
      </trkpt>
      <trkpt lat="45.20311" lon="5.86179">
        <ele>611.20001220703</ele>
        <time>2013-12-14T09:15:08.000Z</time>
      </trkpt>
      <trkpt lat="45.20292" lon="5.8617">
        <ele>614.59997558594</ele>
        <time>2013-12-14T09:15:14.000Z</time>
      </trkpt>
      <trkpt lat="45.2028" lon="5.86165">
        <ele>617.40002441406</ele>
        <time>2013-12-14T09:15:19.000Z</time>
      </trkpt>
      <trkpt lat="45.20267" lon="5.86164">
        <ele>622.59997558594</ele>
        <time>2013-12-14T09:15:23.000Z</time>
      </trkpt>
      <trkpt lat="45.20254" lon="5.86161">
        <ele>627.20001220703</ele>
        <time>2013-12-14T09:15:27.000Z</time>
      </trkpt>
      <trkpt lat="45.2025" lon="5.86148">
        <ele>626</ele>
        <time>2013-12-14T09:15:32.000Z</time>
      </trkpt>
      <trkpt lat="45.20243" lon="5.86121">
        <ele>622.40002441406</ele>
        <time>2013-12-14T09:15:39.000Z</time>
      </trkpt>
      <trkpt lat="45.2024" lon="5.86101">
        <ele>619.40002441406</ele>
        <time>2013-12-14T09:15:44.000Z</time>
      </trkpt>
      <trkpt lat="45.20245" lon="5.86085">
        <ele>613.40002441406</ele>
        <time>2013-12-14T09:15:49.000Z</time>
      </trkpt>
      <trkpt lat="45.20245" lon="5.86073">
        <ele>611</ele>
        <time>2013-12-14T09:15:53.000Z</time>
      </trkpt>
      <trkpt lat="45.20243" lon="5.86055">
        <ele>608</ele>
        <time>2013-12-14T09:15:59.000Z</time>
      </trkpt>
      <trkpt lat="45.2024" lon="5.8603">
        <ele>604.20001220703</ele>
        <time>2013-12-14T09:16:06.000Z</time>
      </trkpt>
      <trkpt lat="45.20233" lon="5.86014">
        <ele>603.40002441406</ele>
        <time>2013-12-14T09:16:10.000Z</time>
      </trkpt>
      <trkpt lat="45.20221" lon="5.85999">
        <ele>604.59997558594</ele>
        <time>2013-12-14T09:16:15.000Z</time>
      </trkpt>
      <trkpt lat="45.20209" lon="5.85991">
        <ele>607</ele>
        <time>2013-12-14T09:16:20.000Z</time>
      </trkpt>
      <trkpt lat="45.20189" lon="5.85978">
        <ele>611</ele>
        <time>2013-12-14T09:16:26.000Z</time>
      </trkpt>
      <trkpt lat="45.2018" lon="5.85969">
        <ele>612</ele>
        <time>2013-12-14T09:16:30.000Z</time>
      </trkpt>
      <trkpt lat="45.20167" lon="5.85953">
        <ele>612.40002441406</ele>
        <time>2013-12-14T09:16:35.000Z</time>
      </trkpt>
      <trkpt lat="45.20158" lon="5.85941">
        <ele>613.79998779297</ele>
        <time>2013-12-14T09:16:39.000Z</time>
      </trkpt>
      <trkpt lat="45.20148" lon="5.85926">
        <ele>615.20001220703</ele>
        <time>2013-12-14T09:16:44.000Z</time>
      </trkpt>
      <trkpt lat="45.20142" lon="5.85907">
        <ele>616.20001220703</ele>
        <time>2013-12-14T09:16:49.000Z</time>
      </trkpt>
      <trkpt lat="45.2014" lon="5.85893">
        <ele>616.59997558594</ele>
        <time>2013-12-14T09:16:53.000Z</time>
      </trkpt>
      <trkpt lat="45.20148" lon="5.85878">
        <ele>612.59997558594</ele>
        <time>2013-12-14T09:16:57.000Z</time>
      </trkpt>
      <trkpt lat="45.20158" lon="5.85865">
        <ele>607.59997558594</ele>
        <time>2013-12-14T09:17:01.000Z</time>
      </trkpt>
      <trkpt lat="45.2016" lon="5.85862">
        <ele>606.59997558594</ele>
        <time>2013-12-14T09:17:02.000Z</time>
      </trkpt>
      <trkpt lat="45.20168" lon="5.85841">
        <ele>602.59997558594</ele>
        <time>2013-12-14T09:17:08.000Z</time>
      </trkpt>
      <trkpt lat="45.20179" lon="5.85832">
        <ele>597.59997558594</ele>
        <time>2013-12-14T09:17:13.000Z</time>
      </trkpt>
      <trkpt lat="45.20188" lon="5.85816">
        <ele>594.40002441406</ele>
        <time>2013-12-14T09:17:18.000Z</time>
      </trkpt>
      <trkpt lat="45.20195" lon="5.85799">
        <ele>592.79998779297</ele>
        <time>2013-12-14T09:17:23.000Z</time>
      </trkpt>
      <trkpt lat="45.20203" lon="5.85782">
        <ele>590.20001220703</ele>
        <time>2013-12-14T09:17:28.000Z</time>
      </trkpt>
      <trkpt lat="45.20205" lon="5.85768">
        <ele>590.20001220703</ele>
        <time>2013-12-14T09:17:32.000Z</time>
      </trkpt>
      <trkpt lat="45.202" lon="5.85755">
        <ele>593.79998779297</ele>
        <time>2013-12-14T09:17:37.000Z</time>
      </trkpt>
      <trkpt lat="45.20197" lon="5.85748">
        <ele>595.40002441406</ele>
        <time>2013-12-14T09:17:40.000Z</time>
      </trkpt>
      <trkpt lat="45.20188" lon="5.85736">
        <ele>597.79998779297</ele>
        <time>2013-12-14T09:17:47.000Z</time>
      </trkpt>
      <trkpt lat="45.20184" lon="5.85733">
        <ele>599.20001220703</ele>
        <time>2013-12-14T09:17:49.000Z</time>
      </trkpt>
      <trkpt lat="45.20175" lon="5.8572">
        <ele>601.79998779297</ele>
        <time>2013-12-14T09:17:56.000Z</time>
      </trkpt>
      <trkpt lat="45.20169" lon="5.85713">
        <ele>603.59997558594</ele>
        <time>2013-12-14T09:18:00.000Z</time>
      </trkpt>
      <trkpt lat="45.20159" lon="5.857">
        <ele>605.79998779297</ele>
        <time>2013-12-14T09:18:07.000Z</time>
      </trkpt>
      <trkpt lat="45.20158" lon="5.85696">
        <ele>605.59997558594</ele>
        <time>2013-12-14T09:18:09.000Z</time>
      </trkpt>
      <trkpt lat="45.20149" lon="5.85683">
        <ele>607.20001220703</ele>
        <time>2013-12-14T09:18:15.000Z</time>
      </trkpt>
      <trkpt lat="45.20145" lon="5.85676">
        <ele>607.59997558594</ele>
        <time>2013-12-14T09:18:18.000Z</time>
      </trkpt>
      <trkpt lat="45.20138" lon="5.85664">
        <ele>609</ele>
        <time>2013-12-14T09:18:25.000Z</time>
      </trkpt>
      <trkpt lat="45.20133" lon="5.85654">
        <ele>608.59997558594</ele>
        <time>2013-12-14T09:18:30.000Z</time>
      </trkpt>
      <trkpt lat="45.20126" lon="5.85642">
        <ele>608.79998779297</ele>
        <time>2013-12-14T09:18:36.000Z</time>
      </trkpt>
      <trkpt lat="45.20125" lon="5.85639">
        <ele>608.40002441406</ele>
        <time>2013-12-14T09:18:37.000Z</time>
      </trkpt>
      <trkpt lat="45.20115" lon="5.85626">
        <ele>610</ele>
        <time>2013-12-14T09:18:45.000Z</time>
      </trkpt>
      <trkpt lat="45.20111" lon="5.85621">
        <ele>610.40002441406</ele>
        <time>2013-12-14T09:18:48.000Z</time>
      </trkpt>
      <trkpt lat="45.20105" lon="5.85614">
        <ele>611.59997558594</ele>
        <time>2013-12-14T09:18:54.000Z</time>
      </trkpt>
      <trkpt lat="45.201" lon="5.85604">
        <ele>611.59997558594</ele>
        <time>2013-12-14T09:19:00.000Z</time>
      </trkpt>
      <trkpt lat="45.20097" lon="5.856">
        <ele>612.20001220703</ele>
        <time>2013-12-14T09:19:03.000Z</time>
      </trkpt>
      <trkpt lat="45.20093" lon="5.85588">
        <ele>611.59997558594</ele>
        <time>2013-12-14T09:19:10.000Z</time>
      </trkpt>
      <trkpt lat="45.2009" lon="5.85586">
        <ele>612</ele>
        <time>2013-12-14T09:19:12.000Z</time>
      </trkpt>
      <trkpt lat="45.20083" lon="5.85575">
        <ele>613.20001220703</ele>
        <time>2013-12-14T09:19:19.000Z</time>
      </trkpt>
      <trkpt lat="45.20076" lon="5.85567">
        <ele>611.59997558594</ele>
        <time>2013-12-14T09:19:24.000Z</time>
      </trkpt>
      <trkpt lat="45.20074" lon="5.85566">
        <ele>611.40002441406</ele>
        <time>2013-12-14T09:19:25.000Z</time>
      </trkpt>
      <trkpt lat="45.20061" lon="5.85557">
        <ele>610.40002441406</ele>
        <time>2013-12-14T09:19:32.000Z</time>
      </trkpt>
      <trkpt lat="45.2005" lon="5.85556">
        <ele>610.59997558594</ele>
        <time>2013-12-14T09:19:38.000Z</time>
      </trkpt>
      <trkpt lat="45.20046" lon="5.85558">
        <ele>611.40002441406</ele>
        <time>2013-12-14T09:19:41.000Z</time>
      </trkpt>
      <trkpt lat="45.2004" lon="5.85566">
        <ele>613.20001220703</ele>
        <time>2013-12-14T09:19:46.000Z</time>
      </trkpt>
      <trkpt lat="45.20036" lon="5.85572">
        <ele>614.59997558594</ele>
        <time>2013-12-14T09:19:50.000Z</time>
      </trkpt>
      <trkpt lat="45.20036" lon="5.85585">
        <ele>617.20001220703</ele>
        <time>2013-12-14T09:19:57.000Z</time>
      </trkpt>
      <trkpt lat="45.20036" lon="5.85587">
        <ele>617.59997558594</ele>
        <time>2013-12-14T09:19:58.000Z</time>
      </trkpt>
      <trkpt lat="45.20038" lon="5.85595">
        <ele>619.40002441406</ele>
        <time>2013-12-14T09:20:02.000Z</time>
      </trkpt>
      <trkpt lat="45.2004" lon="5.85607">
        <ele>622</ele>
        <time>2013-12-14T09:20:09.000Z</time>
      </trkpt>
      <trkpt lat="45.20042" lon="5.85616">
        <ele>624.20001220703</ele>
        <time>2013-12-14T09:20:15.000Z</time>
      </trkpt>
      <trkpt lat="45.20045" lon="5.85624">
        <ele>625.79998779297</ele>
        <time>2013-12-14T09:20:21.000Z</time>
      </trkpt>
      <trkpt lat="45.20048" lon="5.85633">
        <ele>627.59997558594</ele>
        <time>2013-12-14T09:20:27.000Z</time>
      </trkpt>
      <trkpt lat="45.2005" lon="5.85645">
        <ele>630.59997558594</ele>
        <time>2013-12-14T09:20:34.000Z</time>
      </trkpt>
      <trkpt lat="45.20051" lon="5.85654">
        <ele>632.40002441406</ele>
        <time>2013-12-14T09:20:40.000Z</time>
      </trkpt>
      <trkpt lat="45.20052" lon="5.85659">
        <ele>633.40002441406</ele>
        <time>2013-12-14T09:20:43.000Z</time>
      </trkpt>
      <trkpt lat="45.20058" lon="5.85668">
        <ele>635</ele>
        <time>2013-12-14T09:20:50.000Z</time>
      </trkpt>
      <trkpt lat="45.20059" lon="5.85672">
        <ele>635.59997558594</ele>
        <time>2013-12-14T09:20:52.000Z</time>
      </trkpt>
      <trkpt lat="45.20061" lon="5.85681">
        <ele>636.79998779297</ele>
        <time>2013-12-14T09:20:57.000Z</time>
      </trkpt>
      <trkpt lat="45.20064" lon="5.85696">
        <ele>638.40002441406</ele>
        <time>2013-12-14T09:21:05.000Z</time>
      </trkpt>
      <trkpt lat="45.20066" lon="5.85702">
        <ele>639</ele>
        <time>2013-12-14T09:21:08.000Z</time>
      </trkpt>
      <trkpt lat="45.20068" lon="5.85714">
        <ele>640.59997558594</ele>
        <time>2013-12-14T09:21:15.000Z</time>
      </trkpt>
      <trkpt lat="45.20067" lon="5.85723">
        <ele>641.79998779297</ele>
        <time>2013-12-14T09:21:20.000Z</time>
      </trkpt>
      <trkpt lat="45.20067" lon="5.85732">
        <ele>643</ele>
        <time>2013-12-14T09:21:24.000Z</time>
      </trkpt>
      <trkpt lat="45.20067" lon="5.85746">
        <ele>645</ele>
        <time>2013-12-14T09:21:31.000Z</time>
      </trkpt>
      <trkpt lat="45.20063" lon="5.85761">
        <ele>647</ele>
        <time>2013-12-14T09:21:39.000Z</time>
      </trkpt>
      <trkpt lat="45.20062" lon="5.8577">
        <ele>648</ele>
        <time>2013-12-14T09:21:44.000Z</time>
      </trkpt>
      <trkpt lat="45.20061" lon="5.85778">
        <ele>648.79998779297</ele>
        <time>2013-12-14T09:21:48.000Z</time>
      </trkpt>
      <trkpt lat="45.20058" lon="5.85787">
        <ele>650.20001220703</ele>
        <time>2013-12-14T09:21:54.000Z</time>
      </trkpt>
      <trkpt lat="45.20056" lon="5.85792">
        <ele>651.20001220703</ele>
        <time>2013-12-14T09:21:57.000Z</time>
      </trkpt>
      <trkpt lat="45.2005" lon="5.85798">
        <ele>653.59997558594</ele>
        <time>2013-12-14T09:22:03.000Z</time>
      </trkpt>
      <trkpt lat="45.20049" lon="5.85799">
        <ele>654</ele>
        <time>2013-12-14T09:22:04.000Z</time>
      </trkpt>
      <trkpt lat="45.20045" lon="5.85803">
        <ele>655.40002441406</ele>
        <time>2013-12-14T09:22:09.000Z</time>
      </trkpt>
      <trkpt lat="45.20042" lon="5.8581">
        <ele>657.40002441406</ele>
        <time>2013-12-14T09:22:15.000Z</time>
      </trkpt>
      <trkpt lat="45.20037" lon="5.85815">
        <ele>659.40002441406</ele>
        <time>2013-12-14T09:22:19.000Z</time>
      </trkpt>
      <trkpt lat="45.20031" lon="5.85822">
        <ele>662.59997558594</ele>
        <time>2013-12-14T09:22:26.000Z</time>
      </trkpt>
      <trkpt lat="45.20026" lon="5.85829">
        <ele>665.59997558594</ele>
        <time>2013-12-14T09:22:32.000Z</time>
      </trkpt>
      <trkpt lat="45.20025" lon="5.8583">
        <ele>665.79998779297</ele>
        <time>2013-12-14T09:22:33.000Z</time>
      </trkpt>
      <trkpt lat="45.20021" lon="5.85838">
        <ele>668.40002441406</ele>
        <time>2013-12-14T09:22:39.000Z</time>
      </trkpt>
      <trkpt lat="45.20016" lon="5.85843">
        <ele>671</ele>
        <time>2013-12-14T09:22:45.000Z</time>
      </trkpt>
      <trkpt lat="45.20009" lon="5.85845">
        <ele>674.20001220703</ele>
        <time>2013-12-14T09:22:52.000Z</time>
      </trkpt>
      <trkpt lat="45.20002" lon="5.85847">
        <ele>677</ele>
        <time>2013-12-14T09:22:58.000Z</time>
      </trkpt>
      <trkpt lat="45.19996" lon="5.85849">
        <ele>678.20001220703</ele>
        <time>2013-12-14T09:23:04.000Z</time>
      </trkpt>
      <trkpt lat="45.19986" lon="5.85849">
        <ele>677.79998779297</ele>
        <time>2013-12-14T09:23:11.000Z</time>
      </trkpt>
      <trkpt lat="45.19976" lon="5.85847">
        <ele>677.20001220703</ele>
        <time>2013-12-14T09:23:17.000Z</time>
      </trkpt>
      <trkpt lat="45.19967" lon="5.85848">
        <ele>677.20001220703</ele>
        <time>2013-12-14T09:23:22.000Z</time>
      </trkpt>
      <trkpt lat="45.19961" lon="5.85849">
        <ele>677</ele>
        <time>2013-12-14T09:23:26.000Z</time>
      </trkpt>
      <trkpt lat="45.19949" lon="5.85849">
        <ele>676.79998779297</ele>
        <time>2013-12-14T09:23:34.000Z</time>
      </trkpt>
      <trkpt lat="45.19943" lon="5.8585">
        <ele>676.79998779297</ele>
        <time>2013-12-14T09:23:38.000Z</time>
      </trkpt>
      <trkpt lat="45.1994" lon="5.85852">
        <ele>677</ele>
        <time>2013-12-14T09:23:40.000Z</time>
      </trkpt>
      <trkpt lat="45.19939" lon="5.85861">
        <ele>678.40002441406</ele>
        <time>2013-12-14T09:23:45.000Z</time>
      </trkpt>
      <trkpt lat="45.19941" lon="5.85869">
        <ele>680</ele>
        <time>2013-12-14T09:23:50.000Z</time>
      </trkpt>
      <trkpt lat="45.19943" lon="5.85875">
        <ele>681</ele>
        <time>2013-12-14T09:23:54.000Z</time>
      </trkpt>
      <trkpt lat="45.19944" lon="5.85878">
        <ele>681.59997558594</ele>
        <time>2013-12-14T09:23:57.000Z</time>
      </trkpt>
      <trkpt lat="45.19946" lon="5.85885">
        <ele>682.79998779297</ele>
        <time>2013-12-14T09:24:02.000Z</time>
      </trkpt>
      <trkpt lat="45.19948" lon="5.85896">
        <ele>684.59997558594</ele>
        <time>2013-12-14T09:24:10.000Z</time>
      </trkpt>
      <trkpt lat="45.19949" lon="5.85901">
        <ele>685.40002441406</ele>
        <time>2013-12-14T09:24:13.000Z</time>
      </trkpt>
      <trkpt lat="45.1995" lon="5.85907">
        <ele>686.40002441406</ele>
        <time>2013-12-14T09:24:18.000Z</time>
      </trkpt>
      <trkpt lat="45.19951" lon="5.85913">
        <ele>687.40002441406</ele>
        <time>2013-12-14T09:24:22.000Z</time>
      </trkpt>
      <trkpt lat="45.19952" lon="5.85921">
        <ele>688.59997558594</ele>
        <time>2013-12-14T09:24:28.000Z</time>
      </trkpt>
      <trkpt lat="45.19954" lon="5.85926">
        <ele>689.59997558594</ele>
        <time>2013-12-14T09:24:32.000Z</time>
      </trkpt>
      <trkpt lat="45.19958" lon="5.85935">
        <ele>691.20001220703</ele>
        <time>2013-12-14T09:24:38.000Z</time>
      </trkpt>
      <trkpt lat="45.1996" lon="5.8594">
        <ele>692</ele>
        <time>2013-12-14T09:24:41.000Z</time>
      </trkpt>
      <trkpt lat="45.19961" lon="5.85952">
        <ele>694</ele>
        <time>2013-12-14T09:24:47.000Z</time>
      </trkpt>
      <trkpt lat="45.19963" lon="5.85963">
        <ele>696</ele>
        <time>2013-12-14T09:24:52.000Z</time>
      </trkpt>
      <trkpt lat="45.19965" lon="5.85967">
        <ele>697</ele>
        <time>2013-12-14T09:24:54.000Z</time>
      </trkpt>
      <trkpt lat="45.19967" lon="5.85984">
        <ele>700.20001220703</ele>
        <time>2013-12-14T09:25:01.000Z</time>
      </trkpt>
      <trkpt lat="45.19968" lon="5.85996">
        <ele>702.79998779297</ele>
        <time>2013-12-14T09:25:06.000Z</time>
      </trkpt>
      <trkpt lat="45.1997" lon="5.86004">
        <ele>704.20001220703</ele>
        <time>2013-12-14T09:25:09.000Z</time>
      </trkpt>
      <trkpt lat="45.19974" lon="5.86015">
        <ele>706.40002441406</ele>
        <time>2013-12-14T09:25:14.000Z</time>
      </trkpt>
      <trkpt lat="45.19975" lon="5.8602">
        <ele>707.20001220703</ele>
        <time>2013-12-14T09:25:16.000Z</time>
      </trkpt>
      <trkpt lat="45.19977" lon="5.86028">
        <ele>708.59997558594</ele>
        <time>2013-12-14T09:25:20.000Z</time>
      </trkpt>
      <trkpt lat="45.19978" lon="5.86041">
        <ele>710.59997558594</ele>
        <time>2013-12-14T09:25:26.000Z</time>
      </trkpt>
      <trkpt lat="45.19979" lon="5.86052">
        <ele>712.40002441406</ele>
        <time>2013-12-14T09:25:31.000Z</time>
      </trkpt>
      <trkpt lat="45.19979" lon="5.86056">
        <ele>713</ele>
        <time>2013-12-14T09:25:33.000Z</time>
      </trkpt>
      <trkpt lat="45.19981" lon="5.86067">
        <ele>715.20001220703</ele>
        <time>2013-12-14T09:25:39.000Z</time>
      </trkpt>
      <trkpt lat="45.19982" lon="5.86069">
        <ele>715.59997558594</ele>
        <time>2013-12-14T09:25:40.000Z</time>
      </trkpt>
      <trkpt lat="45.19983" lon="5.86077">
        <ele>717</ele>
        <time>2013-12-14T09:25:44.000Z</time>
      </trkpt>
      <trkpt lat="45.19984" lon="5.86089">
        <ele>719</ele>
        <time>2013-12-14T09:25:51.000Z</time>
      </trkpt>
      <trkpt lat="45.19985" lon="5.86099">
        <ele>720.79998779297</ele>
        <time>2013-12-14T09:25:57.000Z</time>
      </trkpt>
      <trkpt lat="45.19985" lon="5.86103">
        <ele>721.40002441406</ele>
        <time>2013-12-14T09:25:59.000Z</time>
      </trkpt>
      <trkpt lat="45.19987" lon="5.86114">
        <ele>723.40002441406</ele>
        <time>2013-12-14T09:26:05.000Z</time>
      </trkpt>
      <trkpt lat="45.19988" lon="5.86124">
        <ele>725.20001220703</ele>
        <time>2013-12-14T09:26:11.000Z</time>
      </trkpt>
      <trkpt lat="45.1999" lon="5.86132">
        <ele>727</ele>
        <time>2013-12-14T09:26:17.000Z</time>
      </trkpt>
      <trkpt lat="45.1999" lon="5.86142">
        <ele>728.40002441406</ele>
        <time>2013-12-14T09:26:24.000Z</time>
      </trkpt>
      <trkpt lat="45.19989" lon="5.86146">
        <ele>728.79998779297</ele>
        <time>2013-12-14T09:26:27.000Z</time>
      </trkpt>
      <trkpt lat="45.19991" lon="5.86153">
        <ele>730.40002441406</ele>
        <time>2013-12-14T09:26:31.000Z</time>
      </trkpt>
      <trkpt lat="45.19991" lon="5.86158">
        <ele>731.20001220703</ele>
        <time>2013-12-14T09:26:35.000Z</time>
      </trkpt>
      <trkpt lat="45.1999" lon="5.86167">
        <ele>732.40002441406</ele>
        <time>2013-12-14T09:26:41.000Z</time>
      </trkpt>
      <trkpt lat="45.1999" lon="5.8617">
        <ele>732.79998779297</ele>
        <time>2013-12-14T09:26:43.000Z</time>
      </trkpt>
      <trkpt lat="45.19991" lon="5.8618">
        <ele>735.79998779297</ele>
        <time>2013-12-14T09:26:50.000Z</time>
      </trkpt>
      <trkpt lat="45.19991" lon="5.86181">
        <ele>736.20001220703</ele>
        <time>2013-12-14T09:26:51.000Z</time>
      </trkpt>
      <trkpt lat="45.19993" lon="5.8619">
        <ele>738.79998779297</ele>
        <time>2013-12-14T09:26:58.000Z</time>
      </trkpt>
      <trkpt lat="45.19994" lon="5.86193">
        <ele>740</ele>
        <time>2013-12-14T09:27:05.000Z</time>
      </trkpt>
      <trkpt lat="45.19995" lon="5.86198">
        <ele>741.79998779297</ele>
        <time>2013-12-14T09:27:09.000Z</time>
      </trkpt>
      <trkpt lat="45.19997" lon="5.86204">
        <ele>743.59997558594</ele>
        <time>2013-12-14T09:27:14.000Z</time>
      </trkpt>
      <trkpt lat="45.19997" lon="5.86211">
        <ele>745.79998779297</ele>
        <time>2013-12-14T09:27:20.000Z</time>
      </trkpt>
      <trkpt lat="45.19996" lon="5.8622">
        <ele>747.79998779297</ele>
        <time>2013-12-14T09:27:26.000Z</time>
      </trkpt>
      <trkpt lat="45.19999" lon="5.86226">
        <ele>750.20001220703</ele>
        <time>2013-12-14T09:27:31.000Z</time>
      </trkpt>
      <trkpt lat="45.2" lon="5.86228">
        <ele>751.20001220703</ele>
        <time>2013-12-14T09:27:33.000Z</time>
      </trkpt>
      <trkpt lat="45.20001" lon="5.86232">
        <ele>751.79998779297</ele>
        <time>2013-12-14T09:27:36.000Z</time>
      </trkpt>
      <trkpt lat="45.20001" lon="5.86235">
        <ele>752.79998779297</ele>
        <time>2013-12-14T09:27:38.000Z</time>
      </trkpt>
      <trkpt lat="45.2" lon="5.86244">
        <ele>755.20001220703</ele>
        <time>2013-12-14T09:27:44.000Z</time>
      </trkpt>
      <trkpt lat="45.19998" lon="5.86251">
        <ele>756.59997558594</ele>
        <time>2013-12-14T09:27:49.000Z</time>
      </trkpt>
      <trkpt lat="45.2" lon="5.86258">
        <ele>758.40002441406</ele>
        <time>2013-12-14T09:27:55.000Z</time>
      </trkpt>
      <trkpt lat="45.20001" lon="5.86264">
        <ele>759.40002441406</ele>
        <time>2013-12-14T09:28:00.000Z</time>
      </trkpt>
      <trkpt lat="45.20001" lon="5.86265">
        <ele>759.40002441406</ele>
        <time>2013-12-14T09:28:01.000Z</time>
      </trkpt>
      <trkpt lat="45.20004" lon="5.86273">
        <ele>760.20001220703</ele>
        <time>2013-12-14T09:28:08.000Z</time>
      </trkpt>
      <trkpt lat="45.20005" lon="5.86279">
        <ele>761</ele>
        <time>2013-12-14T09:28:13.000Z</time>
      </trkpt>
      <trkpt lat="45.20008" lon="5.86284">
        <ele>761.20001220703</ele>
        <time>2013-12-14T09:28:16.000Z</time>
      </trkpt>
      <trkpt lat="45.20011" lon="5.86288">
        <ele>761.20001220703</ele>
        <time>2013-12-14T09:28:19.000Z</time>
      </trkpt>
      <trkpt lat="45.2001" lon="5.86292">
        <ele>762</ele>
        <time>2013-12-14T09:28:23.000Z</time>
      </trkpt>
      <trkpt lat="45.20012" lon="5.863">
        <ele>763.59997558594</ele>
        <time>2013-12-14T09:28:31.000Z</time>
      </trkpt>
      <trkpt lat="45.20012" lon="5.86306">
        <ele>764.59997558594</ele>
        <time>2013-12-14T09:28:34.000Z</time>
      </trkpt>
      <trkpt lat="45.20015" lon="5.86315">
        <ele>766</ele>
        <time>2013-12-14T09:28:41.000Z</time>
      </trkpt>
      <trkpt lat="45.20019" lon="5.86325">
        <ele>767</ele>
        <time>2013-12-14T09:28:46.000Z</time>
      </trkpt>
      <trkpt lat="45.2002" lon="5.86327">
        <ele>767.20001220703</ele>
        <time>2013-12-14T09:28:47.000Z</time>
      </trkpt>
      <trkpt lat="45.20027" lon="5.8634">
        <ele>768.79998779297</ele>
        <time>2013-12-14T09:28:55.000Z</time>
      </trkpt>
      <trkpt lat="45.20031" lon="5.86348">
        <ele>769.79998779297</ele>
        <time>2013-12-14T09:28:59.000Z</time>
      </trkpt>
      <trkpt lat="45.20034" lon="5.86361">
        <ele>772.20001220703</ele>
        <time>2013-12-14T09:29:06.000Z</time>
      </trkpt>
      <trkpt lat="45.20034" lon="5.86363">
        <ele>772.59997558594</ele>
        <time>2013-12-14T09:29:07.000Z</time>
      </trkpt>
      <trkpt lat="45.20038" lon="5.86375">
        <ele>775</ele>
        <time>2013-12-14T09:29:13.000Z</time>
      </trkpt>
      <trkpt lat="45.2004" lon="5.86381">
        <ele>776.40002441406</ele>
        <time>2013-12-14T09:29:17.000Z</time>
      </trkpt>
      <trkpt lat="45.20046" lon="5.86394">
        <ele>779.20001220703</ele>
        <time>2013-12-14T09:29:25.000Z</time>
      </trkpt>
      <trkpt lat="45.20049" lon="5.864">
        <ele>780.79998779297</ele>
        <time>2013-12-14T09:29:29.000Z</time>
      </trkpt>
      <trkpt lat="45.2005" lon="5.86405">
        <ele>782</ele>
        <time>2013-12-14T09:29:32.000Z</time>
      </trkpt>
      <trkpt lat="45.20045" lon="5.86415">
        <ele>784.40002441406</ele>
        <time>2013-12-14T09:29:39.000Z</time>
      </trkpt>
      <trkpt lat="45.20044" lon="5.86417">
        <ele>784.59997558594</ele>
        <time>2013-12-14T09:29:41.000Z</time>
      </trkpt>
      <trkpt lat="45.20043" lon="5.8642">
        <ele>785.20001220703</ele>
        <time>2013-12-14T09:29:43.000Z</time>
      </trkpt>
      <trkpt lat="45.20046" lon="5.86432">
        <ele>787.40002441406</ele>
        <time>2013-12-14T09:29:51.000Z</time>
      </trkpt>
      <trkpt lat="45.20048" lon="5.86435">
        <ele>788</ele>
        <time>2013-12-14T09:29:53.000Z</time>
      </trkpt>
      <trkpt lat="45.20049" lon="5.86439">
        <ele>788.59997558594</ele>
        <time>2013-12-14T09:29:56.000Z</time>
      </trkpt>
      <trkpt lat="45.20052" lon="5.86445">
        <ele>789.79998779297</ele>
        <time>2013-12-14T09:30:01.000Z</time>
      </trkpt>
      <trkpt lat="45.20055" lon="5.86452">
        <ele>791.40002441406</ele>
        <time>2013-12-14T09:30:09.000Z</time>
      </trkpt>
      <trkpt lat="45.20054" lon="5.86456">
        <ele>792</ele>
        <time>2013-12-14T09:30:12.000Z</time>
      </trkpt>
      <trkpt lat="45.20056" lon="5.86463">
        <ele>793.40002441406</ele>
        <time>2013-12-14T09:30:19.000Z</time>
      </trkpt>
      <trkpt lat="45.20057" lon="5.86467">
        <ele>794.20001220703</ele>
        <time>2013-12-14T09:30:24.000Z</time>
      </trkpt>
      <trkpt lat="45.20059" lon="5.8647">
        <ele>794.79998779297</ele>
        <time>2013-12-14T09:30:27.000Z</time>
      </trkpt>
      <trkpt lat="45.20062" lon="5.86477">
        <ele>796.20001220703</ele>
        <time>2013-12-14T09:30:34.000Z</time>
      </trkpt>
      <trkpt lat="45.20064" lon="5.86484">
        <ele>797.59997558594</ele>
        <time>2013-12-14T09:30:39.000Z</time>
      </trkpt>
      <trkpt lat="45.20061" lon="5.86493">
        <ele>799</ele>
        <time>2013-12-14T09:30:45.000Z</time>
      </trkpt>
      <trkpt lat="45.20059" lon="5.86504">
        <ele>800</ele>
        <time>2013-12-14T09:30:51.000Z</time>
      </trkpt>
      <trkpt lat="45.20053" lon="5.86517">
        <ele>799.59997558594</ele>
        <time>2013-12-14T09:30:56.000Z</time>
      </trkpt>
      <trkpt lat="45.20047" lon="5.86522">
        <ele>799.40002441406</ele>
        <time>2013-12-14T09:31:00.000Z</time>
      </trkpt>
      <trkpt lat="45.20046" lon="5.86523">
        <ele>799.40002441406</ele>
        <time>2013-12-14T09:31:01.000Z</time>
      </trkpt>
      <trkpt lat="45.20048" lon="5.8653">
        <ele>799.59997558594</ele>
        <time>2013-12-14T09:31:06.000Z</time>
      </trkpt>
      <trkpt lat="45.20043" lon="5.86554">
        <ele>800.40002441406</ele>
        <time>2013-12-14T09:31:14.000Z</time>
      </trkpt>
      <trkpt lat="45.2004" lon="5.86569">
        <ele>801</ele>
        <time>2013-12-14T09:31:19.000Z</time>
      </trkpt>
      <trkpt lat="45.20039" lon="5.86581">
        <ele>801.79998779297</ele>
        <time>2013-12-14T09:31:24.000Z</time>
      </trkpt>
      <trkpt lat="45.20035" lon="5.86598">
        <ele>803.79998779297</ele>
        <time>2013-12-14T09:31:30.000Z</time>
      </trkpt>
      <trkpt lat="45.20028" lon="5.86613">
        <ele>806.79998779297</ele>
        <time>2013-12-14T09:31:36.000Z</time>
      </trkpt>
      <trkpt lat="45.20025" lon="5.86629">
        <ele>809.40002441406</ele>
        <time>2013-12-14T09:31:42.000Z</time>
      </trkpt>
      <trkpt lat="45.20021" lon="5.86638">
        <ele>811.79998779297</ele>
        <time>2013-12-14T09:31:47.000Z</time>
      </trkpt>
      <trkpt lat="45.20019" lon="5.86651">
        <ele>814</ele>
        <time>2013-12-14T09:31:53.000Z</time>
      </trkpt>
      <trkpt lat="45.20015" lon="5.86657">
        <ele>816.20001220703</ele>
        <time>2013-12-14T09:31:56.000Z</time>
      </trkpt>
      <trkpt lat="45.20012" lon="5.86665">
        <ele>818.59997558594</ele>
        <time>2013-12-14T09:32:00.000Z</time>
      </trkpt>
      <trkpt lat="45.20013" lon="5.86683">
        <ele>820.79998779297</ele>
        <time>2013-12-14T09:32:07.000Z</time>
      </trkpt>
      <trkpt lat="45.2001" lon="5.86695">
        <ele>823.59997558594</ele>
        <time>2013-12-14T09:32:12.000Z</time>
      </trkpt>
      <trkpt lat="45.20009" lon="5.86697">
        <ele>824.40002441406</ele>
        <time>2013-12-14T09:32:14.000Z</time>
      </trkpt>
      <trkpt lat="45.20005" lon="5.86705">
        <ele>827</ele>
        <time>2013-12-14T09:32:19.000Z</time>
      </trkpt>
      <trkpt lat="45.19999" lon="5.86709">
        <ele>829.79998779297</ele>
        <time>2013-12-14T09:32:24.000Z</time>
      </trkpt>
      <trkpt lat="45.19987" lon="5.86714">
        <ele>831.40002441406</ele>
        <time>2013-12-14T09:32:31.000Z</time>
      </trkpt>
      <trkpt lat="45.19979" lon="5.86717">
        <ele>832.59997558594</ele>
        <time>2013-12-14T09:33:01.000Z</time>
      </trkpt>
      <trkpt lat="45.19969" lon="5.86718">
        <ele>833.59997558594</ele>
        <time>2013-12-14T09:33:06.000Z</time>
      </trkpt>
      <trkpt lat="45.19958" lon="5.8672">
        <ele>834.79998779297</ele>
        <time>2013-12-14T09:33:11.000Z</time>
      </trkpt>
      <trkpt lat="45.19947" lon="5.86724">
        <ele>836.79998779297</ele>
        <time>2013-12-14T09:33:17.000Z</time>
      </trkpt>
      <trkpt lat="45.19934" lon="5.86727">
        <ele>838.59997558594</ele>
        <time>2013-12-14T09:33:23.000Z</time>
      </trkpt>
      <trkpt lat="45.19921" lon="5.86729">
        <ele>840.40002441406</ele>
        <time>2013-12-14T09:33:29.000Z</time>
      </trkpt>
      <trkpt lat="45.19908" lon="5.86731">
        <ele>841.59997558594</ele>
        <time>2013-12-14T09:33:35.000Z</time>
      </trkpt>
      <trkpt lat="45.19894" lon="5.86733">
        <ele>842.59997558594</ele>
        <time>2013-12-14T09:33:41.000Z</time>
      </trkpt>
      <trkpt lat="45.19878" lon="5.86732">
        <ele>842.79998779297</ele>
        <time>2013-12-14T09:33:48.000Z</time>
      </trkpt>
      <trkpt lat="45.19865" lon="5.86731">
        <ele>843</ele>
        <time>2013-12-14T09:33:54.000Z</time>
      </trkpt>
      <trkpt lat="45.1985" lon="5.86728">
        <ele>842.59997558594</ele>
        <time>2013-12-14T09:34:01.000Z</time>
      </trkpt>
      <trkpt lat="45.19837" lon="5.86724">
        <ele>842.40002441406</ele>
        <time>2013-12-14T09:34:07.000Z</time>
      </trkpt>
      <trkpt lat="45.19824" lon="5.86722">
        <ele>842.40002441406</ele>
        <time>2013-12-14T09:34:13.000Z</time>
      </trkpt>
      <trkpt lat="45.19809" lon="5.8672">
        <ele>842.59997558594</ele>
        <time>2013-12-14T09:34:20.000Z</time>
      </trkpt>
      <trkpt lat="45.19794" lon="5.86717">
        <ele>842.79998779297</ele>
        <time>2013-12-14T09:34:27.000Z</time>
      </trkpt>
      <trkpt lat="45.19782" lon="5.86715">
        <ele>843</ele>
        <time>2013-12-14T09:34:33.000Z</time>
      </trkpt>
      <trkpt lat="45.19769" lon="5.86714">
        <ele>843.40002441406</ele>
        <time>2013-12-14T09:34:39.000Z</time>
      </trkpt>
      <trkpt lat="45.19757" lon="5.86714">
        <ele>844</ele>
        <time>2013-12-14T09:34:45.000Z</time>
      </trkpt>
      <trkpt lat="45.19745" lon="5.86718">
        <ele>844.79998779297</ele>
        <time>2013-12-14T09:34:51.000Z</time>
      </trkpt>
      <trkpt lat="45.19733" lon="5.8673">
        <ele>846</ele>
        <time>2013-12-14T09:34:58.000Z</time>
      </trkpt>
      <trkpt lat="45.19726" lon="5.86745">
        <ele>848</ele>
        <time>2013-12-14T09:35:04.000Z</time>
      </trkpt>
      <trkpt lat="45.19723" lon="5.8676">
        <ele>850</ele>
        <time>2013-12-14T09:35:09.000Z</time>
      </trkpt>
      <trkpt lat="45.19723" lon="5.86782">
        <ele>852.79998779297</ele>
        <time>2013-12-14T09:35:16.000Z</time>
      </trkpt>
      <trkpt lat="45.19725" lon="5.86806">
        <ele>855.59997558594</ele>
        <time>2013-12-14T09:35:23.000Z</time>
      </trkpt>
      <trkpt lat="45.19721" lon="5.86829">
        <ele>858.40002441406</ele>
        <time>2013-12-14T09:35:30.000Z</time>
      </trkpt>
      <trkpt lat="45.19714" lon="5.86842">
        <ele>860.40002441406</ele>
        <time>2013-12-14T09:35:35.000Z</time>
      </trkpt>
      <trkpt lat="45.19703" lon="5.86853">
        <ele>862</ele>
        <time>2013-12-14T09:35:41.000Z</time>
      </trkpt>
      <trkpt lat="45.19689" lon="5.86858">
        <ele>862.59997558594</ele>
        <time>2013-12-14T09:35:47.000Z</time>
      </trkpt>
      <trkpt lat="45.19673" lon="5.86859">
        <ele>862.79998779297</ele>
        <time>2013-12-14T09:35:54.000Z</time>
      </trkpt>
      <trkpt lat="45.19656" lon="5.8686">
        <ele>863.20001220703</ele>
        <time>2013-12-14T09:36:01.000Z</time>
      </trkpt>
      <trkpt lat="45.19645" lon="5.86861">
        <ele>863.40002441406</ele>
        <time>2013-12-14T09:36:06.000Z</time>
      </trkpt>
      <trkpt lat="45.19629" lon="5.8686">
        <ele>863.79998779297</ele>
        <time>2013-12-14T09:36:13.000Z</time>
      </trkpt>
      <trkpt lat="45.19616" lon="5.8686">
        <ele>864</ele>
        <time>2013-12-14T09:36:19.000Z</time>
      </trkpt>
      <trkpt lat="45.19602" lon="5.86861">
        <ele>864.40002441406</ele>
        <time>2013-12-14T09:36:25.000Z</time>
      </trkpt>
      <trkpt lat="45.19585" lon="5.86861">
        <ele>865</ele>
        <time>2013-12-14T09:36:33.000Z</time>
      </trkpt>
      <trkpt lat="45.19569" lon="5.86863">
        <ele>863.59997558594</ele>
        <time>2013-12-14T09:36:40.000Z</time>
      </trkpt>
      <trkpt lat="45.19557" lon="5.86867">
        <ele>862.59997558594</ele>
        <time>2013-12-14T09:36:46.000Z</time>
      </trkpt>
      <trkpt lat="45.19547" lon="5.86877">
        <ele>862.20001220703</ele>
        <time>2013-12-14T09:36:52.000Z</time>
      </trkpt>
      <trkpt lat="45.19538" lon="5.86891">
        <ele>861.79998779297</ele>
        <time>2013-12-14T09:36:58.000Z</time>
      </trkpt>
      <trkpt lat="45.19533" lon="5.86909">
        <ele>862</ele>
        <time>2013-12-14T09:37:04.000Z</time>
      </trkpt>
      <trkpt lat="45.19532" lon="5.86931">
        <ele>862.79998779297</ele>
        <time>2013-12-14T09:37:11.000Z</time>
      </trkpt>
      <trkpt lat="45.19534" lon="5.86955">
        <ele>864.59997558594</ele>
        <time>2013-12-14T09:37:18.000Z</time>
      </trkpt>
      <trkpt lat="45.19539" lon="5.86983">
        <ele>867.40002441406</ele>
        <time>2013-12-14T09:37:26.000Z</time>
      </trkpt>
      <trkpt lat="45.19542" lon="5.87004">
        <ele>869.20001220703</ele>
        <time>2013-12-14T09:37:32.000Z</time>
      </trkpt>
      <trkpt lat="45.19548" lon="5.87024">
        <ele>870.20001220703</ele>
        <time>2013-12-14T09:37:38.000Z</time>
      </trkpt>
      <trkpt lat="45.19555" lon="5.8704">
        <ele>871.59997558594</ele>
        <time>2013-12-14T09:37:43.000Z</time>
      </trkpt>
      <trkpt lat="45.19566" lon="5.87062">
        <ele>873.40002441406</ele>
        <time>2013-12-14T09:37:50.000Z</time>
      </trkpt>
      <trkpt lat="45.19577" lon="5.87079">
        <ele>875.40002441406</ele>
        <time>2013-12-14T09:37:56.000Z</time>
      </trkpt>
      <trkpt lat="45.19592" lon="5.87099">
        <ele>875.40002441406</ele>
        <time>2013-12-14T09:38:03.000Z</time>
      </trkpt>
      <trkpt lat="45.19605" lon="5.87115">
        <ele>874.79998779297</ele>
        <time>2013-12-14T09:38:09.000Z</time>
      </trkpt>
      <trkpt lat="45.19616" lon="5.87129">
        <ele>874.59997558594</ele>
        <time>2013-12-14T09:38:14.000Z</time>
      </trkpt>
      <trkpt lat="45.19629" lon="5.87146">
        <ele>875</ele>
        <time>2013-12-14T09:38:20.000Z</time>
      </trkpt>
      <trkpt lat="45.19641" lon="5.87164">
        <ele>875.79998779297</ele>
        <time>2013-12-14T09:38:26.000Z</time>
      </trkpt>
      <trkpt lat="45.19653" lon="5.8718">
        <ele>876.59997558594</ele>
        <time>2013-12-14T09:38:32.000Z</time>
      </trkpt>
      <trkpt lat="45.19659" lon="5.87174">
        <ele>878.59997558594</ele>
        <time>2013-12-14T09:38:37.000Z</time>
      </trkpt>
      <trkpt lat="45.19665" lon="5.87162">
        <ele>881</ele>
        <time>2013-12-14T09:38:45.000Z</time>
      </trkpt>
      <trkpt lat="45.19672" lon="5.87151">
        <ele>882.20001220703</ele>
        <time>2013-12-14T09:38:51.000Z</time>
      </trkpt>
      <trkpt lat="45.19678" lon="5.8714">
        <ele>883.40002441406</ele>
        <time>2013-12-14T09:38:57.000Z</time>
      </trkpt>
      <trkpt lat="45.19684" lon="5.87127">
        <ele>884.40002441406</ele>
        <time>2013-12-14T09:39:03.000Z</time>
      </trkpt>
      <trkpt lat="45.19692" lon="5.87121">
        <ele>885.40002441406</ele>
        <time>2013-12-14T09:39:08.000Z</time>
      </trkpt>
      <trkpt lat="45.19704" lon="5.87116">
        <ele>886.59997558594</ele>
        <time>2013-12-14T09:39:14.000Z</time>
      </trkpt>
      <trkpt lat="45.19718" lon="5.87108">
        <ele>887.79998779297</ele>
        <time>2013-12-14T09:39:20.000Z</time>
      </trkpt>
      <trkpt lat="45.19726" lon="5.87104">
        <ele>888.40002441406</ele>
        <time>2013-12-14T09:39:24.000Z</time>
      </trkpt>
      <trkpt lat="45.19737" lon="5.87103">
        <ele>889.20001220703</ele>
        <time>2013-12-14T09:39:30.000Z</time>
      </trkpt>
      <trkpt lat="45.19748" lon="5.87103">
        <ele>890</ele>
        <time>2013-12-14T09:39:36.000Z</time>
      </trkpt>
      <trkpt lat="45.19757" lon="5.87104">
        <ele>891</ele>
        <time>2013-12-14T09:39:41.000Z</time>
      </trkpt>
      <trkpt lat="45.19774" lon="5.87098">
        <ele>892.79998779297</ele>
        <time>2013-12-14T09:39:47.000Z</time>
      </trkpt>
      <trkpt lat="45.19785" lon="5.87092">
        <ele>894</ele>
        <time>2013-12-14T09:39:52.000Z</time>
      </trkpt>
      <trkpt lat="45.19794" lon="5.87088">
        <ele>894.79998779297</ele>
        <time>2013-12-14T09:39:57.000Z</time>
      </trkpt>
      <trkpt lat="45.19806" lon="5.87082">
        <ele>895.79998779297</ele>
        <time>2013-12-14T09:40:03.000Z</time>
      </trkpt>
      <trkpt lat="45.19814" lon="5.87076">
        <ele>896</ele>
        <time>2013-12-14T09:40:07.000Z</time>
      </trkpt>
      <trkpt lat="45.19827" lon="5.87068">
        <ele>896.20001220703</ele>
        <time>2013-12-14T09:40:13.000Z</time>
      </trkpt>
      <trkpt lat="45.19843" lon="5.87068">
        <ele>895.59997558594</ele>
        <time>2013-12-14T09:40:19.000Z</time>
      </trkpt>
      <trkpt lat="45.19853" lon="5.87078">
        <ele>895.40002441406</ele>
        <time>2013-12-14T09:40:24.000Z</time>
      </trkpt>
      <trkpt lat="45.19857" lon="5.87087">
        <ele>895.59997558594</ele>
        <time>2013-12-14T09:40:27.000Z</time>
      </trkpt>
      <trkpt lat="45.19863" lon="5.87105">
        <ele>895.20001220703</ele>
        <time>2013-12-14T09:40:33.000Z</time>
      </trkpt>
      <trkpt lat="45.19862" lon="5.87125">
        <ele>896</ele>
        <time>2013-12-14T09:40:40.000Z</time>
      </trkpt>
      <trkpt lat="45.19857" lon="5.87139">
        <ele>897.20001220703</ele>
        <time>2013-12-14T09:40:45.000Z</time>
      </trkpt>
      <trkpt lat="45.19851" lon="5.87156">
        <ele>898.40002441406</ele>
        <time>2013-12-14T09:40:49.000Z</time>
      </trkpt>
      <trkpt lat="45.19848" lon="5.87175">
        <ele>899.79998779297</ele>
        <time>2013-12-14T09:40:54.000Z</time>
      </trkpt>
      <trkpt lat="45.19845" lon="5.87193">
        <ele>901.59997558594</ele>
        <time>2013-12-14T09:40:59.000Z</time>
      </trkpt>
      <trkpt lat="45.19845" lon="5.872">
        <ele>902.20001220703</ele>
        <time>2013-12-14T09:41:02.000Z</time>
      </trkpt>
      <trkpt lat="45.19845" lon="5.87211">
        <ele>903</ele>
        <time>2013-12-14T09:41:07.000Z</time>
      </trkpt>
      <trkpt lat="45.19844" lon="5.87225">
        <ele>904.20001220703</ele>
        <time>2013-12-14T09:41:15.000Z</time>
      </trkpt>
      <trkpt lat="45.19845" lon="5.87235">
        <ele>905</ele>
        <time>2013-12-14T09:41:21.000Z</time>
      </trkpt>
      <trkpt lat="45.19848" lon="5.87247">
        <ele>905.40002441406</ele>
        <time>2013-12-14T09:41:28.000Z</time>
      </trkpt>
      <trkpt lat="45.19848" lon="5.87248">
        <ele>905.59997558594</ele>
        <time>2013-12-14T09:41:29.000Z</time>
      </trkpt>
      <trkpt lat="45.19848" lon="5.87259">
        <ele>906.20001220703</ele>
        <time>2013-12-14T09:41:35.000Z</time>
      </trkpt>
      <trkpt lat="45.1985" lon="5.87266">
        <ele>906.20001220703</ele>
        <time>2013-12-14T09:41:39.000Z</time>
      </trkpt>
      <trkpt lat="45.19849" lon="5.87289">
        <ele>907.79998779297</ele>
        <time>2013-12-14T09:41:46.000Z</time>
      </trkpt>
      <trkpt lat="45.19848" lon="5.87293">
        <ele>908.20001220703</ele>
        <time>2013-12-14T09:41:47.000Z</time>
      </trkpt>
      <trkpt lat="45.19842" lon="5.87325">
        <ele>911.40002441406</ele>
        <time>2013-12-14T09:41:54.000Z</time>
      </trkpt>
      <trkpt lat="45.19838" lon="5.87349">
        <ele>913.40002441406</ele>
        <time>2013-12-14T09:42:00.000Z</time>
      </trkpt>
      <trkpt lat="45.19832" lon="5.87374">
        <ele>915.20001220703</ele>
        <time>2013-12-14T09:42:06.000Z</time>
      </trkpt>
      <trkpt lat="45.19828" lon="5.87391">
        <ele>914.79998779297</ele>
        <time>2013-12-14T09:42:11.000Z</time>
      </trkpt>
      <trkpt lat="45.19823" lon="5.87411">
        <ele>914.20001220703</ele>
        <time>2013-12-14T09:42:16.000Z</time>
      </trkpt>
      <trkpt lat="45.19818" lon="5.87432">
        <ele>913.20001220703</ele>
        <time>2013-12-14T09:42:21.000Z</time>
      </trkpt>
      <trkpt lat="45.19809" lon="5.87458">
        <ele>911.59997558594</ele>
        <time>2013-12-14T09:42:27.000Z</time>
      </trkpt>
      <trkpt lat="45.19803" lon="5.87473">
        <ele>910.79998779297</ele>
        <time>2013-12-14T09:42:32.000Z</time>
      </trkpt>
      <trkpt lat="45.19798" lon="5.87486">
        <ele>910.40002441406</ele>
        <time>2013-12-14T09:42:39.000Z</time>
      </trkpt>
      <trkpt lat="45.19797" lon="5.87502">
        <ele>910.79998779297</ele>
        <time>2013-12-14T09:42:46.000Z</time>
      </trkpt>
      <trkpt lat="45.19796" lon="5.87513">
        <ele>912.20001220703</ele>
        <time>2013-12-14T09:42:52.000Z</time>
      </trkpt>
      <trkpt lat="45.19796" lon="5.87519">
        <ele>912.79998779297</ele>
        <time>2013-12-14T09:42:55.000Z</time>
      </trkpt>
      <trkpt lat="45.19796" lon="5.8753">
        <ele>914.20001220703</ele>
        <time>2013-12-14T09:43:01.000Z</time>
      </trkpt>
      <trkpt lat="45.19796" lon="5.87541">
        <ele>915.59997558594</ele>
        <time>2013-12-14T09:43:07.000Z</time>
      </trkpt>
      <trkpt lat="45.19795" lon="5.87543">
        <ele>915.59997558594</ele>
        <time>2013-12-14T09:43:08.000Z</time>
      </trkpt>
      <trkpt lat="45.19795" lon="5.87548">
        <ele>916.20001220703</ele>
        <time>2013-12-14T09:43:12.000Z</time>
      </trkpt>
      <trkpt lat="45.19796" lon="5.87561">
        <ele>918</ele>
        <time>2013-12-14T09:43:19.000Z</time>
      </trkpt>
      <trkpt lat="45.19796" lon="5.87573">
        <ele>919.40002441406</ele>
        <time>2013-12-14T09:43:25.000Z</time>
      </trkpt>
      <trkpt lat="45.19795" lon="5.87586">
        <ele>921</ele>
        <time>2013-12-14T09:43:33.000Z</time>
      </trkpt>
      <trkpt lat="45.19795" lon="5.87593">
        <ele>922</ele>
        <time>2013-12-14T09:43:38.000Z</time>
      </trkpt>
      <trkpt lat="45.19794" lon="5.876">
        <ele>922.79998779297</ele>
        <time>2013-12-14T09:43:42.000Z</time>
      </trkpt>
      <trkpt lat="45.19794" lon="5.87614">
        <ele>924.59997558594</ele>
        <time>2013-12-14T09:43:48.000Z</time>
      </trkpt>
      <trkpt lat="45.19792" lon="5.87628">
        <ele>926.40002441406</ele>
        <time>2013-12-14T09:43:53.000Z</time>
      </trkpt>
      <trkpt lat="45.1979" lon="5.87643">
        <ele>928.40002441406</ele>
        <time>2013-12-14T09:43:58.000Z</time>
      </trkpt>
      <trkpt lat="45.19787" lon="5.87654">
        <ele>929.79998779297</ele>
        <time>2013-12-14T09:44:03.000Z</time>
      </trkpt>
      <trkpt lat="45.19787" lon="5.87668">
        <ele>931.79998779297</ele>
        <time>2013-12-14T09:44:08.000Z</time>
      </trkpt>
      <trkpt lat="45.19785" lon="5.87679">
        <ele>933</ele>
        <time>2013-12-14T09:44:14.000Z</time>
      </trkpt>
      <trkpt lat="45.19783" lon="5.87694">
        <ele>934.59997558594</ele>
        <time>2013-12-14T09:44:20.000Z</time>
      </trkpt>
      <trkpt lat="45.19781" lon="5.87708">
        <ele>936.20001220703</ele>
        <time>2013-12-14T09:44:25.000Z</time>
      </trkpt>
      <trkpt lat="45.19777" lon="5.87722">
        <ele>937.79998779297</ele>
        <time>2013-12-14T09:44:31.000Z</time>
      </trkpt>
      <trkpt lat="45.19773" lon="5.87731">
        <ele>939</ele>
        <time>2013-12-14T09:44:37.000Z</time>
      </trkpt>
      <trkpt lat="45.19772" lon="5.87734">
        <ele>939.40002441406</ele>
        <time>2013-12-14T09:44:39.000Z</time>
      </trkpt>
      <trkpt lat="45.19767" lon="5.8774">
        <ele>940.40002441406</ele>
        <time>2013-12-14T09:44:44.000Z</time>
      </trkpt>
      <trkpt lat="45.19762" lon="5.87749">
        <ele>942</ele>
        <time>2013-12-14T09:44:51.000Z</time>
      </trkpt>
      <trkpt lat="45.19756" lon="5.87758">
        <ele>943.40002441406</ele>
        <time>2013-12-14T09:44:58.000Z</time>
      </trkpt>
      <trkpt lat="45.19755" lon="5.8776">
        <ele>943.59997558594</ele>
        <time>2013-12-14T09:44:59.000Z</time>
      </trkpt>
      <trkpt lat="45.19753" lon="5.87767">
        <ele>944.59997558594</ele>
        <time>2013-12-14T09:45:03.000Z</time>
      </trkpt>
      <trkpt lat="45.1975" lon="5.87776">
        <ele>945.79998779297</ele>
        <time>2013-12-14T09:45:06.000Z</time>
      </trkpt>
      <trkpt lat="45.1975" lon="5.87789">
        <ele>947.20001220703</ele>
        <time>2013-12-14T09:45:10.000Z</time>
      </trkpt>
      <trkpt lat="45.19752" lon="5.87811">
        <ele>949.20001220703</ele>
        <time>2013-12-14T09:45:16.000Z</time>
      </trkpt>
      <trkpt lat="45.19753" lon="5.87818">
        <ele>949.79998779297</ele>
        <time>2013-12-14T09:45:18.000Z</time>
      </trkpt>
      <trkpt lat="45.19752" lon="5.87829">
        <ele>951.20001220703</ele>
        <time>2013-12-14T09:45:23.000Z</time>
      </trkpt>
      <trkpt lat="45.19752" lon="5.87844">
        <ele>952.79998779297</ele>
        <time>2013-12-14T09:45:29.000Z</time>
      </trkpt>
      <trkpt lat="45.19753" lon="5.87855">
        <ele>953.59997558594</ele>
        <time>2013-12-14T09:45:34.000Z</time>
      </trkpt>
      <trkpt lat="45.19757" lon="5.8787">
        <ele>954.40002441406</ele>
        <time>2013-12-14T09:45:40.000Z</time>
      </trkpt>
      <trkpt lat="45.19759" lon="5.87881">
        <ele>955.20001220703</ele>
        <time>2013-12-14T09:45:45.000Z</time>
      </trkpt>
      <trkpt lat="45.19759" lon="5.87894">
        <ele>956.40002441406</ele>
        <time>2013-12-14T09:45:51.000Z</time>
      </trkpt>
      <trkpt lat="45.19757" lon="5.87905">
        <ele>957.79998779297</ele>
        <time>2013-12-14T09:45:56.000Z</time>
      </trkpt>
      <trkpt lat="45.19757" lon="5.87906">
        <ele>958.20001220703</ele>
        <time>2013-12-14T09:45:57.000Z</time>
      </trkpt>
      <trkpt lat="45.19755" lon="5.87922">
        <ele>959.79998779297</ele>
        <time>2013-12-14T09:46:03.000Z</time>
      </trkpt>
      <trkpt lat="45.19756" lon="5.87939">
        <ele>960</ele>
        <time>2013-12-14T09:46:09.000Z</time>
      </trkpt>
      <trkpt lat="45.19759" lon="5.87958">
        <ele>959.79998779297</ele>
        <time>2013-12-14T09:46:15.000Z</time>
      </trkpt>
      <trkpt lat="45.19761" lon="5.87975">
        <ele>959.59997558594</ele>
        <time>2013-12-14T09:46:20.000Z</time>
      </trkpt>
      <trkpt lat="45.19761" lon="5.87991">
        <ele>960.20001220703</ele>
        <time>2013-12-14T09:46:24.000Z</time>
      </trkpt>
      <trkpt lat="45.19759" lon="5.8801">
        <ele>960.40002441406</ele>
        <time>2013-12-14T09:46:29.000Z</time>
      </trkpt>
      <trkpt lat="45.19756" lon="5.88029">
        <ele>960.59997558594</ele>
        <time>2013-12-14T09:46:34.000Z</time>
      </trkpt>
      <trkpt lat="45.19755" lon="5.88051">
        <ele>959.79998779297</ele>
        <time>2013-12-14T09:46:40.000Z</time>
      </trkpt>
      <trkpt lat="45.19755" lon="5.88066">
        <ele>959.20001220703</ele>
        <time>2013-12-14T09:46:45.000Z</time>
      </trkpt>
      <trkpt lat="45.19755" lon="5.88081">
        <ele>958.20001220703</ele>
        <time>2013-12-14T09:46:50.000Z</time>
      </trkpt>
      <trkpt lat="45.19758" lon="5.88097">
        <ele>956.20001220703</ele>
        <time>2013-12-14T09:46:54.000Z</time>
      </trkpt>
      <trkpt lat="45.19761" lon="5.88123">
        <ele>953.40002441406</ele>
        <time>2013-12-14T09:46:59.000Z</time>
      </trkpt>
      <trkpt lat="45.19762" lon="5.88148">
        <ele>951.40002441406</ele>
        <time>2013-12-14T09:47:04.000Z</time>
      </trkpt>
      <trkpt lat="45.19758" lon="5.88169">
        <ele>950.79998779297</ele>
        <time>2013-12-14T09:47:09.000Z</time>
      </trkpt>
      <trkpt lat="45.19752" lon="5.88189">
        <ele>950.20001220703</ele>
        <time>2013-12-14T09:47:13.000Z</time>
      </trkpt>
      <trkpt lat="45.19746" lon="5.88208">
        <ele>948</ele>
        <time>2013-12-14T09:47:17.000Z</time>
      </trkpt>
      <trkpt lat="45.19739" lon="5.88235">
        <ele>944.20001220703</ele>
        <time>2013-12-14T09:47:22.000Z</time>
      </trkpt>
      <trkpt lat="45.19734" lon="5.8826">
        <ele>941</ele>
        <time>2013-12-14T09:47:27.000Z</time>
      </trkpt>
      <trkpt lat="45.19728" lon="5.88284">
        <ele>937.59997558594</ele>
        <time>2013-12-14T09:47:32.000Z</time>
      </trkpt>
      <trkpt lat="45.19722" lon="5.8831">
        <ele>934.59997558594</ele>
        <time>2013-12-14T09:47:37.000Z</time>
      </trkpt>
      <trkpt lat="45.19716" lon="5.88338">
        <ele>932</ele>
        <time>2013-12-14T09:47:43.000Z</time>
      </trkpt>
      <trkpt lat="45.19709" lon="5.88363">
        <ele>931.20001220703</ele>
        <time>2013-12-14T09:47:49.000Z</time>
      </trkpt>
      <trkpt lat="45.197" lon="5.88386">
        <ele>930.59997558594</ele>
        <time>2013-12-14T09:47:55.000Z</time>
      </trkpt>
      <trkpt lat="45.1969" lon="5.884">
        <ele>930</ele>
        <time>2013-12-14T09:48:00.000Z</time>
      </trkpt>
      <trkpt lat="45.19679" lon="5.88412">
        <ele>929.40002441406</ele>
        <time>2013-12-14T09:48:05.000Z</time>
      </trkpt>
      <trkpt lat="45.19679" lon="5.88415">
        <ele>929.40002441406</ele>
        <time>2013-12-14T09:48:06.000Z</time>
      </trkpt>
      <trkpt lat="45.19687" lon="5.88427">
        <ele>928.79998779297</ele>
        <time>2013-12-14T09:48:11.000Z</time>
      </trkpt>
      <trkpt lat="45.19696" lon="5.88443">
        <ele>928</ele>
        <time>2013-12-14T09:48:15.000Z</time>
      </trkpt>
      <trkpt lat="45.19697" lon="5.88459">
        <ele>927</ele>
        <time>2013-12-14T09:48:19.000Z</time>
      </trkpt>
      <trkpt lat="45.19696" lon="5.88493">
        <ele>924.79998779297</ele>
        <time>2013-12-14T09:48:26.000Z</time>
      </trkpt>
      <trkpt lat="45.19695" lon="5.88517">
        <ele>923.59997558594</ele>
        <time>2013-12-14T09:48:31.000Z</time>
      </trkpt>
      <trkpt lat="45.19692" lon="5.88544">
        <ele>922.59997558594</ele>
        <time>2013-12-14T09:48:37.000Z</time>
      </trkpt>
      <trkpt lat="45.19687" lon="5.88565">
        <ele>921.59997558594</ele>
        <time>2013-12-14T09:48:43.000Z</time>
      </trkpt>
      <trkpt lat="45.19686" lon="5.88566">
        <ele>921.59997558594</ele>
        <time>2013-12-14T09:48:48.000Z</time>
      </trkpt>
      <trkpt lat="45.19685" lon="5.88568">
        <ele>921.59997558594</ele>
        <time>2013-12-14T09:48:54.000Z</time>
      </trkpt>
      <trkpt lat="45.19668" lon="5.88571">
        <ele>921.40002441406</ele>
        <time>2013-12-14T09:49:01.000Z</time>
      </trkpt>
      <trkpt lat="45.19651" lon="5.8857">
        <ele>920.20001220703</ele>
        <time>2013-12-14T09:49:07.000Z</time>
      </trkpt>
      <trkpt lat="45.19633" lon="5.88572">
        <ele>919</ele>
        <time>2013-12-14T09:49:13.000Z</time>
      </trkpt>
      <trkpt lat="45.1962" lon="5.88574">
        <ele>918.20001220703</ele>
        <time>2013-12-14T09:49:17.000Z</time>
      </trkpt>
      <trkpt lat="45.19605" lon="5.88581">
        <ele>917.20001220703</ele>
        <time>2013-12-14T09:49:22.000Z</time>
      </trkpt>
      <trkpt lat="45.19595" lon="5.88586">
        <ele>917</ele>
        <time>2013-12-14T09:49:27.000Z</time>
      </trkpt>
      <trkpt lat="45.19581" lon="5.88595">
        <ele>916.79998779297</ele>
        <time>2013-12-14T09:49:32.000Z</time>
      </trkpt>
      <trkpt lat="45.1956" lon="5.88609">
        <ele>914.40002441406</ele>
        <time>2013-12-14T09:49:39.000Z</time>
      </trkpt>
      <trkpt lat="45.19543" lon="5.88626">
        <ele>913.59997558594</ele>
        <time>2013-12-14T09:49:45.000Z</time>
      </trkpt>
      <trkpt lat="45.19529" lon="5.88646">
        <ele>914.20001220703</ele>
        <time>2013-12-14T09:49:51.000Z</time>
      </trkpt>
      <trkpt lat="45.19513" lon="5.88665">
        <ele>914.59997558594</ele>
        <time>2013-12-14T09:49:57.000Z</time>
      </trkpt>
      <trkpt lat="45.19498" lon="5.88673">
        <ele>914</ele>
        <time>2013-12-14T09:50:02.000Z</time>
      </trkpt>
      <trkpt lat="45.19489" lon="5.88663">
        <ele>911.20001220703</ele>
        <time>2013-12-14T09:50:06.000Z</time>
      </trkpt>
      <trkpt lat="45.1949" lon="5.88644">
        <ele>908.20001220703</ele>
        <time>2013-12-14T09:50:10.000Z</time>
      </trkpt>
      <trkpt lat="45.195" lon="5.8862">
        <ele>905.40002441406</ele>
        <time>2013-12-14T09:50:16.000Z</time>
      </trkpt>
      <trkpt lat="45.19515" lon="5.88594">
        <ele>903.59997558594</ele>
        <time>2013-12-14T09:50:23.000Z</time>
      </trkpt>
      <trkpt lat="45.19521" lon="5.88568">
        <ele>902.79998779297</ele>
        <time>2013-12-14T09:50:29.000Z</time>
      </trkpt>
      <trkpt lat="45.1952" lon="5.8854">
        <ele>901.40002441406</ele>
        <time>2013-12-14T09:50:35.000Z</time>
      </trkpt>
      <trkpt lat="45.19515" lon="5.88512">
        <ele>899.40002441406</ele>
        <time>2013-12-14T09:50:41.000Z</time>
      </trkpt>
      <trkpt lat="45.19507" lon="5.8849">
        <ele>897.59997558594</ele>
        <time>2013-12-14T09:50:47.000Z</time>
      </trkpt>
      <trkpt lat="45.19504" lon="5.88493">
        <ele>897</ele>
        <time>2013-12-14T09:50:51.000Z</time>
      </trkpt>
      <trkpt lat="45.19503" lon="5.88495">
        <ele>896.59997558594</ele>
        <time>2013-12-14T09:50:53.000Z</time>
      </trkpt>
      <trkpt lat="45.19495" lon="5.88491">
        <ele>895.20001220703</ele>
        <time>2013-12-14T09:50:58.000Z</time>
      </trkpt>
      <trkpt lat="45.1948" lon="5.8848">
        <ele>892.40002441406</ele>
        <time>2013-12-14T09:51:03.000Z</time>
      </trkpt>
      <trkpt lat="45.19466" lon="5.88468">
        <ele>889.79998779297</ele>
        <time>2013-12-14T09:51:08.000Z</time>
      </trkpt>
      <trkpt lat="45.19451" lon="5.88449">
        <ele>886.40002441406</ele>
        <time>2013-12-14T09:51:14.000Z</time>
      </trkpt>
      <trkpt lat="45.19442" lon="5.88429">
        <ele>884.20001220703</ele>
        <time>2013-12-14T09:51:19.000Z</time>
      </trkpt>
      <trkpt lat="45.19434" lon="5.88407">
        <ele>882.40002441406</ele>
        <time>2013-12-14T09:51:24.000Z</time>
      </trkpt>
      <trkpt lat="45.19428" lon="5.88391">
        <ele>881.40002441406</ele>
        <time>2013-12-14T09:51:28.000Z</time>
      </trkpt>
      <trkpt lat="45.19419" lon="5.8837">
        <ele>879.59997558594</ele>
        <time>2013-12-14T09:51:34.000Z</time>
      </trkpt>
      <trkpt lat="45.19407" lon="5.88361">
        <ele>877</ele>
        <time>2013-12-14T09:51:39.000Z</time>
      </trkpt>
      <trkpt lat="45.194" lon="5.88364">
        <ele>875.40002441406</ele>
        <time>2013-12-14T09:51:42.000Z</time>
      </trkpt>
      <trkpt lat="45.19393" lon="5.88364">
        <ele>873.59997558594</ele>
        <time>2013-12-14T09:51:47.000Z</time>
      </trkpt>
      <trkpt lat="45.19385" lon="5.88355">
        <ele>871.79998779297</ele>
        <time>2013-12-14T09:51:51.000Z</time>
      </trkpt>
      <trkpt lat="45.19382" lon="5.88334">
        <ele>870.79998779297</ele>
        <time>2013-12-14T09:51:56.000Z</time>
      </trkpt>
      <trkpt lat="45.19373" lon="5.88312">
        <ele>868.20001220703</ele>
        <time>2013-12-14T09:52:02.000Z</time>
      </trkpt>
      <trkpt lat="45.19359" lon="5.883">
        <ele>864</ele>
        <time>2013-12-14T09:52:08.000Z</time>
      </trkpt>
      <trkpt lat="45.19347" lon="5.8829">
        <ele>860.79998779297</ele>
        <time>2013-12-14T09:52:13.000Z</time>
      </trkpt>
      <trkpt lat="45.1934" lon="5.8828">
        <ele>858.59997558594</ele>
        <time>2013-12-14T09:52:18.000Z</time>
      </trkpt>
      <trkpt lat="45.19331" lon="5.88267">
        <ele>855.59997558594</ele>
        <time>2013-12-14T09:52:23.000Z</time>
      </trkpt>
      <trkpt lat="45.19324" lon="5.88251">
        <ele>853.40002441406</ele>
        <time>2013-12-14T09:52:28.000Z</time>
      </trkpt>
      <trkpt lat="45.19322" lon="5.88232">
        <ele>852.59997558594</ele>
        <time>2013-12-14T09:52:33.000Z</time>
      </trkpt>
      <trkpt lat="45.19322" lon="5.88227">
        <ele>852.40002441406</ele>
        <time>2013-12-14T09:52:35.000Z</time>
      </trkpt>
      <trkpt lat="45.19315" lon="5.88213">
        <ele>850</ele>
        <time>2013-12-14T09:52:40.000Z</time>
      </trkpt>
      <trkpt lat="45.19304" lon="5.88199">
        <ele>846.59997558594</ele>
        <time>2013-12-14T09:52:45.000Z</time>
      </trkpt>
      <trkpt lat="45.1929" lon="5.88186">
        <ele>842</ele>
        <time>2013-12-14T09:52:51.000Z</time>
      </trkpt>
      <trkpt lat="45.19278" lon="5.88162">
        <ele>837.79998779297</ele>
        <time>2013-12-14T09:52:56.000Z</time>
      </trkpt>
      <trkpt lat="45.19268" lon="5.88137">
        <ele>835.40002441406</ele>
        <time>2013-12-14T09:53:02.000Z</time>
      </trkpt>
      <trkpt lat="45.19257" lon="5.88121">
        <ele>832.59997558594</ele>
        <time>2013-12-14T09:53:07.000Z</time>
      </trkpt>
      <trkpt lat="45.19244" lon="5.88113">
        <ele>830</ele>
        <time>2013-12-14T09:53:11.000Z</time>
      </trkpt>
      <trkpt lat="45.19229" lon="5.88107">
        <ele>827.79998779297</ele>
        <time>2013-12-14T09:53:16.000Z</time>
      </trkpt>
      <trkpt lat="45.1921" lon="5.88099">
        <ele>825</ele>
        <time>2013-12-14T09:53:22.000Z</time>
      </trkpt>
      <trkpt lat="45.19197" lon="5.88093">
        <ele>823</ele>
        <time>2013-12-14T09:53:26.000Z</time>
      </trkpt>
      <trkpt lat="45.19184" lon="5.88083">
        <ele>821</ele>
        <time>2013-12-14T09:53:31.000Z</time>
      </trkpt>
      <trkpt lat="45.19168" lon="5.88084">
        <ele>818.20001220703</ele>
        <time>2013-12-14T09:53:36.000Z</time>
      </trkpt>
      <trkpt lat="45.19153" lon="5.88088">
        <ele>815.40002441406</ele>
        <time>2013-12-14T09:53:40.000Z</time>
      </trkpt>
      <trkpt lat="45.19139" lon="5.8809">
        <ele>812.59997558594</ele>
        <time>2013-12-14T09:53:44.000Z</time>
      </trkpt>
      <trkpt lat="45.19129" lon="5.88088">
        <ele>810.59997558594</ele>
        <time>2013-12-14T09:53:47.000Z</time>
      </trkpt>
      <trkpt lat="45.19125" lon="5.88074">
        <ele>810</ele>
        <time>2013-12-14T09:53:51.000Z</time>
      </trkpt>
      <trkpt lat="45.19125" lon="5.8807">
        <ele>810</ele>
        <time>2013-12-14T09:53:52.000Z</time>
      </trkpt>
      <trkpt lat="45.19122" lon="5.88043">
        <ele>809.20001220703</ele>
        <time>2013-12-14T09:53:58.000Z</time>
      </trkpt>
      <trkpt lat="45.19117" lon="5.8802">
        <ele>807.59997558594</ele>
        <time>2013-12-14T09:54:03.000Z</time>
      </trkpt>
      <trkpt lat="45.19104" lon="5.87995">
        <ele>803.59997558594</ele>
        <time>2013-12-14T09:54:09.000Z</time>
      </trkpt>
      <trkpt lat="45.19094" lon="5.87973">
        <ele>800.59997558594</ele>
        <time>2013-12-14T09:54:14.000Z</time>
      </trkpt>
      <trkpt lat="45.19084" lon="5.87952">
        <ele>797.20001220703</ele>
        <time>2013-12-14T09:54:19.000Z</time>
      </trkpt>
      <trkpt lat="45.19078" lon="5.87928">
        <ele>796</ele>
        <time>2013-12-14T09:54:24.000Z</time>
      </trkpt>
      <trkpt lat="45.19071" lon="5.87908">
        <ele>795.20001220703</ele>
        <time>2013-12-14T09:54:29.000Z</time>
      </trkpt>
      <trkpt lat="45.19056" lon="5.87897">
        <ele>792.59997558594</ele>
        <time>2013-12-14T09:54:34.000Z</time>
      </trkpt>
      <trkpt lat="45.19038" lon="5.87894">
        <ele>789.20001220703</ele>
        <time>2013-12-14T09:54:39.000Z</time>
      </trkpt>
      <trkpt lat="45.19016" lon="5.87894">
        <ele>784.40002441406</ele>
        <time>2013-12-14T09:54:46.000Z</time>
      </trkpt>
      <trkpt lat="45.19" lon="5.87891">
        <ele>781</ele>
        <time>2013-12-14T09:54:51.000Z</time>
      </trkpt>
      <trkpt lat="45.18995" lon="5.87886">
        <ele>780.40002441406</ele>
        <time>2013-12-14T09:54:53.000Z</time>
      </trkpt>
      <trkpt lat="45.1899" lon="5.87868">
        <ele>779.59997558594</ele>
        <time>2013-12-14T09:54:57.000Z</time>
      </trkpt>
      <trkpt lat="45.1898" lon="5.8783">
        <ele>777.40002441406</ele>
        <time>2013-12-14T09:55:05.000Z</time>
      </trkpt>
      <trkpt lat="45.18967" lon="5.878">
        <ele>773.59997558594</ele>
        <time>2013-12-14T09:55:12.000Z</time>
      </trkpt>
      <trkpt lat="45.18965" lon="5.8778">
        <ele>772.20001220703</ele>
        <time>2013-12-14T09:55:16.000Z</time>
      </trkpt>
      <trkpt lat="45.1896" lon="5.8776">
        <ele>770</ele>
        <time>2013-12-14T09:55:21.000Z</time>
      </trkpt>
      <trkpt lat="45.1896" lon="5.87742">
        <ele>768.59997558594</ele>
        <time>2013-12-14T09:55:25.000Z</time>
      </trkpt>
      <trkpt lat="45.18959" lon="5.8771">
        <ele>765</ele>
        <time>2013-12-14T09:55:32.000Z</time>
      </trkpt>
      <trkpt lat="45.18955" lon="5.87682">
        <ele>761</ele>
        <time>2013-12-14T09:55:38.000Z</time>
      </trkpt>
      <trkpt lat="45.18947" lon="5.87658">
        <ele>756.79998779297</ele>
        <time>2013-12-14T09:55:44.000Z</time>
      </trkpt>
      <trkpt lat="45.18939" lon="5.87632">
        <ele>754</ele>
        <time>2013-12-14T09:55:50.000Z</time>
      </trkpt>
      <trkpt lat="45.18931" lon="5.87605">
        <ele>750.40002441406</ele>
        <time>2013-12-14T09:55:56.000Z</time>
      </trkpt>
      <trkpt lat="45.18923" lon="5.87577">
        <ele>746.40002441406</ele>
        <time>2013-12-14T09:56:02.000Z</time>
      </trkpt>
      <trkpt lat="45.18917" lon="5.87554">
        <ele>743.59997558594</ele>
        <time>2013-12-14T09:56:07.000Z</time>
      </trkpt>
      <trkpt lat="45.18912" lon="5.87535">
        <ele>741.59997558594</ele>
        <time>2013-12-14T09:56:11.000Z</time>
      </trkpt>
      <trkpt lat="45.18902" lon="5.87509">
        <ele>738.20001220703</ele>
        <time>2013-12-14T09:56:17.000Z</time>
      </trkpt>
      <trkpt lat="45.1889" lon="5.87482">
        <ele>735</ele>
        <time>2013-12-14T09:56:24.000Z</time>
      </trkpt>
      <trkpt lat="45.18879" lon="5.8746">
        <ele>731.79998779297</ele>
        <time>2013-12-14T09:56:30.000Z</time>
      </trkpt>
      <trkpt lat="45.18872" lon="5.87443">
        <ele>729.40002441406</ele>
        <time>2013-12-14T09:56:35.000Z</time>
      </trkpt>
      <trkpt lat="45.18863" lon="5.8742">
        <ele>726</ele>
        <time>2013-12-14T09:56:41.000Z</time>
      </trkpt>
      <trkpt lat="45.18859" lon="5.87404">
        <ele>724.59997558594</ele>
        <time>2013-12-14T09:56:46.000Z</time>
      </trkpt>
      <trkpt lat="45.18859" lon="5.87393">
        <ele>724.40002441406</ele>
        <time>2013-12-14T09:57:27.000Z</time>
      </trkpt>
      <trkpt lat="45.18852" lon="5.87373">
        <ele>721.59997558594</ele>
        <time>2013-12-14T09:57:32.000Z</time>
      </trkpt>
      <trkpt lat="45.18845" lon="5.87356">
        <ele>718.59997558594</ele>
        <time>2013-12-14T09:57:36.000Z</time>
      </trkpt>
      <trkpt lat="45.18836" lon="5.8733">
        <ele>714.20001220703</ele>
        <time>2013-12-14T09:57:42.000Z</time>
      </trkpt>
      <trkpt lat="45.18825" lon="5.87302">
        <ele>710</ele>
        <time>2013-12-14T09:57:48.000Z</time>
      </trkpt>
      <trkpt lat="45.18816" lon="5.87278">
        <ele>706.40002441406</ele>
        <time>2013-12-14T09:57:53.000Z</time>
      </trkpt>
      <trkpt lat="45.1881" lon="5.87259">
        <ele>703.59997558594</ele>
        <time>2013-12-14T09:57:57.000Z</time>
      </trkpt>
      <trkpt lat="45.18807" lon="5.87236">
        <ele>700.79998779297</ele>
        <time>2013-12-14T09:58:02.000Z</time>
      </trkpt>
      <trkpt lat="45.18805" lon="5.87211">
        <ele>697.59997558594</ele>
        <time>2013-12-14T09:58:07.000Z</time>
      </trkpt>
      <trkpt lat="45.18802" lon="5.87188">
        <ele>694.40002441406</ele>
        <time>2013-12-14T09:58:12.000Z</time>
      </trkpt>
      <trkpt lat="45.18799" lon="5.87164">
        <ele>690.79998779297</ele>
        <time>2013-12-14T09:58:17.000Z</time>
      </trkpt>
      <trkpt lat="45.18797" lon="5.87142">
        <ele>687.40002441406</ele>
        <time>2013-12-14T09:58:21.000Z</time>
      </trkpt>
      <trkpt lat="45.18797" lon="5.8712">
        <ele>684.59997558594</ele>
        <time>2013-12-14T09:58:25.000Z</time>
      </trkpt>
      <trkpt lat="45.18797" lon="5.87116">
        <ele>684</ele>
        <time>2013-12-14T09:58:26.000Z</time>
      </trkpt>
      <trkpt lat="45.18799" lon="5.8711">
        <ele>683.40002441406</ele>
        <time>2013-12-14T09:58:30.000Z</time>
      </trkpt>
      <trkpt lat="45.18799" lon="5.87107">
        <ele>683</ele>
        <time>2013-12-14T09:58:36.000Z</time>
      </trkpt>
      <trkpt lat="45.18798" lon="5.87105">
        <ele>682.59997558594</ele>
        <time>2013-12-14T09:58:41.000Z</time>
      </trkpt>
      <trkpt lat="45.18807" lon="5.87084">
        <ele>682</ele>
        <time>2013-12-14T09:58:46.000Z</time>
      </trkpt>
      <trkpt lat="45.18809" lon="5.87079">
        <ele>681.59997558594</ele>
        <time>2013-12-14T09:58:47.000Z</time>
      </trkpt>
      <trkpt lat="45.18824" lon="5.87043">
        <ele>678.20001220703</ele>
        <time>2013-12-14T09:58:55.000Z</time>
      </trkpt>
      <trkpt lat="45.18838" lon="5.87016">
        <ele>675.79998779297</ele>
        <time>2013-12-14T09:59:01.000Z</time>
      </trkpt>
      <trkpt lat="45.18852" lon="5.86993">
        <ele>674.40002441406</ele>
        <time>2013-12-14T09:59:07.000Z</time>
      </trkpt>
      <trkpt lat="45.18865" lon="5.86969">
        <ele>671.79998779297</ele>
        <time>2013-12-14T09:59:13.000Z</time>
      </trkpt>
      <trkpt lat="45.18877" lon="5.86941">
        <ele>667</ele>
        <time>2013-12-14T09:59:19.000Z</time>
      </trkpt>
      <trkpt lat="45.18884" lon="5.8692">
        <ele>662.20001220703</ele>
        <time>2013-12-14T09:59:23.000Z</time>
      </trkpt>
      <trkpt lat="45.18891" lon="5.86904">
        <ele>659.20001220703</ele>
        <time>2013-12-14T09:59:26.000Z</time>
      </trkpt>
      <trkpt lat="45.18907" lon="5.86888">
        <ele>657.40002441406</ele>
        <time>2013-12-14T09:59:31.000Z</time>
      </trkpt>
      <trkpt lat="45.18933" lon="5.86863">
        <ele>654.79998779297</ele>
        <time>2013-12-14T09:59:40.000Z</time>
      </trkpt>
      <trkpt lat="45.18947" lon="5.86848">
        <ele>653.20001220703</ele>
        <time>2013-12-14T09:59:45.000Z</time>
      </trkpt>
      <trkpt lat="45.18961" lon="5.86833">
        <ele>651.79998779297</ele>
        <time>2013-12-14T09:59:50.000Z</time>
      </trkpt>
      <trkpt lat="45.18972" lon="5.86816">
        <ele>651.20001220703</ele>
        <time>2013-12-14T09:59:55.000Z</time>
      </trkpt>
      <trkpt lat="45.18975" lon="5.86813">
        <ele>651</ele>
        <time>2013-12-14T09:59:56.000Z</time>
      </trkpt>
      <trkpt lat="45.18973" lon="5.86799">
        <ele>648.59997558594</ele>
        <time>2013-12-14T10:00:00.000Z</time>
      </trkpt>
      <trkpt lat="45.1897" lon="5.86796">
        <ele>647.79998779297</ele>
        <time>2013-12-14T10:00:01.000Z</time>
      </trkpt>
      <trkpt lat="45.18955" lon="5.86774">
        <ele>642.59997558594</ele>
        <time>2013-12-14T10:00:07.000Z</time>
      </trkpt>
      <trkpt lat="45.18949" lon="5.86744">
        <ele>637.40002441406</ele>
        <time>2013-12-14T10:00:13.000Z</time>
      </trkpt>
      <trkpt lat="45.18942" lon="5.8672">
        <ele>633.59997558594</ele>
        <time>2013-12-14T10:00:18.000Z</time>
      </trkpt>
      <trkpt lat="45.1893" lon="5.86695">
        <ele>629</ele>
        <time>2013-12-14T10:00:23.000Z</time>
      </trkpt>
      <trkpt lat="45.18917" lon="5.8667">
        <ele>624.40002441406</ele>
        <time>2013-12-14T10:00:29.000Z</time>
      </trkpt>
      <trkpt lat="45.18903" lon="5.86653">
        <ele>621.20001220703</ele>
        <time>2013-12-14T10:00:34.000Z</time>
      </trkpt>
      <trkpt lat="45.18892" lon="5.86634">
        <ele>618.40002441406</ele>
        <time>2013-12-14T10:00:39.000Z</time>
      </trkpt>
      <trkpt lat="45.18883" lon="5.86609">
        <ele>615.59997558594</ele>
        <time>2013-12-14T10:00:45.000Z</time>
      </trkpt>
      <trkpt lat="45.1889" lon="5.86587">
        <ele>614.40002441406</ele>
        <time>2013-12-14T10:00:50.000Z</time>
      </trkpt>
      <trkpt lat="45.18903" lon="5.86563">
        <ele>612.79998779297</ele>
        <time>2013-12-14T10:00:57.000Z</time>
      </trkpt>
      <trkpt lat="45.18919" lon="5.86545">
        <ele>612.20001220703</ele>
        <time>2013-12-14T10:01:03.000Z</time>
      </trkpt>
      <trkpt lat="45.18936" lon="5.8653">
        <ele>613.20001220703</ele>
        <time>2013-12-14T10:01:09.000Z</time>
      </trkpt>
      <trkpt lat="45.18959" lon="5.86524">
        <ele>616</ele>
        <time>2013-12-14T10:01:16.000Z</time>
      </trkpt>
      <trkpt lat="45.18974" lon="5.86521">
        <ele>618</ele>
        <time>2013-12-14T10:01:20.000Z</time>
      </trkpt>
      <trkpt lat="45.18986" lon="5.8651">
        <ele>619.20001220703</ele>
        <time>2013-12-14T10:01:25.000Z</time>
      </trkpt>
      <trkpt lat="45.18993" lon="5.86496">
        <ele>619.40002441406</ele>
        <time>2013-12-14T10:01:30.000Z</time>
      </trkpt>
      <trkpt lat="45.19" lon="5.86479">
        <ele>619.40002441406</ele>
        <time>2013-12-14T10:01:36.000Z</time>
      </trkpt>
      <trkpt lat="45.19007" lon="5.86461">
        <ele>621.40002441406</ele>
        <time>2013-12-14T10:01:42.000Z</time>
      </trkpt>
      <trkpt lat="45.19013" lon="5.86444">
        <ele>623.20001220703</ele>
        <time>2013-12-14T10:01:48.000Z</time>
      </trkpt>
      <trkpt lat="45.19019" lon="5.86431">
        <ele>625.59997558594</ele>
        <time>2013-12-14T10:01:53.000Z</time>
      </trkpt>
      <trkpt lat="45.19026" lon="5.86415">
        <ele>627.79998779297</ele>
        <time>2013-12-14T10:01:59.000Z</time>
      </trkpt>
      <trkpt lat="45.1903" lon="5.86402">
        <ele>629.20001220703</ele>
        <time>2013-12-14T10:02:04.000Z</time>
      </trkpt>
      <trkpt lat="45.19038" lon="5.86387">
        <ele>631.79998779297</ele>
        <time>2013-12-14T10:02:10.000Z</time>
      </trkpt>
      <trkpt lat="45.19045" lon="5.86374">
        <ele>634.20001220703</ele>
        <time>2013-12-14T10:02:15.000Z</time>
      </trkpt>
      <trkpt lat="45.19053" lon="5.8636">
        <ele>637.20001220703</ele>
        <time>2013-12-14T10:02:21.000Z</time>
      </trkpt>
      <trkpt lat="45.19061" lon="5.86342">
        <ele>640.20001220703</ele>
        <time>2013-12-14T10:02:27.000Z</time>
      </trkpt>
      <trkpt lat="45.1907" lon="5.86325">
        <ele>642.79998779297</ele>
        <time>2013-12-14T10:02:33.000Z</time>
      </trkpt>
      <trkpt lat="45.19076" lon="5.86302">
        <ele>643</ele>
        <time>2013-12-14T10:02:40.000Z</time>
      </trkpt>
      <trkpt lat="45.19077" lon="5.86278">
        <ele>639.79998779297</ele>
        <time>2013-12-14T10:02:46.000Z</time>
      </trkpt>
      <trkpt lat="45.19078" lon="5.86255">
        <ele>637</ele>
        <time>2013-12-14T10:02:52.000Z</time>
      </trkpt>
      <trkpt lat="45.19088" lon="5.86236">
        <ele>640.40002441406</ele>
        <time>2013-12-14T10:03:00.000Z</time>
      </trkpt>
      <trkpt lat="45.19096" lon="5.86223">
        <ele>643.59997558594</ele>
        <time>2013-12-14T10:03:06.000Z</time>
      </trkpt>
      <trkpt lat="45.19103" lon="5.86209">
        <ele>646.20001220703</ele>
        <time>2013-12-14T10:03:12.000Z</time>
      </trkpt>
      <trkpt lat="45.19108" lon="5.8619">
        <ele>647.40002441406</ele>
        <time>2013-12-14T10:03:19.000Z</time>
      </trkpt>
      <trkpt lat="45.19108" lon="5.86173">
        <ele>645.79998779297</ele>
        <time>2013-12-14T10:03:25.000Z</time>
      </trkpt>
      <trkpt lat="45.19106" lon="5.86154">
        <ele>643</ele>
        <time>2013-12-14T10:03:31.000Z</time>
      </trkpt>
      <trkpt lat="45.19104" lon="5.86137">
        <ele>641</ele>
        <time>2013-12-14T10:03:37.000Z</time>
      </trkpt>
      <trkpt lat="45.19105" lon="5.86123">
        <ele>640.40002441406</ele>
        <time>2013-12-14T10:03:42.000Z</time>
      </trkpt>
      <trkpt lat="45.19113" lon="5.8611">
        <ele>643</ele>
        <time>2013-12-14T10:03:49.000Z</time>
      </trkpt>
      <trkpt lat="45.19118" lon="5.86106">
        <ele>644.79998779297</ele>
        <time>2013-12-14T10:03:52.000Z</time>
      </trkpt>
      <trkpt lat="45.19126" lon="5.86101">
        <ele>648.20001220703</ele>
        <time>2013-12-14T10:03:57.000Z</time>
      </trkpt>
      <trkpt lat="45.19137" lon="5.86094">
        <ele>652.40002441406</ele>
        <time>2013-12-14T10:04:04.000Z</time>
      </trkpt>
      <trkpt lat="45.19148" lon="5.86088">
        <ele>656.59997558594</ele>
        <time>2013-12-14T10:04:10.000Z</time>
      </trkpt>
      <trkpt lat="45.19161" lon="5.86079">
        <ele>661.20001220703</ele>
        <time>2013-12-14T10:04:17.000Z</time>
      </trkpt>
      <trkpt lat="45.19164" lon="5.86077">
        <ele>662.40002441406</ele>
        <time>2013-12-14T10:04:19.000Z</time>
      </trkpt>
      <trkpt lat="45.19174" lon="5.86066">
        <ele>666.20001220703</ele>
        <time>2013-12-14T10:04:26.000Z</time>
      </trkpt>
      <trkpt lat="45.19181" lon="5.86057">
        <ele>668.59997558594</ele>
        <time>2013-12-14T10:04:31.000Z</time>
      </trkpt>
      <trkpt lat="45.19188" lon="5.86046">
        <ele>671</ele>
        <time>2013-12-14T10:04:37.000Z</time>
      </trkpt>
      <trkpt lat="45.19195" lon="5.86035">
        <ele>672.79998779297</ele>
        <time>2013-12-14T10:04:43.000Z</time>
      </trkpt>
      <trkpt lat="45.192" lon="5.86024">
        <ele>673.40002441406</ele>
        <time>2013-12-14T10:04:48.000Z</time>
      </trkpt>
      <trkpt lat="45.19203" lon="5.86013">
        <ele>672.79998779297</ele>
        <time>2013-12-14T10:04:53.000Z</time>
      </trkpt>
      <trkpt lat="45.19204" lon="5.85995">
        <ele>670.79998779297</ele>
        <time>2013-12-14T10:04:59.000Z</time>
      </trkpt>
      <trkpt lat="45.19205" lon="5.85975">
        <ele>669.20001220703</ele>
        <time>2013-12-14T10:05:06.000Z</time>
      </trkpt>
      <trkpt lat="45.19205" lon="5.85958">
        <ele>667.59997558594</ele>
        <time>2013-12-14T10:05:12.000Z</time>
      </trkpt>
      <trkpt lat="45.19205" lon="5.85941">
        <ele>665.79998779297</ele>
        <time>2013-12-14T10:05:18.000Z</time>
      </trkpt>
      <trkpt lat="45.19204" lon="5.85924">
        <ele>664</ele>
        <time>2013-12-14T10:05:24.000Z</time>
      </trkpt>
      <trkpt lat="45.19198" lon="5.85899">
        <ele>661.59997558594</ele>
        <time>2013-12-14T10:05:31.000Z</time>
      </trkpt>
      <trkpt lat="45.19195" lon="5.8588">
        <ele>661</ele>
        <time>2013-12-14T10:05:37.000Z</time>
      </trkpt>
      <trkpt lat="45.19193" lon="5.85865">
        <ele>660.59997558594</ele>
        <time>2013-12-14T10:05:42.000Z</time>
      </trkpt>
      <trkpt lat="45.19192" lon="5.85853">
        <ele>660.59997558594</ele>
        <time>2013-12-14T10:05:47.000Z</time>
      </trkpt>
      <trkpt lat="45.19192" lon="5.8585">
        <ele>660.59997558594</ele>
        <time>2013-12-14T10:05:48.000Z</time>
      </trkpt>
      <trkpt lat="45.192" lon="5.85842">
        <ele>660.79998779297</ele>
        <time>2013-12-14T10:05:53.000Z</time>
      </trkpt>
      <trkpt lat="45.19206" lon="5.85845">
        <ele>661</ele>
        <time>2013-12-14T10:05:57.000Z</time>
      </trkpt>
      <trkpt lat="45.19216" lon="5.85861">
        <ele>662.40002441406</ele>
        <time>2013-12-14T10:06:05.000Z</time>
      </trkpt>
      <trkpt lat="45.19221" lon="5.85872">
        <ele>663.79998779297</ele>
        <time>2013-12-14T10:06:10.000Z</time>
      </trkpt>
      <trkpt lat="45.19229" lon="5.85886">
        <ele>666.20001220703</ele>
        <time>2013-12-14T10:06:16.000Z</time>
      </trkpt>
      <trkpt lat="45.19236" lon="5.85901">
        <ele>669.20001220703</ele>
        <time>2013-12-14T10:06:22.000Z</time>
      </trkpt>
      <trkpt lat="45.1924" lon="5.85917">
        <ele>672.59997558594</ele>
        <time>2013-12-14T10:06:29.000Z</time>
      </trkpt>
      <trkpt lat="45.19244" lon="5.85928">
        <ele>675.40002441406</ele>
        <time>2013-12-14T10:06:34.000Z</time>
      </trkpt>
      <trkpt lat="45.19248" lon="5.85941">
        <ele>678.79998779297</ele>
        <time>2013-12-14T10:06:39.000Z</time>
      </trkpt>
      <trkpt lat="45.1925" lon="5.85947">
        <ele>680.40002441406</ele>
        <time>2013-12-14T10:06:41.000Z</time>
      </trkpt>
      <trkpt lat="45.19258" lon="5.85963">
        <ele>681.20001220703</ele>
        <time>2013-12-14T10:06:47.000Z</time>
      </trkpt>
      <trkpt lat="45.19266" lon="5.85983">
        <ele>683.20001220703</ele>
        <time>2013-12-14T10:06:54.000Z</time>
      </trkpt>
      <trkpt lat="45.19275" lon="5.85999">
        <ele>684.40002441406</ele>
        <time>2013-12-14T10:07:00.000Z</time>
      </trkpt>
      <trkpt lat="45.19283" lon="5.86013">
        <ele>686</ele>
        <time>2013-12-14T10:07:05.000Z</time>
      </trkpt>
      <trkpt lat="45.19295" lon="5.86031">
        <ele>688.20001220703</ele>
        <time>2013-12-14T10:07:11.000Z</time>
      </trkpt>
      <trkpt lat="45.19303" lon="5.86049">
        <ele>691</ele>
        <time>2013-12-14T10:07:17.000Z</time>
      </trkpt>
      <trkpt lat="45.19312" lon="5.86062">
        <ele>692.59997558594</ele>
        <time>2013-12-14T10:07:22.000Z</time>
      </trkpt>
      <trkpt lat="45.1932" lon="5.86077">
        <ele>695</ele>
        <time>2013-12-14T10:07:27.000Z</time>
      </trkpt>
      <trkpt lat="45.19331" lon="5.86096">
        <ele>698.59997558594</ele>
        <time>2013-12-14T10:07:34.000Z</time>
      </trkpt>
      <trkpt lat="45.19341" lon="5.86107">
        <ele>700</ele>
        <time>2013-12-14T10:07:38.000Z</time>
      </trkpt>
      <trkpt lat="45.19355" lon="5.86125">
        <ele>702</ele>
        <time>2013-12-14T10:07:44.000Z</time>
      </trkpt>
      <trkpt lat="45.1937" lon="5.86138">
        <ele>702.59997558594</ele>
        <time>2013-12-14T10:07:50.000Z</time>
      </trkpt>
      <trkpt lat="45.19383" lon="5.86145">
        <ele>701.79998779297</ele>
        <time>2013-12-14T10:07:55.000Z</time>
      </trkpt>
      <trkpt lat="45.19403" lon="5.86145">
        <ele>696</ele>
        <time>2013-12-14T10:08:02.000Z</time>
      </trkpt>
      <trkpt lat="45.1942" lon="5.86147">
        <ele>692.59997558594</ele>
        <time>2013-12-14T10:08:08.000Z</time>
      </trkpt>
      <trkpt lat="45.19431" lon="5.86155">
        <ele>693.40002441406</ele>
        <time>2013-12-14T10:08:13.000Z</time>
      </trkpt>
      <trkpt lat="45.19443" lon="5.86169">
        <ele>696.20001220703</ele>
        <time>2013-12-14T10:08:18.000Z</time>
      </trkpt>
      <trkpt lat="45.19453" lon="5.86184">
        <ele>698</ele>
        <time>2013-12-14T10:08:23.000Z</time>
      </trkpt>
      <trkpt lat="45.19465" lon="5.86196">
        <ele>698.59997558594</ele>
        <time>2013-12-14T10:08:28.000Z</time>
      </trkpt>
      <trkpt lat="45.19481" lon="5.8621">
        <ele>698.59997558594</ele>
        <time>2013-12-14T10:08:35.000Z</time>
      </trkpt>
      <trkpt lat="45.19492" lon="5.86219">
        <ele>697.79998779297</ele>
        <time>2013-12-14T10:08:40.000Z</time>
      </trkpt>
      <trkpt lat="45.19505" lon="5.86228">
        <ele>698</ele>
        <time>2013-12-14T10:08:46.000Z</time>
      </trkpt>
      <trkpt lat="45.1952" lon="5.86243">
        <ele>702.20001220703</ele>
        <time>2013-12-14T10:08:52.000Z</time>
      </trkpt>
      <trkpt lat="45.19525" lon="5.86244">
        <ele>702.40002441406</ele>
        <time>2013-12-14T10:08:54.000Z</time>
      </trkpt>
      <trkpt lat="45.19541" lon="5.86231">
        <ele>699</ele>
        <time>2013-12-14T10:09:00.000Z</time>
      </trkpt>
      <trkpt lat="45.19559" lon="5.86221">
        <ele>696.20001220703</ele>
        <time>2013-12-14T10:09:06.000Z</time>
      </trkpt>
      <trkpt lat="45.19577" lon="5.86216">
        <ele>694.79998779297</ele>
        <time>2013-12-14T10:09:12.000Z</time>
      </trkpt>
      <trkpt lat="45.19593" lon="5.86211">
        <ele>693.59997558594</ele>
        <time>2013-12-14T10:09:17.000Z</time>
      </trkpt>
      <trkpt lat="45.19604" lon="5.86206">
        <ele>692</ele>
        <time>2013-12-14T10:09:21.000Z</time>
      </trkpt>
      <trkpt lat="45.19619" lon="5.86202">
        <ele>690.79998779297</ele>
        <time>2013-12-14T10:09:27.000Z</time>
      </trkpt>
      <trkpt lat="45.19633" lon="5.86202">
        <ele>690.59997558594</ele>
        <time>2013-12-14T10:09:33.000Z</time>
      </trkpt>
      <trkpt lat="45.19649" lon="5.86202">
        <ele>690.40002441406</ele>
        <time>2013-12-14T10:09:39.000Z</time>
      </trkpt>
      <trkpt lat="45.1966" lon="5.86201">
        <ele>690.20001220703</ele>
        <time>2013-12-14T10:09:43.000Z</time>
      </trkpt>
      <trkpt lat="45.19674" lon="5.86205">
        <ele>690</ele>
        <time>2013-12-14T10:09:47.000Z</time>
      </trkpt>
      <trkpt lat="45.19694" lon="5.86215">
        <ele>690.20001220703</ele>
        <time>2013-12-14T10:09:53.000Z</time>
      </trkpt>
      <trkpt lat="45.19709" lon="5.86223">
        <ele>690.79998779297</ele>
        <time>2013-12-14T10:09:58.000Z</time>
      </trkpt>
      <trkpt lat="45.19722" lon="5.86234">
        <ele>692.20001220703</ele>
        <time>2013-12-14T10:10:03.000Z</time>
      </trkpt>
      <trkpt lat="45.1974" lon="5.8625">
        <ele>694.59997558594</ele>
        <time>2013-12-14T10:10:10.000Z</time>
      </trkpt>
      <trkpt lat="45.19758" lon="5.86256">
        <ele>696.59997558594</ele>
        <time>2013-12-14T10:10:16.000Z</time>
      </trkpt>
      <trkpt lat="45.19772" lon="5.86253">
        <ele>697</ele>
        <time>2013-12-14T10:10:21.000Z</time>
      </trkpt>
      <trkpt lat="45.19789" lon="5.86245">
        <ele>696.40002441406</ele>
        <time>2013-12-14T10:10:27.000Z</time>
      </trkpt>
      <trkpt lat="45.19806" lon="5.86237">
        <ele>696.20001220703</ele>
        <time>2013-12-14T10:10:33.000Z</time>
      </trkpt>
      <trkpt lat="45.19819" lon="5.86234">
        <ele>696.79998779297</ele>
        <time>2013-12-14T10:10:38.000Z</time>
      </trkpt>
      <trkpt lat="45.19834" lon="5.86231">
        <ele>697.59997558594</ele>
        <time>2013-12-14T10:10:43.000Z</time>
      </trkpt>
      <trkpt lat="45.19848" lon="5.86232">
        <ele>701.79998779297</ele>
        <time>2013-12-14T10:10:48.000Z</time>
      </trkpt>
      <trkpt lat="45.19862" lon="5.86231">
        <ele>706</ele>
        <time>2013-12-14T10:10:53.000Z</time>
      </trkpt>
      <trkpt lat="45.19867" lon="5.86226">
        <ele>706.20001220703</ele>
        <time>2013-12-14T10:10:55.000Z</time>
      </trkpt>
      <trkpt lat="45.19871" lon="5.86209">
        <ele>704</ele>
        <time>2013-12-14T10:10:59.000Z</time>
      </trkpt>
      <trkpt lat="45.19873" lon="5.86181">
        <ele>699</ele>
        <time>2013-12-14T10:11:05.000Z</time>
      </trkpt>
      <trkpt lat="45.19876" lon="5.86152">
        <ele>695.20001220703</ele>
        <time>2013-12-14T10:11:11.000Z</time>
      </trkpt>
      <trkpt lat="45.19879" lon="5.86129">
        <ele>692.79998779297</ele>
        <time>2013-12-14T10:11:16.000Z</time>
      </trkpt>
      <trkpt lat="45.19878" lon="5.8611">
        <ele>689.59997558594</ele>
        <time>2013-12-14T10:11:20.000Z</time>
      </trkpt>
      <trkpt lat="45.19879" lon="5.86083">
        <ele>686.40002441406</ele>
        <time>2013-12-14T10:11:26.000Z</time>
      </trkpt>
      <trkpt lat="45.19887" lon="5.86056">
        <ele>688</ele>
        <time>2013-12-14T10:11:32.000Z</time>
      </trkpt>
      <trkpt lat="45.19892" lon="5.86035">
        <ele>688.40002441406</ele>
        <time>2013-12-14T10:11:37.000Z</time>
      </trkpt>
      <trkpt lat="45.19893" lon="5.86013">
        <ele>687.20001220703</ele>
        <time>2013-12-14T10:11:42.000Z</time>
      </trkpt>
      <trkpt lat="45.19889" lon="5.8599">
        <ele>684.20001220703</ele>
        <time>2013-12-14T10:11:47.000Z</time>
      </trkpt>
      <trkpt lat="45.19888" lon="5.85969">
        <ele>682</ele>
        <time>2013-12-14T10:11:52.000Z</time>
      </trkpt>
      <trkpt lat="45.19889" lon="5.85947">
        <ele>680.79998779297</ele>
        <time>2013-12-14T10:11:58.000Z</time>
      </trkpt>
      <trkpt lat="45.19889" lon="5.85922">
        <ele>679</ele>
        <time>2013-12-14T10:12:04.000Z</time>
      </trkpt>
      <trkpt lat="45.19896" lon="5.85901">
        <ele>678.40002441406</ele>
        <time>2013-12-14T10:12:09.000Z</time>
      </trkpt>
      <trkpt lat="45.19905" lon="5.85883">
        <ele>678.40002441406</ele>
        <time>2013-12-14T10:12:14.000Z</time>
      </trkpt>
      <trkpt lat="45.19918" lon="5.85867">
        <ele>679</ele>
        <time>2013-12-14T10:12:20.000Z</time>
      </trkpt>
      <trkpt lat="45.19932" lon="5.85857">
        <ele>677.59997558594</ele>
        <time>2013-12-14T10:12:26.000Z</time>
      </trkpt>
      <trkpt lat="45.19942" lon="5.85852">
        <ele>677</ele>
        <time>2013-12-14T10:12:30.000Z</time>
      </trkpt>
      <trkpt lat="45.19942" lon="5.85852">
        <ele>677</ele>
        <time>2013-12-14T10:12:30.000Z</time>
      </trkpt>
      <trkpt lat="45.19951" lon="5.85851">
        <ele>677.20001220703</ele>
        <time>2013-12-14T10:12:33.000Z</time>
      </trkpt>
      <trkpt lat="45.19968" lon="5.8585">
        <ele>677.59997558594</ele>
        <time>2013-12-14T10:12:38.000Z</time>
      </trkpt>
      <trkpt lat="45.19988" lon="5.85853">
        <ele>678.59997558594</ele>
        <time>2013-12-14T10:12:44.000Z</time>
      </trkpt>
      <trkpt lat="45.19999" lon="5.85851">
        <ele>678.59997558594</ele>
        <time>2013-12-14T10:12:48.000Z</time>
      </trkpt>
      <trkpt lat="45.20016" lon="5.85849">
        <ele>671.59997558594</ele>
        <time>2013-12-14T10:12:54.000Z</time>
      </trkpt>
      <trkpt lat="45.20024" lon="5.85844">
        <ele>668</ele>
        <time>2013-12-14T10:12:57.000Z</time>
      </trkpt>
      <trkpt lat="45.20032" lon="5.85831">
        <ele>663.59997558594</ele>
        <time>2013-12-14T10:13:02.000Z</time>
      </trkpt>
      <trkpt lat="45.20038" lon="5.85822">
        <ele>660.20001220703</ele>
        <time>2013-12-14T10:13:06.000Z</time>
      </trkpt>
      <trkpt lat="45.20052" lon="5.85803">
        <ele>653.59997558594</ele>
        <time>2013-12-14T10:13:14.000Z</time>
      </trkpt>
      <trkpt lat="45.20056" lon="5.85799">
        <ele>651.59997558594</ele>
        <time>2013-12-14T10:13:16.000Z</time>
      </trkpt>
      <trkpt lat="45.20063" lon="5.85775">
        <ele>648</ele>
        <time>2013-12-14T10:13:22.000Z</time>
      </trkpt>
      <trkpt lat="45.20066" lon="5.85748">
        <ele>645.59997558594</ele>
        <time>2013-12-14T10:13:28.000Z</time>
      </trkpt>
      <trkpt lat="45.20065" lon="5.85722">
        <ele>642.20001220703</ele>
        <time>2013-12-14T10:13:34.000Z</time>
      </trkpt>
      <trkpt lat="45.20063" lon="5.85696">
        <ele>638.59997558594</ele>
        <time>2013-12-14T10:13:40.000Z</time>
      </trkpt>
      <trkpt lat="45.20058" lon="5.8568">
        <ele>636.79998779297</ele>
        <time>2013-12-14T10:13:44.000Z</time>
      </trkpt>
      <trkpt lat="45.2005" lon="5.8566">
        <ele>633.79998779297</ele>
        <time>2013-12-14T10:13:49.000Z</time>
      </trkpt>
      <trkpt lat="45.20049" lon="5.85647">
        <ele>631</ele>
        <time>2013-12-14T10:13:52.000Z</time>
      </trkpt>
      <trkpt lat="45.2004" lon="5.85623">
        <ele>625.79998779297</ele>
        <time>2013-12-14T10:13:59.000Z</time>
      </trkpt>
      <trkpt lat="45.20035" lon="5.856">
        <ele>620.79998779297</ele>
        <time>2013-12-14T10:14:04.000Z</time>
      </trkpt>
      <trkpt lat="45.20029" lon="5.8558">
        <ele>616.40002441406</ele>
        <time>2013-12-14T10:14:09.000Z</time>
      </trkpt>
      <trkpt lat="45.20022" lon="5.85562">
        <ele>613.40002441406</ele>
        <time>2013-12-14T10:14:14.000Z</time>
      </trkpt>
      <trkpt lat="45.2002" lon="5.85558">
        <ele>612.79998779297</ele>
        <time>2013-12-14T10:14:15.000Z</time>
      </trkpt>
      <trkpt lat="45.20019" lon="5.85542">
        <ele>610.20001220703</ele>
        <time>2013-12-14T10:14:19.000Z</time>
      </trkpt>
      <trkpt lat="45.20014" lon="5.85515">
        <ele>606</ele>
        <time>2013-12-14T10:14:25.000Z</time>
      </trkpt>
      <trkpt lat="45.20011" lon="5.85487">
        <ele>602</ele>
        <time>2013-12-14T10:14:31.000Z</time>
      </trkpt>
      <trkpt lat="45.20012" lon="5.85471">
        <ele>599.59997558594</ele>
        <time>2013-12-14T10:14:35.000Z</time>
      </trkpt>
      <trkpt lat="45.20005" lon="5.85464">
        <ele>600</ele>
        <time>2013-12-14T10:14:39.000Z</time>
      </trkpt>
      <trkpt lat="45.19997" lon="5.85472">
        <ele>601.20001220703</ele>
        <time>2013-12-14T10:14:42.000Z</time>
      </trkpt>
      <trkpt lat="45.19981" lon="5.85492">
        <ele>600.20001220703</ele>
        <time>2013-12-14T10:14:48.000Z</time>
      </trkpt>
      <trkpt lat="45.19961" lon="5.85517">
        <ele>601.20001220703</ele>
        <time>2013-12-14T10:14:55.000Z</time>
      </trkpt>
      <trkpt lat="45.19948" lon="5.85523">
        <ele>600.59997558594</ele>
        <time>2013-12-14T10:14:59.000Z</time>
      </trkpt>
      <trkpt lat="45.19929" lon="5.8552">
        <ele>597</ele>
        <time>2013-12-14T10:15:05.000Z</time>
      </trkpt>
      <trkpt lat="45.1991" lon="5.85512">
        <ele>592.40002441406</ele>
        <time>2013-12-14T10:15:11.000Z</time>
      </trkpt>
      <trkpt lat="45.19892" lon="5.85501">
        <ele>590</ele>
        <time>2013-12-14T10:15:17.000Z</time>
      </trkpt>
      <trkpt lat="45.19869" lon="5.85486">
        <ele>588</ele>
        <time>2013-12-14T10:15:24.000Z</time>
      </trkpt>
      <trkpt lat="45.1985" lon="5.85472">
        <ele>585.40002441406</ele>
        <time>2013-12-14T10:15:30.000Z</time>
      </trkpt>
      <trkpt lat="45.19835" lon="5.85456">
        <ele>581.20001220703</ele>
        <time>2013-12-14T10:15:36.000Z</time>
      </trkpt>
      <trkpt lat="45.1982" lon="5.85445">
        <ele>579.40002441406</ele>
        <time>2013-12-14T10:15:41.000Z</time>
      </trkpt>
      <trkpt lat="45.19801" lon="5.85433">
        <ele>577.79998779297</ele>
        <time>2013-12-14T10:15:47.000Z</time>
      </trkpt>
      <trkpt lat="45.19783" lon="5.85414">
        <ele>575</ele>
        <time>2013-12-14T10:15:54.000Z</time>
      </trkpt>
      <trkpt lat="45.19771" lon="5.85392">
        <ele>573.79998779297</ele>
        <time>2013-12-14T10:16:00.000Z</time>
      </trkpt>
      <trkpt lat="45.19763" lon="5.85372">
        <ele>573</ele>
        <time>2013-12-14T10:16:05.000Z</time>
      </trkpt>
      <trkpt lat="45.19751" lon="5.85349">
        <ele>573.20001220703</ele>
        <time>2013-12-14T10:16:11.000Z</time>
      </trkpt>
      <trkpt lat="45.19738" lon="5.85329">
        <ele>570.79998779297</ele>
        <time>2013-12-14T10:16:17.000Z</time>
      </trkpt>
      <trkpt lat="45.19721" lon="5.85309">
        <ele>564.59997558594</ele>
        <time>2013-12-14T10:16:23.000Z</time>
      </trkpt>
      <trkpt lat="45.19703" lon="5.85289">
        <ele>559.59997558594</ele>
        <time>2013-12-14T10:16:29.000Z</time>
      </trkpt>
      <trkpt lat="45.19687" lon="5.85275">
        <ele>556.20001220703</ele>
        <time>2013-12-14T10:16:34.000Z</time>
      </trkpt>
      <trkpt lat="45.19669" lon="5.85258">
        <ele>553</ele>
        <time>2013-12-14T10:16:40.000Z</time>
      </trkpt>
      <trkpt lat="45.19652" lon="5.85252">
        <ele>551.79998779297</ele>
        <time>2013-12-14T10:16:45.000Z</time>
      </trkpt>
      <trkpt lat="45.19636" lon="5.8525">
        <ele>551.40002441406</ele>
        <time>2013-12-14T10:16:50.000Z</time>
      </trkpt>
      <trkpt lat="45.1962" lon="5.85239">
        <ele>548.59997558594</ele>
        <time>2013-12-14T10:16:55.000Z</time>
      </trkpt>
      <trkpt lat="45.19606" lon="5.85218">
        <ele>542.40002441406</ele>
        <time>2013-12-14T10:17:01.000Z</time>
      </trkpt>
      <trkpt lat="45.19588" lon="5.85196">
        <ele>535.79998779297</ele>
        <time>2013-12-14T10:17:08.000Z</time>
      </trkpt>
      <trkpt lat="45.19575" lon="5.85197">
        <ele>534.20001220703</ele>
        <time>2013-12-14T10:17:12.000Z</time>
      </trkpt>
      <trkpt lat="45.19565" lon="5.8521">
        <ele>535.59997558594</ele>
        <time>2013-12-14T10:17:16.000Z</time>
      </trkpt>
      <trkpt lat="45.1956" lon="5.85236">
        <ele>542.40002441406</ele>
        <time>2013-12-14T10:17:22.000Z</time>
      </trkpt>
      <trkpt lat="45.19557" lon="5.8526">
        <ele>548.40002441406</ele>
        <time>2013-12-14T10:17:27.000Z</time>
      </trkpt>
      <trkpt lat="45.19549" lon="5.8528">
        <ele>551.79998779297</ele>
        <time>2013-12-14T10:17:32.000Z</time>
      </trkpt>
      <trkpt lat="45.19536" lon="5.85293">
        <ele>552.40002441406</ele>
        <time>2013-12-14T10:17:37.000Z</time>
      </trkpt>
      <trkpt lat="45.19522" lon="5.85297">
        <ele>550</ele>
        <time>2013-12-14T10:17:42.000Z</time>
      </trkpt>
      <trkpt lat="45.19506" lon="5.85294">
        <ele>545.20001220703</ele>
        <time>2013-12-14T10:17:47.000Z</time>
      </trkpt>
      <trkpt lat="45.19491" lon="5.85288">
        <ele>539</ele>
        <time>2013-12-14T10:17:52.000Z</time>
      </trkpt>
      <trkpt lat="45.19475" lon="5.85282">
        <ele>532.59997558594</ele>
        <time>2013-12-14T10:17:57.000Z</time>
      </trkpt>
      <trkpt lat="45.19454" lon="5.85277">
        <ele>524.79998779297</ele>
        <time>2013-12-14T10:18:03.000Z</time>
      </trkpt>
      <trkpt lat="45.19432" lon="5.8527">
        <ele>516.40002441406</ele>
        <time>2013-12-14T10:18:09.000Z</time>
      </trkpt>
      <trkpt lat="45.19422" lon="5.85279">
        <ele>515.20001220703</ele>
        <time>2013-12-14T10:18:13.000Z</time>
      </trkpt>
      <trkpt lat="45.19417" lon="5.85299">
        <ele>517.40002441406</ele>
        <time>2013-12-14T10:18:18.000Z</time>
      </trkpt>
      <trkpt lat="45.19413" lon="5.85289">
        <ele>514.59997558594</ele>
        <time>2013-12-14T10:18:22.000Z</time>
      </trkpt>
      <trkpt lat="45.19411" lon="5.85263">
        <ele>509.20001220703</ele>
        <time>2013-12-14T10:18:27.000Z</time>
      </trkpt>
      <trkpt lat="45.19419" lon="5.85248">
        <ele>508.20001220703</ele>
        <time>2013-12-14T10:18:31.000Z</time>
      </trkpt>
      <trkpt lat="45.19431" lon="5.85243">
        <ele>510.20001220703</ele>
        <time>2013-12-14T10:18:35.000Z</time>
      </trkpt>
      <trkpt lat="45.19446" lon="5.85239">
        <ele>513.40002441406</ele>
        <time>2013-12-14T10:18:39.000Z</time>
      </trkpt>
      <trkpt lat="45.19461" lon="5.85235">
        <ele>516.40002441406</ele>
        <time>2013-12-14T10:18:43.000Z</time>
      </trkpt>
      <trkpt lat="45.19475" lon="5.85233">
        <ele>520</ele>
        <time>2013-12-14T10:18:47.000Z</time>
      </trkpt>
      <trkpt lat="45.19496" lon="5.85236">
        <ele>526.59997558594</ele>
        <time>2013-12-14T10:18:53.000Z</time>
      </trkpt>
      <trkpt lat="45.19504" lon="5.85224">
        <ele>525.40002441406</ele>
        <time>2013-12-14T10:18:57.000Z</time>
      </trkpt>
      <trkpt lat="45.1951" lon="5.85206">
        <ele>521.20001220703</ele>
        <time>2013-12-14T10:19:02.000Z</time>
      </trkpt>
      <trkpt lat="45.19511" lon="5.85179">
        <ele>513.40002441406</ele>
        <time>2013-12-14T10:19:08.000Z</time>
      </trkpt>
      <trkpt lat="45.19511" lon="5.85149">
        <ele>505.60000610352</ele>
        <time>2013-12-14T10:19:14.000Z</time>
      </trkpt>
      <trkpt lat="45.19517" lon="5.85127">
        <ele>501.79998779297</ele>
        <time>2013-12-14T10:19:19.000Z</time>
      </trkpt>
      <trkpt lat="45.19529" lon="5.8511">
        <ele>500</ele>
        <time>2013-12-14T10:19:24.000Z</time>
      </trkpt>
      <trkpt lat="45.19547" lon="5.85097">
        <ele>500.39999389648</ele>
        <time>2013-12-14T10:19:30.000Z</time>
      </trkpt>
      <trkpt lat="45.19564" lon="5.85092">
        <ele>502.60000610352</ele>
        <time>2013-12-14T10:19:35.000Z</time>
      </trkpt>
      <trkpt lat="45.19584" lon="5.85089">
        <ele>505.60000610352</ele>
        <time>2013-12-14T10:19:41.000Z</time>
      </trkpt>
      <trkpt lat="45.19603" lon="5.85085">
        <ele>505.20001220703</ele>
        <time>2013-12-14T10:19:47.000Z</time>
      </trkpt>
      <trkpt lat="45.19622" lon="5.85079">
        <ele>504</ele>
        <time>2013-12-14T10:19:53.000Z</time>
      </trkpt>
      <trkpt lat="45.19638" lon="5.85069">
        <ele>502</ele>
        <time>2013-12-14T10:19:58.000Z</time>
      </trkpt>
      <trkpt lat="45.19653" lon="5.85058">
        <ele>499.79998779297</ele>
        <time>2013-12-14T10:20:04.000Z</time>
      </trkpt>
      <trkpt lat="45.19669" lon="5.85056">
        <ele>499.79998779297</ele>
        <time>2013-12-14T10:20:09.000Z</time>
      </trkpt>
      <trkpt lat="45.19687" lon="5.8506">
        <ele>499.79998779297</ele>
        <time>2013-12-14T10:20:15.000Z</time>
      </trkpt>
      <trkpt lat="45.19704" lon="5.85062">
        <ele>499.39999389648</ele>
        <time>2013-12-14T10:20:20.000Z</time>
      </trkpt>
      <trkpt lat="45.19724" lon="5.85066">
        <ele>499</ele>
        <time>2013-12-14T10:20:26.000Z</time>
      </trkpt>
      <trkpt lat="45.19746" lon="5.8507">
        <ele>498.79998779297</ele>
        <time>2013-12-14T10:20:33.000Z</time>
      </trkpt>
      <trkpt lat="45.19762" lon="5.85074">
        <ele>499.20001220703</ele>
        <time>2013-12-14T10:20:38.000Z</time>
      </trkpt>
      <trkpt lat="45.19775" lon="5.85078">
        <ele>499.79998779297</ele>
        <time>2013-12-14T10:20:42.000Z</time>
      </trkpt>
      <trkpt lat="45.19792" lon="5.85075">
        <ele>499.20001220703</ele>
        <time>2013-12-14T10:20:47.000Z</time>
      </trkpt>
      <trkpt lat="45.19805" lon="5.85079">
        <ele>500</ele>
        <time>2013-12-14T10:20:51.000Z</time>
      </trkpt>
      <trkpt lat="45.19818" lon="5.85075">
        <ele>499.20001220703</ele>
        <time>2013-12-14T10:20:56.000Z</time>
      </trkpt>
      <trkpt lat="45.19833" lon="5.85065">
        <ele>496.60000610352</ele>
        <time>2013-12-14T10:21:01.000Z</time>
      </trkpt>
      <trkpt lat="45.19847" lon="5.85047">
        <ele>495.39999389648</ele>
        <time>2013-12-14T10:21:06.000Z</time>
      </trkpt>
      <trkpt lat="45.19862" lon="5.85034">
        <ele>494.79998779297</ele>
        <time>2013-12-14T10:21:11.000Z</time>
      </trkpt>
      <trkpt lat="45.1988" lon="5.8502">
        <ele>494.20001220703</ele>
        <time>2013-12-14T10:21:17.000Z</time>
      </trkpt>
      <trkpt lat="45.19894" lon="5.85009">
        <ele>492.60000610352</ele>
        <time>2013-12-14T10:21:22.000Z</time>
      </trkpt>
      <trkpt lat="45.19906" lon="5.84999">
        <ele>491.20001220703</ele>
        <time>2013-12-14T10:21:27.000Z</time>
      </trkpt>
      <trkpt lat="45.1992" lon="5.84988">
        <ele>489</ele>
        <time>2013-12-14T10:21:33.000Z</time>
      </trkpt>
      <trkpt lat="45.19935" lon="5.84987">
        <ele>486.20001220703</ele>
        <time>2013-12-14T10:21:38.000Z</time>
      </trkpt>
      <trkpt lat="45.1995" lon="5.84993">
        <ele>485.20001220703</ele>
        <time>2013-12-14T10:21:42.000Z</time>
      </trkpt>
      <trkpt lat="45.19971" lon="5.85009">
        <ele>485.79998779297</ele>
        <time>2013-12-14T10:21:48.000Z</time>
      </trkpt>
      <trkpt lat="45.19983" lon="5.85019">
        <ele>487</ele>
        <time>2013-12-14T10:21:52.000Z</time>
      </trkpt>
      <trkpt lat="45.19999" lon="5.85037">
        <ele>490</ele>
        <time>2013-12-14T10:21:58.000Z</time>
      </trkpt>
      <trkpt lat="45.20013" lon="5.85056">
        <ele>492.20001220703</ele>
        <time>2013-12-14T10:22:04.000Z</time>
      </trkpt>
      <trkpt lat="45.2003" lon="5.85079">
        <ele>493.39999389648</ele>
        <time>2013-12-14T10:22:11.000Z</time>
      </trkpt>
      <trkpt lat="45.20047" lon="5.85101">
        <ele>493.39999389648</ele>
        <time>2013-12-14T10:22:18.000Z</time>
      </trkpt>
      <trkpt lat="45.20061" lon="5.85121">
        <ele>492.79998779297</ele>
        <time>2013-12-14T10:22:24.000Z</time>
      </trkpt>
      <trkpt lat="45.20076" lon="5.85139">
        <ele>490.20001220703</ele>
        <time>2013-12-14T10:22:30.000Z</time>
      </trkpt>
      <trkpt lat="45.20085" lon="5.8515">
        <ele>488.39999389648</ele>
        <time>2013-12-14T10:22:34.000Z</time>
      </trkpt>
      <trkpt lat="45.20101" lon="5.8517">
        <ele>487.39999389648</ele>
        <time>2013-12-14T10:22:40.000Z</time>
      </trkpt>
      <trkpt lat="45.20112" lon="5.85189">
        <ele>488.39999389648</ele>
        <time>2013-12-14T10:22:45.000Z</time>
      </trkpt>
      <trkpt lat="45.20123" lon="5.85207">
        <ele>489.20001220703</ele>
        <time>2013-12-14T10:22:50.000Z</time>
      </trkpt>
      <trkpt lat="45.20134" lon="5.85226">
        <ele>489.79998779297</ele>
        <time>2013-12-14T10:22:55.000Z</time>
      </trkpt>
      <trkpt lat="45.20149" lon="5.85247">
        <ele>489</ele>
        <time>2013-12-14T10:23:01.000Z</time>
      </trkpt>
      <trkpt lat="45.20162" lon="5.85264">
        <ele>487.39999389648</ele>
        <time>2013-12-14T10:23:06.000Z</time>
      </trkpt>
      <trkpt lat="45.20171" lon="5.85282">
        <ele>488</ele>
        <time>2013-12-14T10:23:10.000Z</time>
      </trkpt>
      <trkpt lat="45.20176" lon="5.85296">
        <ele>489.39999389648</ele>
        <time>2013-12-14T10:23:15.000Z</time>
      </trkpt>
      <trkpt lat="45.20188" lon="5.85303">
        <ele>486.79998779297</ele>
        <time>2013-12-14T10:23:20.000Z</time>
      </trkpt>
      <trkpt lat="45.20202" lon="5.85299">
        <ele>481.20001220703</ele>
        <time>2013-12-14T10:23:25.000Z</time>
      </trkpt>
      <trkpt lat="45.20214" lon="5.8529">
        <ele>475.60000610352</ele>
        <time>2013-12-14T10:23:29.000Z</time>
      </trkpt>
      <trkpt lat="45.20231" lon="5.85274">
        <ele>468.20001220703</ele>
        <time>2013-12-14T10:23:36.000Z</time>
      </trkpt>
      <trkpt lat="45.20239" lon="5.85267">
        <ele>464.79998779297</ele>
        <time>2013-12-14T10:23:40.000Z</time>
      </trkpt>
      <trkpt lat="45.20258" lon="5.85263">
        <ele>458.60000610352</ele>
        <time>2013-12-14T10:23:46.000Z</time>
      </trkpt>
      <trkpt lat="45.20271" lon="5.85266">
        <ele>454.39999389648</ele>
        <time>2013-12-14T10:23:50.000Z</time>
      </trkpt>
      <trkpt lat="45.20279" lon="5.85274">
        <ele>452.60000610352</ele>
        <time>2013-12-14T10:23:53.000Z</time>
      </trkpt>
      <trkpt lat="45.20296" lon="5.85289">
        <ele>448</ele>
        <time>2013-12-14T10:24:00.000Z</time>
      </trkpt>
      <trkpt lat="45.20305" lon="5.85306">
        <ele>446.39999389648</ele>
        <time>2013-12-14T10:24:05.000Z</time>
      </trkpt>
      <trkpt lat="45.20306" lon="5.8531">
        <ele>446.39999389648</ele>
        <time>2013-12-14T10:24:06.000Z</time>
      </trkpt>
      <trkpt lat="45.2031" lon="5.85331">
        <ele>447</ele>
        <time>2013-12-14T10:24:11.000Z</time>
      </trkpt>
      <trkpt lat="45.20313" lon="5.85355">
        <ele>450</ele>
        <time>2013-12-14T10:24:16.000Z</time>
      </trkpt>
      <trkpt lat="45.20314" lon="5.8536">
        <ele>451</ele>
        <time>2013-12-14T10:24:18.000Z</time>
      </trkpt>
      <trkpt lat="45.20319" lon="5.85363">
        <ele>449.60000610352</ele>
        <time>2013-12-14T10:24:22.000Z</time>
      </trkpt>
      <trkpt lat="45.2033" lon="5.85353">
        <ele>444</ele>
        <time>2013-12-14T10:24:28.000Z</time>
      </trkpt>
      <trkpt lat="45.20331" lon="5.85355">
        <ele>444.20001220703</ele>
        <time>2013-12-14T10:24:40.000Z</time>
      </trkpt>
      <trkpt lat="45.20327" lon="5.85365">
        <ele>447.20001220703</ele>
        <time>2013-12-14T10:24:45.000Z</time>
      </trkpt>
      <trkpt lat="45.20319" lon="5.85367">
        <ele>450.39999389648</ele>
        <time>2013-12-14T10:24:50.000Z</time>
      </trkpt>
      <trkpt lat="45.20314" lon="5.85372">
        <ele>453</ele>
        <time>2013-12-14T10:24:55.000Z</time>
      </trkpt>
      <trkpt lat="45.20316" lon="5.85382">
        <ele>454.20001220703</ele>
        <time>2013-12-14T10:24:59.000Z</time>
      </trkpt>
      <trkpt lat="45.20317" lon="5.85387">
        <ele>454.60000610352</ele>
        <time>2013-12-14T10:25:01.000Z</time>
      </trkpt>
      <trkpt lat="45.20324" lon="5.854">
        <ele>455</ele>
        <time>2013-12-14T10:25:08.000Z</time>
      </trkpt>
      <trkpt lat="45.20327" lon="5.85408">
        <ele>455.60000610352</ele>
        <time>2013-12-14T10:25:14.000Z</time>
      </trkpt>
      <trkpt lat="45.20331" lon="5.8542">
        <ele>456.79998779297</ele>
        <time>2013-12-14T10:25:20.000Z</time>
      </trkpt>
      <trkpt lat="45.20332" lon="5.85422">
        <ele>456.79998779297</ele>
        <time>2013-12-14T10:25:21.000Z</time>
      </trkpt>
      <trkpt lat="45.20335" lon="5.8543">
        <ele>457.39999389648</ele>
        <time>2013-12-14T10:25:25.000Z</time>
      </trkpt>
      <trkpt lat="45.20338" lon="5.85444">
        <ele>460.20001220703</ele>
        <time>2013-12-14T10:25:31.000Z</time>
      </trkpt>
      <trkpt lat="45.2034" lon="5.85453">
        <ele>461.79998779297</ele>
        <time>2013-12-14T10:25:36.000Z</time>
      </trkpt>
      <trkpt lat="45.20343" lon="5.85461">
        <ele>462.60000610352</ele>
        <time>2013-12-14T10:25:42.000Z</time>
      </trkpt>
      <trkpt lat="45.20345" lon="5.85469">
        <ele>464.20001220703</ele>
        <time>2013-12-14T10:25:47.000Z</time>
      </trkpt>
      <trkpt lat="45.20346" lon="5.85479">
        <ele>466.60000610352</ele>
        <time>2013-12-14T10:25:54.000Z</time>
      </trkpt>
      <trkpt lat="45.20349" lon="5.85488">
        <ele>467.79998779297</ele>
        <time>2013-12-14T10:25:58.000Z</time>
      </trkpt>
      <trkpt lat="45.20352" lon="5.85502">
        <ele>470.60000610352</ele>
        <time>2013-12-14T10:26:03.000Z</time>
      </trkpt>
      <trkpt lat="45.20355" lon="5.85517">
        <ele>472.60000610352</ele>
        <time>2013-12-14T10:26:10.000Z</time>
      </trkpt>
      <trkpt lat="45.20362" lon="5.8553">
        <ele>473</ele>
        <time>2013-12-14T10:26:17.000Z</time>
      </trkpt>
      <trkpt lat="45.20363" lon="5.85532">
        <ele>472.79998779297</ele>
        <time>2013-12-14T10:26:18.000Z</time>
      </trkpt>
      <trkpt lat="45.20371" lon="5.85543">
        <ele>472.79998779297</ele>
        <time>2013-12-14T10:26:24.000Z</time>
      </trkpt>
      <trkpt lat="45.20378" lon="5.85559">
        <ele>474.39999389648</ele>
        <time>2013-12-14T10:26:30.000Z</time>
      </trkpt>
      <trkpt lat="45.20385" lon="5.85576">
        <ele>476</ele>
        <time>2013-12-14T10:26:35.000Z</time>
      </trkpt>
      <trkpt lat="45.2039" lon="5.85591">
        <ele>477.39999389648</ele>
        <time>2013-12-14T10:26:39.000Z</time>
      </trkpt>
      <trkpt lat="45.20397" lon="5.85609">
        <ele>478.39999389648</ele>
        <time>2013-12-14T10:26:44.000Z</time>
      </trkpt>
      <trkpt lat="45.20404" lon="5.85625">
        <ele>478.79998779297</ele>
        <time>2013-12-14T10:26:49.000Z</time>
      </trkpt>
      <trkpt lat="45.20408" lon="5.85641">
        <ele>479.60000610352</ele>
        <time>2013-12-14T10:26:54.000Z</time>
      </trkpt>
      <trkpt lat="45.20407" lon="5.85657">
        <ele>482.39999389648</ele>
        <time>2013-12-14T10:26:59.000Z</time>
      </trkpt>
      <trkpt lat="45.20408" lon="5.85672">
        <ele>484</ele>
        <time>2013-12-14T10:27:05.000Z</time>
      </trkpt>
      <trkpt lat="45.20408" lon="5.8568">
        <ele>484.20001220703</ele>
        <time>2013-12-14T10:27:08.000Z</time>
      </trkpt>
      <trkpt lat="45.20406" lon="5.85696">
        <ele>486</ele>
        <time>2013-12-14T10:27:14.000Z</time>
      </trkpt>
      <trkpt lat="45.20406" lon="5.85698">
        <ele>486.20001220703</ele>
        <time>2013-12-14T10:27:15.000Z</time>
      </trkpt>
      <trkpt lat="45.20411" lon="5.85718">
        <ele>485.39999389648</ele>
        <time>2013-12-14T10:27:21.000Z</time>
      </trkpt>
      <trkpt lat="45.20412" lon="5.85731">
        <ele>486</ele>
        <time>2013-12-14T10:27:26.000Z</time>
      </trkpt>
      <trkpt lat="45.2041" lon="5.85744">
        <ele>487.60000610352</ele>
        <time>2013-12-14T10:27:31.000Z</time>
      </trkpt>
      <trkpt lat="45.20409" lon="5.85749">
        <ele>488.39999389648</ele>
        <time>2013-12-14T10:27:34.000Z</time>
      </trkpt>
      <trkpt lat="45.20405" lon="5.8576">
        <ele>491.79998779297</ele>
        <time>2013-12-14T10:27:40.000Z</time>
      </trkpt>
      <trkpt lat="45.20397" lon="5.85772">
        <ele>496.60000610352</ele>
        <time>2013-12-14T10:27:46.000Z</time>
      </trkpt>
      <trkpt lat="45.20395" lon="5.85777">
        <ele>498</ele>
        <time>2013-12-14T10:27:50.000Z</time>
      </trkpt>
      <trkpt lat="45.20387" lon="5.85792">
        <ele>503</ele>
        <time>2013-12-14T10:27:55.000Z</time>
      </trkpt>
      <trkpt lat="45.20377" lon="5.85807">
        <ele>507.79998779297</ele>
        <time>2013-12-14T10:28:01.000Z</time>
      </trkpt>
      <trkpt lat="45.20376" lon="5.85809">
        <ele>508.60000610352</ele>
        <time>2013-12-14T10:28:02.000Z</time>
      </trkpt>
      <trkpt lat="45.20375" lon="5.85817">
        <ele>509.60000610352</ele>
        <time>2013-12-14T10:28:07.000Z</time>
      </trkpt>
      <trkpt lat="45.20377" lon="5.85819">
        <ele>509</ele>
        <time>2013-12-14T10:28:12.000Z</time>
      </trkpt>
      <trkpt lat="45.20388" lon="5.8582">
        <ele>505.60000610352</ele>
        <time>2013-12-14T10:28:20.000Z</time>
      </trkpt>
      <trkpt lat="45.20391" lon="5.85821">
        <ele>504.39999389648</ele>
        <time>2013-12-14T10:28:23.000Z</time>
      </trkpt>
      <trkpt lat="45.20398" lon="5.8582">
        <ele>502.20001220703</ele>
        <time>2013-12-14T10:28:32.000Z</time>
      </trkpt>
      <trkpt lat="45.20402" lon="5.85824">
        <ele>501.39999389648</ele>
        <time>2013-12-14T10:28:36.000Z</time>
      </trkpt>
      <trkpt lat="45.20407" lon="5.85836">
        <ele>502</ele>
        <time>2013-12-14T10:28:43.000Z</time>
      </trkpt>
      <trkpt lat="45.20407" lon="5.85838">
        <ele>502</ele>
        <time>2013-12-14T10:28:45.000Z</time>
      </trkpt>
      <trkpt lat="45.20409" lon="5.8584">
        <ele>502</ele>
        <time>2013-12-14T10:28:49.000Z</time>
      </trkpt>
      <trkpt lat="45.20413" lon="5.85847">
        <ele>502.60000610352</ele>
        <time>2013-12-14T10:28:57.000Z</time>
      </trkpt>
      <trkpt lat="45.20414" lon="5.85849">
        <ele>502.60000610352</ele>
        <time>2013-12-14T10:28:59.000Z</time>
      </trkpt>
      <trkpt lat="45.20416" lon="5.85857">
        <ele>503.60000610352</ele>
        <time>2013-12-14T10:29:04.000Z</time>
      </trkpt>
      <trkpt lat="45.20418" lon="5.85862">
        <ele>504.39999389648</ele>
        <time>2013-12-14T10:29:08.000Z</time>
      </trkpt>
      <trkpt lat="45.20422" lon="5.85877">
        <ele>506.60000610352</ele>
        <time>2013-12-14T10:29:15.000Z</time>
      </trkpt>
      <trkpt lat="45.20422" lon="5.85882">
        <ele>507.79998779297</ele>
        <time>2013-12-14T10:29:18.000Z</time>
      </trkpt>
      <trkpt lat="45.20423" lon="5.85891">
        <ele>509.79998779297</ele>
        <time>2013-12-14T10:29:24.000Z</time>
      </trkpt>
      <trkpt lat="45.20425" lon="5.85903">
        <ele>512</ele>
        <time>2013-12-14T10:29:31.000Z</time>
      </trkpt>
      <trkpt lat="45.20425" lon="5.85907">
        <ele>513</ele>
        <time>2013-12-14T10:29:33.000Z</time>
      </trkpt>
      <trkpt lat="45.20423" lon="5.85915">
        <ele>515.79998779297</ele>
        <time>2013-12-14T10:29:39.000Z</time>
      </trkpt>
      <trkpt lat="45.2042" lon="5.8592">
        <ele>517.40002441406</ele>
        <time>2013-12-14T10:29:43.000Z</time>
      </trkpt>
      <trkpt lat="45.20419" lon="5.85923">
        <ele>518</ele>
        <time>2013-12-14T10:29:46.000Z</time>
      </trkpt>
      <trkpt lat="45.20417" lon="5.85932">
        <ele>519.79998779297</ele>
        <time>2013-12-14T10:29:52.000Z</time>
      </trkpt>
      <trkpt lat="45.20415" lon="5.85941">
        <ele>521.40002441406</ele>
        <time>2013-12-14T10:29:58.000Z</time>
      </trkpt>
      <trkpt lat="45.20415" lon="5.85943">
        <ele>521.59997558594</ele>
        <time>2013-12-14T10:29:59.000Z</time>
      </trkpt>
      <trkpt lat="45.20413" lon="5.85946">
        <ele>522.79998779297</ele>
        <time>2013-12-14T10:30:01.000Z</time>
      </trkpt>
      <trkpt lat="45.2041" lon="5.85955">
        <ele>524.79998779297</ele>
        <time>2013-12-14T10:30:07.000Z</time>
      </trkpt>
      <trkpt lat="45.20405" lon="5.85971">
        <ele>528.79998779297</ele>
        <time>2013-12-14T10:30:14.000Z</time>
      </trkpt>
      <trkpt lat="45.204" lon="5.85987">
        <ele>532.40002441406</ele>
        <time>2013-12-14T10:30:20.000Z</time>
      </trkpt>
      <trkpt lat="45.2039" lon="5.85997">
        <ele>537</ele>
        <time>2013-12-14T10:30:26.000Z</time>
      </trkpt>
      <trkpt lat="45.20389" lon="5.85998">
        <ele>537.79998779297</ele>
        <time>2013-12-14T10:30:27.000Z</time>
      </trkpt>
      <trkpt lat="45.20383" lon="5.86005">
        <ele>541.20001220703</ele>
        <time>2013-12-14T10:30:32.000Z</time>
      </trkpt>
      <trkpt lat="45.2038" lon="5.86016">
        <ele>544.59997558594</ele>
        <time>2013-12-14T10:30:38.000Z</time>
      </trkpt>
      <trkpt lat="45.20379" lon="5.86018">
        <ele>545.40002441406</ele>
        <time>2013-12-14T10:30:40.000Z</time>
      </trkpt>
      <trkpt lat="45.20382" lon="5.86021">
        <ele>545.20001220703</ele>
        <time>2013-12-14T10:30:45.000Z</time>
      </trkpt>
      <trkpt lat="45.20388" lon="5.86023">
        <ele>543.20001220703</ele>
        <time>2013-12-14T10:30:49.000Z</time>
      </trkpt>
      <trkpt lat="45.20393" lon="5.86024">
        <ele>542</ele>
        <time>2013-12-14T10:30:52.000Z</time>
      </trkpt>
      <trkpt lat="45.20402" lon="5.86025">
        <ele>539.20001220703</ele>
        <time>2013-12-14T10:30:59.000Z</time>
      </trkpt>
      <trkpt lat="45.20411" lon="5.86025">
        <ele>536.40002441406</ele>
        <time>2013-12-14T10:31:04.000Z</time>
      </trkpt>
      <trkpt lat="45.20423" lon="5.86026">
        <ele>533.79998779297</ele>
        <time>2013-12-14T10:31:10.000Z</time>
      </trkpt>
      <trkpt lat="45.20432" lon="5.8603">
        <ele>533.20001220703</ele>
        <time>2013-12-14T10:31:16.000Z</time>
      </trkpt>
      <trkpt lat="45.20443" lon="5.86034">
        <ele>532.40002441406</ele>
        <time>2013-12-14T10:31:23.000Z</time>
      </trkpt>
      <trkpt lat="45.2045" lon="5.86039">
        <ele>532</ele>
        <time>2013-12-14T10:31:30.000Z</time>
      </trkpt>
      <trkpt lat="45.20457" lon="5.86046">
        <ele>532.40002441406</ele>
        <time>2013-12-14T10:31:35.000Z</time>
      </trkpt>
      <trkpt lat="45.20468" lon="5.86057">
        <ele>532.79998779297</ele>
        <time>2013-12-14T10:31:41.000Z</time>
      </trkpt>
      <trkpt lat="45.20481" lon="5.86073">
        <ele>533.40002441406</ele>
        <time>2013-12-14T10:31:48.000Z</time>
      </trkpt>
      <trkpt lat="45.20489" lon="5.86091">
        <ele>535.59997558594</ele>
        <time>2013-12-14T10:31:53.000Z</time>
      </trkpt>
      <trkpt lat="45.205" lon="5.86111">
        <ele>538.20001220703</ele>
        <time>2013-12-14T10:32:00.000Z</time>
      </trkpt>
      <trkpt lat="45.20507" lon="5.86126">
        <ele>539.79998779297</ele>
        <time>2013-12-14T10:32:05.000Z</time>
      </trkpt>
      <trkpt lat="45.20508" lon="5.86127">
        <ele>539.79998779297</ele>
        <time>2013-12-14T10:32:06.000Z</time>
      </trkpt>
      <trkpt lat="45.20521" lon="5.8614">
        <ele>539.40002441406</ele>
        <time>2013-12-14T10:32:13.000Z</time>
      </trkpt>
      <trkpt lat="45.20523" lon="5.86142">
        <ele>539.40002441406</ele>
        <time>2013-12-14T10:32:14.000Z</time>
      </trkpt>
      <trkpt lat="45.20538" lon="5.86153">
        <ele>537.79998779297</ele>
        <time>2013-12-14T10:32:20.000Z</time>
      </trkpt>
      <trkpt lat="45.20544" lon="5.86164">
        <ele>539</ele>
        <time>2013-12-14T10:32:25.000Z</time>
      </trkpt>
      <trkpt lat="45.2055" lon="5.86173">
        <ele>540</ele>
        <time>2013-12-14T10:32:28.000Z</time>
      </trkpt>
      <trkpt lat="45.20565" lon="5.86194">
        <ele>541.59997558594</ele>
        <time>2013-12-14T10:32:35.000Z</time>
      </trkpt>
      <trkpt lat="45.20574" lon="5.86211">
        <ele>543.20001220703</ele>
        <time>2013-12-14T10:32:41.000Z</time>
      </trkpt>
      <trkpt lat="45.20583" lon="5.86226">
        <ele>544.59997558594</ele>
        <time>2013-12-14T10:32:46.000Z</time>
      </trkpt>
      <trkpt lat="45.20588" lon="5.86235">
        <ele>544.59997558594</ele>
        <time>2013-12-14T10:32:50.000Z</time>
      </trkpt>
      <trkpt lat="45.20597" lon="5.86254">
        <ele>545.79998779297</ele>
        <time>2013-12-14T10:32:57.000Z</time>
      </trkpt>
      <trkpt lat="45.20605" lon="5.8627">
        <ele>545</ele>
        <time>2013-12-14T10:33:02.000Z</time>
      </trkpt>
      <trkpt lat="45.20612" lon="5.86286">
        <ele>544.40002441406</ele>
        <time>2013-12-14T10:33:07.000Z</time>
      </trkpt>
      <trkpt lat="45.20617" lon="5.86302">
        <ele>544.20001220703</ele>
        <time>2013-12-14T10:33:12.000Z</time>
      </trkpt>
      <trkpt lat="45.2062" lon="5.86323">
        <ele>546</ele>
        <time>2013-12-14T10:33:17.000Z</time>
      </trkpt>
      <trkpt lat="45.20622" lon="5.86344">
        <ele>546</ele>
        <time>2013-12-14T10:33:22.000Z</time>
      </trkpt>
      <trkpt lat="45.20622" lon="5.86368">
        <ele>544.79998779297</ele>
        <time>2013-12-14T10:33:28.000Z</time>
      </trkpt>
      <trkpt lat="45.20616" lon="5.8639">
        <ele>546.40002441406</ele>
        <time>2013-12-14T10:33:33.000Z</time>
      </trkpt>
      <trkpt lat="45.20614" lon="5.86408">
        <ele>546.59997558594</ele>
        <time>2013-12-14T10:33:38.000Z</time>
      </trkpt>
      <trkpt lat="45.20614" lon="5.86428">
        <ele>546.59997558594</ele>
        <time>2013-12-14T10:33:44.000Z</time>
      </trkpt>
      <trkpt lat="45.20609" lon="5.86447">
        <ele>549.40002441406</ele>
        <time>2013-12-14T10:33:50.000Z</time>
      </trkpt>
      <trkpt lat="45.20606" lon="5.86464">
        <ele>551.20001220703</ele>
        <time>2013-12-14T10:33:55.000Z</time>
      </trkpt>
      <trkpt lat="45.20601" lon="5.86482">
        <ele>554</ele>
        <time>2013-12-14T10:34:01.000Z</time>
      </trkpt>
      <trkpt lat="45.20596" lon="5.86495">
        <ele>556</ele>
        <time>2013-12-14T10:34:06.000Z</time>
      </trkpt>
      <trkpt lat="45.20597" lon="5.86499">
        <ele>555.59997558594</ele>
        <time>2013-12-14T10:34:08.000Z</time>
      </trkpt>
      <trkpt lat="45.20601" lon="5.86499">
        <ele>554.40002441406</ele>
        <time>2013-12-14T10:34:13.000Z</time>
      </trkpt>
      <trkpt lat="45.20614" lon="5.86504">
        <ele>551.40002441406</ele>
        <time>2013-12-14T10:34:20.000Z</time>
      </trkpt>
      <trkpt lat="45.20624" lon="5.86508">
        <ele>549.59997558594</ele>
        <time>2013-12-14T10:34:25.000Z</time>
      </trkpt>
      <trkpt lat="45.20631" lon="5.86512">
        <ele>549.20001220703</ele>
        <time>2013-12-14T10:34:29.000Z</time>
      </trkpt>
      <trkpt lat="45.20634" lon="5.86513">
        <ele>548.59997558594</ele>
        <time>2013-12-14T10:34:31.000Z</time>
      </trkpt>
      <trkpt lat="45.20643" lon="5.86519">
        <ele>548</ele>
        <time>2013-12-14T10:34:37.000Z</time>
      </trkpt>
      <trkpt lat="45.20651" lon="5.86526">
        <ele>548.40002441406</ele>
        <time>2013-12-14T10:34:44.000Z</time>
      </trkpt>
      <trkpt lat="45.20659" lon="5.86535">
        <ele>550.40002441406</ele>
        <time>2013-12-14T10:34:50.000Z</time>
      </trkpt>
      <trkpt lat="45.2066" lon="5.86537">
        <ele>550.59997558594</ele>
        <time>2013-12-14T10:34:51.000Z</time>
      </trkpt>
      <trkpt lat="45.20665" lon="5.86541">
        <ele>551.20001220703</ele>
        <time>2013-12-14T10:34:55.000Z</time>
      </trkpt>
      <trkpt lat="45.20674" lon="5.86547">
        <ele>552.79998779297</ele>
        <time>2013-12-14T10:35:02.000Z</time>
      </trkpt>
      <trkpt lat="45.20681" lon="5.86554">
        <ele>554.79998779297</ele>
        <time>2013-12-14T10:35:08.000Z</time>
      </trkpt>
      <trkpt lat="45.20686" lon="5.86557">
        <ele>555.59997558594</ele>
        <time>2013-12-14T10:35:12.000Z</time>
      </trkpt>
      <trkpt lat="45.20693" lon="5.86558">
        <ele>555.59997558594</ele>
        <time>2013-12-14T10:35:18.000Z</time>
      </trkpt>
      <trkpt lat="45.20695" lon="5.86558">
        <ele>555.40002441406</ele>
        <time>2013-12-14T10:35:19.000Z</time>
      </trkpt>
      <trkpt lat="45.207" lon="5.86559">
        <ele>555.20001220703</ele>
        <time>2013-12-14T10:35:22.000Z</time>
      </trkpt>
      <trkpt lat="45.20711" lon="5.86564">
        <ele>556</ele>
        <time>2013-12-14T10:35:29.000Z</time>
      </trkpt>
      <trkpt lat="45.20721" lon="5.8657">
        <ele>557.40002441406</ele>
        <time>2013-12-14T10:35:35.000Z</time>
      </trkpt>
      <trkpt lat="45.20731" lon="5.86582">
        <ele>560</ele>
        <time>2013-12-14T10:35:42.000Z</time>
      </trkpt>
      <trkpt lat="45.20742" lon="5.86596">
        <ele>562.59997558594</ele>
        <time>2013-12-14T10:35:50.000Z</time>
      </trkpt>
      <trkpt lat="45.2075" lon="5.86608">
        <ele>564.40002441406</ele>
        <time>2013-12-14T10:35:57.000Z</time>
      </trkpt>
      <trkpt lat="45.20759" lon="5.86618">
        <ele>564.79998779297</ele>
        <time>2013-12-14T10:36:03.000Z</time>
      </trkpt>
      <trkpt lat="45.20767" lon="5.8663">
        <ele>565.40002441406</ele>
        <time>2013-12-14T10:36:10.000Z</time>
      </trkpt>
      <trkpt lat="45.20774" lon="5.86641">
        <ele>566.59997558594</ele>
        <time>2013-12-14T10:36:16.000Z</time>
      </trkpt>
      <trkpt lat="45.20779" lon="5.8665">
        <ele>567.20001220703</ele>
        <time>2013-12-14T10:36:21.000Z</time>
      </trkpt>
      <trkpt lat="45.20787" lon="5.86662">
        <ele>567.79998779297</ele>
        <time>2013-12-14T10:36:29.000Z</time>
      </trkpt>
      <trkpt lat="45.20793" lon="5.8667">
        <ele>568.20001220703</ele>
        <time>2013-12-14T10:36:34.000Z</time>
      </trkpt>
      <trkpt lat="45.20793" lon="5.8667">
        <ele>568.20001220703</ele>
        <time>2013-12-14T10:36:34.000Z</time>
      </trkpt>
      <trkpt lat="45.2079" lon="5.86671">
        <ele>569.59997558594</ele>
        <time>2013-12-14T10:36:39.000Z</time>
      </trkpt>
      <trkpt lat="45.20782" lon="5.86666">
        <ele>570.20001220703</ele>
        <time>2013-12-14T10:36:45.000Z</time>
      </trkpt>
      <trkpt lat="45.20774" lon="5.86664">
        <ele>572.20001220703</ele>
        <time>2013-12-14T10:37:24.000Z</time>
      </trkpt>
      <trkpt lat="45.20783" lon="5.86667">
        <ele>570.40002441406</ele>
        <time>2013-12-14T10:37:28.000Z</time>
      </trkpt>
      <trkpt lat="45.20794" lon="5.86674">
        <ele>569</ele>
        <time>2013-12-14T10:37:33.000Z</time>
      </trkpt>
      <trkpt lat="45.2079" lon="5.86665">
        <ele>567.59997558594</ele>
        <time>2013-12-14T10:37:37.000Z</time>
      </trkpt>
      <trkpt lat="45.2079" lon="5.86665">
        <ele>567.59997558594</ele>
        <time>2013-12-14T10:37:37.000Z</time>
      </trkpt>
      <trkpt lat="45.20776" lon="5.86645">
        <ele>566.79998779297</ele>
        <time>2013-12-14T10:37:43.000Z</time>
      </trkpt>
      <trkpt lat="45.20761" lon="5.86625">
        <ele>566</ele>
        <time>2013-12-14T10:37:50.000Z</time>
      </trkpt>
      <trkpt lat="45.20752" lon="5.8661">
        <ele>564.59997558594</ele>
        <time>2013-12-14T10:37:54.000Z</time>
      </trkpt>
      <trkpt lat="45.20739" lon="5.86589">
        <ele>561</ele>
        <time>2013-12-14T10:38:00.000Z</time>
      </trkpt>
      <trkpt lat="45.20723" lon="5.86572">
        <ele>557.59997558594</ele>
        <time>2013-12-14T10:38:06.000Z</time>
      </trkpt>
      <trkpt lat="45.20705" lon="5.86563">
        <ele>556.40002441406</ele>
        <time>2013-12-14T10:38:12.000Z</time>
      </trkpt>
      <trkpt lat="45.2069" lon="5.86558">
        <ele>556</ele>
        <time>2013-12-14T10:38:18.000Z</time>
      </trkpt>
      <trkpt lat="45.20678" lon="5.86553">
        <ele>555</ele>
        <time>2013-12-14T10:38:22.000Z</time>
      </trkpt>
      <trkpt lat="45.20662" lon="5.86547">
        <ele>554.40002441406</ele>
        <time>2013-12-14T10:38:27.000Z</time>
      </trkpt>
      <trkpt lat="45.20647" lon="5.86535">
        <ele>553.40002441406</ele>
        <time>2013-12-14T10:38:32.000Z</time>
      </trkpt>
      <trkpt lat="45.20635" lon="5.86529">
        <ele>554.40002441406</ele>
        <time>2013-12-14T10:38:37.000Z</time>
      </trkpt>
      <trkpt lat="45.2062" lon="5.86528">
        <ele>558</ele>
        <time>2013-12-14T10:38:43.000Z</time>
      </trkpt>
      <trkpt lat="45.2061" lon="5.86529">
        <ele>560.79998779297</ele>
        <time>2013-12-14T10:38:47.000Z</time>
      </trkpt>
      <trkpt lat="45.20608" lon="5.86529">
        <ele>561.59997558594</ele>
        <time>2013-12-14T10:38:48.000Z</time>
      </trkpt>
      <trkpt lat="45.20604" lon="5.86532">
        <ele>563.40002441406</ele>
        <time>2013-12-14T10:38:54.000Z</time>
      </trkpt>
      <trkpt lat="45.2061" lon="5.86518">
        <ele>557.59997558594</ele>
        <time>2013-12-14T10:39:00.000Z</time>
      </trkpt>
      <trkpt lat="45.20611" lon="5.86517">
        <ele>556.79998779297</ele>
        <time>2013-12-14T10:39:01.000Z</time>
      </trkpt>
      <trkpt lat="45.20611" lon="5.86512">
        <ele>555</ele>
        <time>2013-12-14T10:39:03.000Z</time>
      </trkpt>
      <trkpt lat="45.2061" lon="5.86501">
        <ele>551.59997558594</ele>
        <time>2013-12-14T10:39:07.000Z</time>
      </trkpt>
      <trkpt lat="45.20612" lon="5.86483">
        <ele>550</ele>
        <time>2013-12-14T10:39:13.000Z</time>
      </trkpt>
      <trkpt lat="45.20616" lon="5.86464">
        <ele>547.59997558594</ele>
        <time>2013-12-14T10:39:19.000Z</time>
      </trkpt>
      <trkpt lat="45.20617" lon="5.86449">
        <ele>546.20001220703</ele>
        <time>2013-12-14T10:39:23.000Z</time>
      </trkpt>
      <trkpt lat="45.2062" lon="5.86426">
        <ele>543.40002441406</ele>
        <time>2013-12-14T10:39:29.000Z</time>
      </trkpt>
      <trkpt lat="45.20625" lon="5.86414">
        <ele>540.40002441406</ele>
        <time>2013-12-14T10:39:33.000Z</time>
      </trkpt>
      <trkpt lat="45.20631" lon="5.86399">
        <ele>538.40002441406</ele>
        <time>2013-12-14T10:39:39.000Z</time>
      </trkpt>
      <trkpt lat="45.2064" lon="5.86381">
        <ele>535.20001220703</ele>
        <time>2013-12-14T10:39:46.000Z</time>
      </trkpt>
      <trkpt lat="45.2064" lon="5.86374">
        <ele>535.20001220703</ele>
        <time>2013-12-14T10:39:48.000Z</time>
      </trkpt>
      <trkpt lat="45.20637" lon="5.86355">
        <ele>537.79998779297</ele>
        <time>2013-12-14T10:39:54.000Z</time>
      </trkpt>
      <trkpt lat="45.20635" lon="5.86347">
        <ele>539.40002441406</ele>
        <time>2013-12-14T10:39:57.000Z</time>
      </trkpt>
      <trkpt lat="45.20633" lon="5.86333">
        <ele>541.20001220703</ele>
        <time>2013-12-14T10:40:02.000Z</time>
      </trkpt>
      <trkpt lat="45.20624" lon="5.86316">
        <ele>543.20001220703</ele>
        <time>2013-12-14T10:40:07.000Z</time>
      </trkpt>
      <trkpt lat="45.20615" lon="5.86298">
        <ele>544.79998779297</ele>
        <time>2013-12-14T10:40:12.000Z</time>
      </trkpt>
      <trkpt lat="45.20605" lon="5.86284">
        <ele>547</ele>
        <time>2013-12-14T10:40:17.000Z</time>
      </trkpt>
      <trkpt lat="45.20592" lon="5.86259">
        <ele>548.59997558594</ele>
        <time>2013-12-14T10:40:24.000Z</time>
      </trkpt>
      <trkpt lat="45.20582" lon="5.86243">
        <ele>549.59997558594</ele>
        <time>2013-12-14T10:40:29.000Z</time>
      </trkpt>
      <trkpt lat="45.20568" lon="5.86224">
        <ele>549</ele>
        <time>2013-12-14T10:40:36.000Z</time>
      </trkpt>
      <trkpt lat="45.20557" lon="5.86208">
        <ele>548.20001220703</ele>
        <time>2013-12-14T10:40:42.000Z</time>
      </trkpt>
      <trkpt lat="45.20552" lon="5.862">
        <ele>547.40002441406</ele>
        <time>2013-12-14T10:40:45.000Z</time>
      </trkpt>
      <trkpt lat="45.20549" lon="5.86188">
        <ele>544.59997558594</ele>
        <time>2013-12-14T10:40:50.000Z</time>
      </trkpt>
      <trkpt lat="45.20545" lon="5.86183">
        <ele>544.59997558594</ele>
        <time>2013-12-14T10:40:52.000Z</time>
      </trkpt>
      <trkpt lat="45.20529" lon="5.86165">
        <ele>543.79998779297</ele>
        <time>2013-12-14T10:40:59.000Z</time>
      </trkpt>
      <trkpt lat="45.20515" lon="5.86148">
        <ele>543.59997558594</ele>
        <time>2013-12-14T10:41:05.000Z</time>
      </trkpt>
      <trkpt lat="45.20509" lon="5.86132">
        <ele>540.79998779297</ele>
        <time>2013-12-14T10:41:10.000Z</time>
      </trkpt>
      <trkpt lat="45.20496" lon="5.86106">
        <ele>537.79998779297</ele>
        <time>2013-12-14T10:41:17.000Z</time>
      </trkpt>
      <trkpt lat="45.20486" lon="5.86089">
        <ele>535.79998779297</ele>
        <time>2013-12-14T10:41:23.000Z</time>
      </trkpt>
      <trkpt lat="45.20477" lon="5.86078">
        <ele>535.20001220703</ele>
        <time>2013-12-14T10:41:29.000Z</time>
      </trkpt>
      <trkpt lat="45.20475" lon="5.86076">
        <ele>535.20001220703</ele>
        <time>2013-12-14T10:41:30.000Z</time>
      </trkpt>
      <trkpt lat="45.20459" lon="5.86066">
        <ele>536.40002441406</ele>
        <time>2013-12-14T10:41:36.000Z</time>
      </trkpt>
      <trkpt lat="45.20441" lon="5.8606">
        <ele>538.79998779297</ele>
        <time>2013-12-14T10:41:42.000Z</time>
      </trkpt>
      <trkpt lat="45.20425" lon="5.86053">
        <ele>540.20001220703</ele>
        <time>2013-12-14T10:41:48.000Z</time>
      </trkpt>
      <trkpt lat="45.20413" lon="5.86049">
        <ele>542</ele>
        <time>2013-12-14T10:41:52.000Z</time>
      </trkpt>
      <trkpt lat="45.20403" lon="5.86052">
        <ele>545.59997558594</ele>
        <time>2013-12-14T10:41:56.000Z</time>
      </trkpt>
      <trkpt lat="45.20394" lon="5.8605">
        <ele>547.59997558594</ele>
        <time>2013-12-14T10:42:00.000Z</time>
      </trkpt>
      <trkpt lat="45.2039" lon="5.86051">
        <ele>549.20001220703</ele>
        <time>2013-12-14T10:42:02.000Z</time>
      </trkpt>
      <trkpt lat="45.20386" lon="5.86042">
        <ele>548.20001220703</ele>
        <time>2013-12-14T10:42:08.000Z</time>
      </trkpt>
      <trkpt lat="45.20394" lon="5.86023">
        <ele>541.59997558594</ele>
        <time>2013-12-14T10:42:14.000Z</time>
      </trkpt>
      <trkpt lat="45.20399" lon="5.86017">
        <ele>538.59997558594</ele>
        <time>2013-12-14T10:42:17.000Z</time>
      </trkpt>
      <trkpt lat="45.20408" lon="5.86">
        <ele>531.20001220703</ele>
        <time>2013-12-14T10:42:23.000Z</time>
      </trkpt>
      <trkpt lat="45.20413" lon="5.85981">
        <ele>526.79998779297</ele>
        <time>2013-12-14T10:42:29.000Z</time>
      </trkpt>
      <trkpt lat="45.20414" lon="5.85972">
        <ele>525.59997558594</ele>
        <time>2013-12-14T10:42:32.000Z</time>
      </trkpt>
      <trkpt lat="45.20415" lon="5.85965">
        <ele>524.40002441406</ele>
        <time>2013-12-14T10:42:35.000Z</time>
      </trkpt>
      <trkpt lat="45.20419" lon="5.8595">
        <ele>521.40002441406</ele>
        <time>2013-12-14T10:42:41.000Z</time>
      </trkpt>
      <trkpt lat="45.2042" lon="5.85948">
        <ele>521</ele>
        <time>2013-12-14T10:42:42.000Z</time>
      </trkpt>
      <trkpt lat="45.20427" lon="5.85934">
        <ele>517.40002441406</ele>
        <time>2013-12-14T10:42:49.000Z</time>
      </trkpt>
      <trkpt lat="45.20422" lon="5.85917">
        <ele>516.59997558594</ele>
        <time>2013-12-14T10:42:54.000Z</time>
      </trkpt>
      <trkpt lat="45.20419" lon="5.85893">
        <ele>511.39999389648</ele>
        <time>2013-12-14T10:43:01.000Z</time>
      </trkpt>
      <trkpt lat="45.20416" lon="5.85885">
        <ele>510.39999389648</ele>
        <time>2013-12-14T10:43:04.000Z</time>
      </trkpt>
      <trkpt lat="45.20413" lon="5.85875">
        <ele>509.20001220703</ele>
        <time>2013-12-14T10:43:08.000Z</time>
      </trkpt>
      <trkpt lat="45.20412" lon="5.8587">
        <ele>508.20001220703</ele>
        <time>2013-12-14T10:43:10.000Z</time>
      </trkpt>
      <trkpt lat="45.20407" lon="5.85855">
        <ele>506.20001220703</ele>
        <time>2013-12-14T10:43:17.000Z</time>
      </trkpt>
      <trkpt lat="45.204" lon="5.85854">
        <ele>508.20001220703</ele>
        <time>2013-12-14T10:43:22.000Z</time>
      </trkpt>
      <trkpt lat="45.20396" lon="5.85853">
        <ele>509.39999389648</ele>
        <time>2013-12-14T10:43:26.000Z</time>
      </trkpt>
      <trkpt lat="45.20387" lon="5.85849">
        <ele>511</ele>
        <time>2013-12-14T10:43:30.000Z</time>
      </trkpt>
      <trkpt lat="45.2038" lon="5.85833">
        <ele>509.39999389648</ele>
        <time>2013-12-14T10:43:35.000Z</time>
      </trkpt>
      <trkpt lat="45.20383" lon="5.85826">
        <ele>507.60000610352</ele>
        <time>2013-12-14T10:43:39.000Z</time>
      </trkpt>
      <trkpt lat="45.20386" lon="5.85824">
        <ele>506.60000610352</ele>
        <time>2013-12-14T10:43:40.000Z</time>
      </trkpt>
      <trkpt lat="45.20398" lon="5.85808">
        <ele>500.60000610352</ele>
        <time>2013-12-14T10:43:46.000Z</time>
      </trkpt>
      <trkpt lat="45.20402" lon="5.858">
        <ele>498</ele>
        <time>2013-12-14T10:43:49.000Z</time>
      </trkpt>
      <trkpt lat="45.20401" lon="5.85785">
        <ele>496.39999389648</ele>
        <time>2013-12-14T10:43:54.000Z</time>
      </trkpt>
      <trkpt lat="45.20406" lon="5.8577">
        <ele>492.60000610352</ele>
        <time>2013-12-14T10:43:59.000Z</time>
      </trkpt>
      <trkpt lat="45.20409" lon="5.85753">
        <ele>489</ele>
        <time>2013-12-14T10:44:03.000Z</time>
      </trkpt>
      <trkpt lat="45.20413" lon="5.8574">
        <ele>486.20001220703</ele>
        <time>2013-12-14T10:44:07.000Z</time>
      </trkpt>
      <trkpt lat="45.20416" lon="5.85723">
        <ele>483.79998779297</ele>
        <time>2013-12-14T10:44:11.000Z</time>
      </trkpt>
      <trkpt lat="45.20416" lon="5.85707">
        <ele>483</ele>
        <time>2013-12-14T10:44:15.000Z</time>
      </trkpt>
      <trkpt lat="45.20415" lon="5.85699">
        <ele>482.60000610352</ele>
        <time>2013-12-14T10:44:17.000Z</time>
      </trkpt>
      <trkpt lat="45.20411" lon="5.85678">
        <ele>483</ele>
        <time>2013-12-14T10:44:22.000Z</time>
      </trkpt>
      <trkpt lat="45.20411" lon="5.85661">
        <ele>481.60000610352</ele>
        <time>2013-12-14T10:44:26.000Z</time>
      </trkpt>
      <trkpt lat="45.20406" lon="5.8564">
        <ele>480</ele>
        <time>2013-12-14T10:44:31.000Z</time>
      </trkpt>
      <trkpt lat="45.20398" lon="5.85617">
        <ele>479.39999389648</ele>
        <time>2013-12-14T10:44:37.000Z</time>
      </trkpt>
      <trkpt lat="45.20388" lon="5.8559">
        <ele>477.79998779297</ele>
        <time>2013-12-14T10:44:44.000Z</time>
      </trkpt>
      <trkpt lat="45.20383" lon="5.85575">
        <ele>476</ele>
        <time>2013-12-14T10:44:48.000Z</time>
      </trkpt>
      <trkpt lat="45.20378" lon="5.85565">
        <ele>475.39999389648</ele>
        <time>2013-12-14T10:44:51.000Z</time>
      </trkpt>
      <trkpt lat="45.20371" lon="5.85551">
        <ele>474.60000610352</ele>
        <time>2013-12-14T10:44:55.000Z</time>
      </trkpt>
      <trkpt lat="45.20361" lon="5.85538">
        <ele>474.79998779297</ele>
        <time>2013-12-14T10:45:00.000Z</time>
      </trkpt>
      <trkpt lat="45.20347" lon="5.85519">
        <ele>475.20001220703</ele>
        <time>2013-12-14T10:45:05.000Z</time>
      </trkpt>
      <trkpt lat="45.20342" lon="5.85502">
        <ele>473.60000610352</ele>
        <time>2013-12-14T10:45:10.000Z</time>
      </trkpt>
      <trkpt lat="45.20341" lon="5.85488">
        <ele>470.79998779297</ele>
        <time>2013-12-14T10:45:14.000Z</time>
      </trkpt>
      <trkpt lat="45.20341" lon="5.85473">
        <ele>466.60000610352</ele>
        <time>2013-12-14T10:45:18.000Z</time>
      </trkpt>
      <trkpt lat="45.20339" lon="5.8546">
        <ele>463.60000610352</ele>
        <time>2013-12-14T10:45:21.000Z</time>
      </trkpt>
      <trkpt lat="45.20332" lon="5.85434">
        <ele>460</ele>
        <time>2013-12-14T10:45:27.000Z</time>
      </trkpt>
      <trkpt lat="45.20323" lon="5.8542">
        <ele>459.20001220703</ele>
        <time>2013-12-14T10:45:32.000Z</time>
      </trkpt>
      <trkpt lat="45.20315" lon="5.85399">
        <ele>458</ele>
        <time>2013-12-14T10:45:37.000Z</time>
      </trkpt>
      <trkpt lat="45.20311" lon="5.85377">
        <ele>455</ele>
        <time>2013-12-14T10:45:42.000Z</time>
      </trkpt>
      <trkpt lat="45.20318" lon="5.85364">
        <ele>450</ele>
        <time>2013-12-14T10:45:47.000Z</time>
      </trkpt>
      <trkpt lat="45.20323" lon="5.8536">
        <ele>447.79998779297</ele>
        <time>2013-12-14T10:45:49.000Z</time>
      </trkpt>
      <trkpt lat="45.20332" lon="5.85346">
        <ele>442</ele>
        <time>2013-12-14T10:45:55.000Z</time>
      </trkpt>
      <trkpt lat="45.20333" lon="5.85334">
        <ele>439.20001220703</ele>
        <time>2013-12-14T10:45:59.000Z</time>
      </trkpt>
      <trkpt lat="45.20335" lon="5.85318">
        <ele>437.20001220703</ele>
        <time>2013-12-14T10:46:04.000Z</time>
      </trkpt>
      <trkpt lat="45.20336" lon="5.85296">
        <ele>434.60000610352</ele>
        <time>2013-12-14T10:46:09.000Z</time>
      </trkpt>
      <trkpt lat="45.20338" lon="5.85281">
        <ele>431.79998779297</ele>
        <time>2013-12-14T10:46:13.000Z</time>
      </trkpt>
      <trkpt lat="45.20342" lon="5.85257">
        <ele>427.20001220703</ele>
        <time>2013-12-14T10:46:18.000Z</time>
      </trkpt>
      <trkpt lat="45.20339" lon="5.85232">
        <ele>426.39999389648</ele>
        <time>2013-12-14T10:46:23.000Z</time>
      </trkpt>
      <trkpt lat="45.20338" lon="5.85199">
        <ele>423.79998779297</ele>
        <time>2013-12-14T10:46:30.000Z</time>
      </trkpt>
      <trkpt lat="45.2034" lon="5.85179">
        <ele>420.39999389648</ele>
        <time>2013-12-14T10:46:36.000Z</time>
      </trkpt>
      <trkpt lat="45.20341" lon="5.8516">
        <ele>417.39999389648</ele>
        <time>2013-12-14T10:46:41.000Z</time>
      </trkpt>
      <trkpt lat="45.20341" lon="5.85142">
        <ele>414.79998779297</ele>
        <time>2013-12-14T10:46:45.000Z</time>
      </trkpt>
      <trkpt lat="45.2034" lon="5.8513">
        <ele>413.60000610352</ele>
        <time>2013-12-14T10:46:48.000Z</time>
      </trkpt>
      <trkpt lat="45.20336" lon="5.85111">
        <ele>414.39999389648</ele>
        <time>2013-12-14T10:46:53.000Z</time>
      </trkpt>
      <trkpt lat="45.20332" lon="5.85098">
        <ele>414.79998779297</ele>
        <time>2013-12-14T10:46:58.000Z</time>
      </trkpt>
      <trkpt lat="45.20331" lon="5.85083">
        <ele>413</ele>
        <time>2013-12-14T10:47:02.000Z</time>
      </trkpt>
      <trkpt lat="45.2033" lon="5.85065">
        <ele>406.79998779297</ele>
        <time>2013-12-14T10:47:07.000Z</time>
      </trkpt>
      <trkpt lat="45.20326" lon="5.85047">
        <ele>402.20001220703</ele>
        <time>2013-12-14T10:47:13.000Z</time>
      </trkpt>
      <trkpt lat="45.20325" lon="5.85042">
        <ele>401.39999389648</ele>
        <time>2013-12-14T10:47:15.000Z</time>
      </trkpt>
      <trkpt lat="45.20319" lon="5.85025">
        <ele>399</ele>
        <time>2013-12-14T10:47:20.000Z</time>
      </trkpt>
      <trkpt lat="45.20317" lon="5.8501">
        <ele>395.39999389648</ele>
        <time>2013-12-14T10:47:24.000Z</time>
      </trkpt>
      <trkpt lat="45.20313" lon="5.84983">
        <ele>390</ele>
        <time>2013-12-14T10:47:31.000Z</time>
      </trkpt>
      <trkpt lat="45.2031" lon="5.84976">
        <ele>389.60000610352</ele>
        <time>2013-12-14T10:47:33.000Z</time>
      </trkpt>
      <trkpt lat="45.20301" lon="5.84948">
        <ele>388.20001220703</ele>
        <time>2013-12-14T10:47:40.000Z</time>
      </trkpt>
      <trkpt lat="45.20299" lon="5.84933">
        <ele>385.39999389648</ele>
        <time>2013-12-14T10:47:44.000Z</time>
      </trkpt>
      <trkpt lat="45.20297" lon="5.84926">
        <ele>384.79998779297</ele>
        <time>2013-12-14T10:47:46.000Z</time>
      </trkpt>
      <trkpt lat="45.20294" lon="5.84901">
        <ele>380.79998779297</ele>
        <time>2013-12-14T10:47:52.000Z</time>
      </trkpt>
      <trkpt lat="45.20291" lon="5.84889">
        <ele>380.60000610352</ele>
        <time>2013-12-14T10:47:55.000Z</time>
      </trkpt>
      <trkpt lat="45.20286" lon="5.84873">
        <ele>380.60000610352</ele>
        <time>2013-12-14T10:48:00.000Z</time>
      </trkpt>
      <trkpt lat="45.20286" lon="5.8486">
        <ele>377.79998779297</ele>
        <time>2013-12-14T10:48:04.000Z</time>
      </trkpt>
      <trkpt lat="45.20284" lon="5.84845">
        <ele>375.60000610352</ele>
        <time>2013-12-14T10:48:09.000Z</time>
      </trkpt>
      <trkpt lat="45.20285" lon="5.8483">
        <ele>371.79998779297</ele>
        <time>2013-12-14T10:48:13.000Z</time>
      </trkpt>
      <trkpt lat="45.20282" lon="5.84809">
        <ele>368.60000610352</ele>
        <time>2013-12-14T10:48:17.000Z</time>
      </trkpt>
      <trkpt lat="45.20281" lon="5.84782">
        <ele>363</ele>
        <time>2013-12-14T10:48:22.000Z</time>
      </trkpt>
      <trkpt lat="45.20278" lon="5.84752">
        <ele>357.39999389648</ele>
        <time>2013-12-14T10:48:28.000Z</time>
      </trkpt>
      <trkpt lat="45.20276" lon="5.8473">
        <ele>354</ele>
        <time>2013-12-14T10:48:33.000Z</time>
      </trkpt>
      <trkpt lat="45.20275" lon="5.84715">
        <ele>351.79998779297</ele>
        <time>2013-12-14T10:48:38.000Z</time>
      </trkpt>
      <trkpt lat="45.20267" lon="5.847">
        <ele>353.79998779297</ele>
        <time>2013-12-14T10:48:43.000Z</time>
      </trkpt>
      <trkpt lat="45.20253" lon="5.84679">
        <ele>360.60000610352</ele>
        <time>2013-12-14T10:48:49.000Z</time>
      </trkpt>
      <trkpt lat="45.20243" lon="5.84668">
        <ele>364.39999389648</ele>
        <time>2013-12-14T10:48:53.000Z</time>
      </trkpt>
      <trkpt lat="45.20241" lon="5.8465">
        <ele>359.20001220703</ele>
        <time>2013-12-14T10:48:58.000Z</time>
      </trkpt>
      <trkpt lat="45.20239" lon="5.84632">
        <ele>354.39999389648</ele>
        <time>2013-12-14T10:49:03.000Z</time>
      </trkpt>
      <trkpt lat="45.20235" lon="5.84617">
        <ele>351</ele>
        <time>2013-12-14T10:49:07.000Z</time>
      </trkpt>
      <trkpt lat="45.20229" lon="5.84598">
        <ele>348.79998779297</ele>
        <time>2013-12-14T10:49:13.000Z</time>
      </trkpt>
      <trkpt lat="45.20227" lon="5.84576">
        <ele>343.60000610352</ele>
        <time>2013-12-14T10:49:18.000Z</time>
      </trkpt>
      <trkpt lat="45.20224" lon="5.84555">
        <ele>341.20001220703</ele>
        <time>2013-12-14T10:49:23.000Z</time>
      </trkpt>
      <trkpt lat="45.20219" lon="5.8453">
        <ele>339.79998779297</ele>
        <time>2013-12-14T10:49:28.000Z</time>
      </trkpt>
      <trkpt lat="45.20214" lon="5.84518">
        <ele>341.20001220703</ele>
        <time>2013-12-14T10:49:32.000Z</time>
      </trkpt>
      <trkpt lat="45.20215" lon="5.84503">
        <ele>338</ele>
        <time>2013-12-14T10:49:37.000Z</time>
      </trkpt>
      <trkpt lat="45.20218" lon="5.84484">
        <ele>329.79998779297</ele>
        <time>2013-12-14T10:49:41.000Z</time>
      </trkpt>
      <trkpt lat="45.20215" lon="5.84458">
        <ele>324.20001220703</ele>
        <time>2013-12-14T10:49:47.000Z</time>
      </trkpt>
      <trkpt lat="45.20211" lon="5.84439">
        <ele>321</ele>
        <time>2013-12-14T10:49:52.000Z</time>
      </trkpt>
      <trkpt lat="45.20204" lon="5.84417">
        <ele>319.20001220703</ele>
        <time>2013-12-14T10:49:57.000Z</time>
      </trkpt>
      <trkpt lat="45.20195" lon="5.84392">
        <ele>315</ele>
        <time>2013-12-14T10:50:03.000Z</time>
      </trkpt>
      <trkpt lat="45.20188" lon="5.84375">
        <ele>312.79998779297</ele>
        <time>2013-12-14T10:50:07.000Z</time>
      </trkpt>
      <trkpt lat="45.20183" lon="5.84358">
        <ele>309.20001220703</ele>
        <time>2013-12-14T10:50:11.000Z</time>
      </trkpt>
      <trkpt lat="45.20175" lon="5.84341">
        <ele>306.60000610352</ele>
        <time>2013-12-14T10:50:15.000Z</time>
      </trkpt>
      <trkpt lat="45.2017" lon="5.84324">
        <ele>303.39999389648</ele>
        <time>2013-12-14T10:50:19.000Z</time>
      </trkpt>
      <trkpt lat="45.20158" lon="5.84297">
        <ele>296.39999389648</ele>
        <time>2013-12-14T10:50:26.000Z</time>
      </trkpt>
      <trkpt lat="45.2015" lon="5.84279">
        <ele>289.79998779297</ele>
        <time>2013-12-14T10:50:31.000Z</time>
      </trkpt>
      <trkpt lat="45.20139" lon="5.84272">
        <ele>286.79998779297</ele>
        <time>2013-12-14T10:50:36.000Z</time>
      </trkpt>
      <trkpt lat="45.20124" lon="5.84274">
        <ele>287.79998779297</ele>
        <time>2013-12-14T10:50:42.000Z</time>
      </trkpt>
      <trkpt lat="45.20113" lon="5.84279">
        <ele>290.60000610352</ele>
        <time>2013-12-14T10:50:48.000Z</time>
      </trkpt>
      <trkpt lat="45.20109" lon="5.84282">
        <ele>292.20001220703</ele>
        <time>2013-12-14T10:50:50.000Z</time>
      </trkpt>
      <trkpt lat="45.20112" lon="5.84273">
        <ele>287.79998779297</ele>
        <time>2013-12-14T10:50:54.000Z</time>
      </trkpt>
      <trkpt lat="45.20128" lon="5.84248">
        <ele>276.79998779297</ele>
        <time>2013-12-14T10:51:01.000Z</time>
      </trkpt>
      <trkpt lat="45.20142" lon="5.84237">
        <ele>275.20001220703</ele>
        <time>2013-12-14T10:51:06.000Z</time>
      </trkpt>
      <trkpt lat="45.2016" lon="5.84243">
        <ele>277</ele>
        <time>2013-12-14T10:51:12.000Z</time>
      </trkpt>
      <trkpt lat="45.20162" lon="5.84244">
        <ele>277.39999389648</ele>
        <time>2013-12-14T10:51:13.000Z</time>
      </trkpt>
      <trkpt lat="45.20163" lon="5.84234">
        <ele>275.39999389648</ele>
        <time>2013-12-14T10:51:17.000Z</time>
      </trkpt>
      <trkpt lat="45.20156" lon="5.84225">
        <ele>273.20001220703</ele>
        <time>2013-12-14T10:51:20.000Z</time>
      </trkpt>
      <trkpt lat="45.20145" lon="5.8422">
        <ele>271.79998779297</ele>
        <time>2013-12-14T10:51:24.000Z</time>
      </trkpt>
      <trkpt lat="45.2015" lon="5.84214">
        <ele>270.60000610352</ele>
        <time>2013-12-14T10:51:28.000Z</time>
      </trkpt>
      <trkpt lat="45.20167" lon="5.84198">
        <ele>267.79998779297</ele>
        <time>2013-12-14T10:51:36.000Z</time>
      </trkpt>
      <trkpt lat="45.20169" lon="5.84183">
        <ele>264</ele>
        <time>2013-12-14T10:51:40.000Z</time>
      </trkpt>
      <trkpt lat="45.20159" lon="5.84169">
        <ele>261.39999389648</ele>
        <time>2013-12-14T10:51:45.000Z</time>
      </trkpt>
      <trkpt lat="45.20146" lon="5.84156">
        <ele>259.60000610352</ele>
        <time>2013-12-14T10:51:50.000Z</time>
      </trkpt>
      <trkpt lat="45.20142" lon="5.84139">
        <ele>258.20001220703</ele>
        <time>2013-12-14T10:51:54.000Z</time>
      </trkpt>
      <trkpt lat="45.20139" lon="5.84117">
        <ele>256.60000610352</ele>
        <time>2013-12-14T10:51:59.000Z</time>
      </trkpt>
      <trkpt lat="45.20135" lon="5.84097">
        <ele>255.19999694824</ele>
        <time>2013-12-14T10:52:04.000Z</time>
      </trkpt>
      <trkpt lat="45.20129" lon="5.84082">
        <ele>254.39999389648</ele>
        <time>2013-12-14T10:52:08.000Z</time>
      </trkpt>
      <trkpt lat="45.20127" lon="5.84075">
        <ele>254.39999389648</ele>
        <time>2013-12-14T10:52:10.000Z</time>
      </trkpt>
      <trkpt lat="45.20128" lon="5.84069">
        <ele>254.19999694824</ele>
        <time>2013-12-14T10:52:12.000Z</time>
      </trkpt>
      <trkpt lat="45.20128" lon="5.84069">
        <ele>254.19999694824</ele>
        <time>2013-12-14T10:52:12.000Z</time>
      </trkpt>
      <trkpt lat="45.20133" lon="5.84063">
        <ele>254</ele>
        <time>2013-12-14T10:52:15.000Z</time>
      </trkpt>
      <trkpt lat="45.2014" lon="5.84051">
        <ele>253.60000610352</ele>
        <time>2013-12-14T10:52:19.000Z</time>
      </trkpt>
      <trkpt lat="45.20152" lon="5.84024">
        <ele>252.39999389648</ele>
        <time>2013-12-14T10:52:26.000Z</time>
      </trkpt>
      <trkpt lat="45.20157" lon="5.84011">
        <ele>252</ele>
        <time>2013-12-14T10:52:30.000Z</time>
      </trkpt>
      <trkpt lat="45.20163" lon="5.83996">
        <ele>251.19999694824</ele>
        <time>2013-12-14T10:52:34.000Z</time>
      </trkpt>
      <trkpt lat="45.20167" lon="5.83983">
        <ele>250.39999389648</ele>
        <time>2013-12-14T10:52:37.000Z</time>
      </trkpt>
      <trkpt lat="45.20165" lon="5.83955">
        <ele>249.39999389648</ele>
        <time>2013-12-14T10:52:43.000Z</time>
      </trkpt>
      <trkpt lat="45.20163" lon="5.83932">
        <ele>248.60000610352</ele>
        <time>2013-12-14T10:52:48.000Z</time>
      </trkpt>
      <trkpt lat="45.20161" lon="5.83912">
        <ele>248</ele>
        <time>2013-12-14T10:52:52.000Z</time>
      </trkpt>
      <trkpt lat="45.20161" lon="5.83887">
        <ele>246.80000305176</ele>
        <time>2013-12-14T10:52:58.000Z</time>
      </trkpt>
      <trkpt lat="45.2016" lon="5.8387">
        <ele>245.80000305176</ele>
        <time>2013-12-14T10:53:02.000Z</time>
      </trkpt>
      <trkpt lat="45.20157" lon="5.83847">
        <ele>244.80000305176</ele>
        <time>2013-12-14T10:53:08.000Z</time>
      </trkpt>
      <trkpt lat="45.20153" lon="5.83836">
        <ele>244.19999694824</ele>
        <time>2013-12-14T10:53:11.000Z</time>
      </trkpt>
      <trkpt lat="45.20157" lon="5.83815">
        <ele>243.19999694824</ele>
        <time>2013-12-14T10:53:16.000Z</time>
      </trkpt>
      <trkpt lat="45.20158" lon="5.83794">
        <ele>242.19999694824</ele>
        <time>2013-12-14T10:53:21.000Z</time>
      </trkpt>
      <trkpt lat="45.20156" lon="5.83781">
        <ele>241.60000610352</ele>
        <time>2013-12-14T10:53:24.000Z</time>
      </trkpt>
      <trkpt lat="45.20165" lon="5.83764">
        <ele>240.60000610352</ele>
        <time>2013-12-14T10:53:29.000Z</time>
      </trkpt>
      <trkpt lat="45.20188" lon="5.83743">
        <ele>239.39999389648</ele>
        <time>2013-12-14T10:53:37.000Z</time>
      </trkpt>
      <trkpt lat="45.20203" lon="5.83739">
        <ele>238.80000305176</ele>
        <time>2013-12-14T10:53:42.000Z</time>
      </trkpt>
      <trkpt lat="45.20217" lon="5.83736">
        <ele>238.39999389648</ele>
        <time>2013-12-14T10:53:47.000Z</time>
      </trkpt>
      <trkpt lat="45.20231" lon="5.83717">
        <ele>237.60000610352</ele>
        <time>2013-12-14T10:53:53.000Z</time>
      </trkpt>
      <trkpt lat="45.20243" lon="5.83696">
        <ele>236.80000305176</ele>
        <time>2013-12-14T10:53:59.000Z</time>
      </trkpt>
      <trkpt lat="45.20255" lon="5.83675">
        <ele>236.19999694824</ele>
        <time>2013-12-14T10:54:05.000Z</time>
      </trkpt>
      <trkpt lat="45.20267" lon="5.83654">
        <ele>235.80000305176</ele>
        <time>2013-12-14T10:54:11.000Z</time>
      </trkpt>
      <trkpt lat="45.20278" lon="5.83633">
        <ele>235.60000610352</ele>
        <time>2013-12-14T10:54:17.000Z</time>
      </trkpt>
      <trkpt lat="45.2029" lon="5.83612">
        <ele>235.19999694824</ele>
        <time>2013-12-14T10:54:23.000Z</time>
      </trkpt>
      <trkpt lat="45.20303" lon="5.83587">
        <ele>234.60000610352</ele>
        <time>2013-12-14T10:54:30.000Z</time>
      </trkpt>
      <trkpt lat="45.20315" lon="5.83567">
        <ele>233.19999694824</ele>
        <time>2013-12-14T10:54:36.000Z</time>
      </trkpt>
      <trkpt lat="45.20327" lon="5.83546">
        <ele>232</ele>
        <time>2013-12-14T10:54:42.000Z</time>
      </trkpt>
      <trkpt lat="45.20339" lon="5.83524">
        <ele>230.80000305176</ele>
        <time>2013-12-14T10:54:48.000Z</time>
      </trkpt>
      <trkpt lat="45.20353" lon="5.835">
        <ele>230.19999694824</ele>
        <time>2013-12-14T10:54:55.000Z</time>
      </trkpt>
      <trkpt lat="45.20366" lon="5.83479">
        <ele>230</ele>
        <time>2013-12-14T10:55:01.000Z</time>
      </trkpt>
      <trkpt lat="45.20379" lon="5.8346">
        <ele>229.80000305176</ele>
        <time>2013-12-14T10:55:07.000Z</time>
      </trkpt>
      <trkpt lat="45.2039" lon="5.83443">
        <ele>229.60000610352</ele>
        <time>2013-12-14T10:55:12.000Z</time>
      </trkpt>
      <trkpt lat="45.20404" lon="5.83422">
        <ele>229.19999694824</ele>
        <time>2013-12-14T10:55:19.000Z</time>
      </trkpt>
      <trkpt lat="45.2042" lon="5.834">
        <ele>228.39999389648</ele>
        <time>2013-12-14T10:55:27.000Z</time>
      </trkpt>
      <trkpt lat="45.20431" lon="5.83384">
        <ele>227.60000610352</ele>
        <time>2013-12-14T10:55:32.000Z</time>
      </trkpt>
      <trkpt lat="45.20445" lon="5.83369">
        <ele>226.80000305176</ele>
        <time>2013-12-14T10:55:38.000Z</time>
      </trkpt>
      <trkpt lat="45.20458" lon="5.8335">
        <ele>226</ele>
        <time>2013-12-14T10:55:45.000Z</time>
      </trkpt>
      <trkpt lat="45.20451" lon="5.83335">
        <ele>225.60000610352</ele>
        <time>2013-12-14T10:55:50.000Z</time>
      </trkpt>
      <trkpt lat="45.20449" lon="5.83332">
        <ele>225.60000610352</ele>
        <time>2013-12-14T10:55:51.000Z</time>
      </trkpt>
      <trkpt lat="45.20432" lon="5.83303">
        <ele>225.39999389648</ele>
        <time>2013-12-14T10:55:59.000Z</time>
      </trkpt>
      <trkpt lat="45.20419" lon="5.83285">
        <ele>225.39999389648</ele>
        <time>2013-12-14T10:56:05.000Z</time>
      </trkpt>
      <trkpt lat="45.20407" lon="5.83265">
        <ele>225.19999694824</ele>
        <time>2013-12-14T10:56:11.000Z</time>
      </trkpt>
      <trkpt lat="45.20396" lon="5.83245">
        <ele>224.80000305176</ele>
        <time>2013-12-14T10:56:17.000Z</time>
      </trkpt>
      <trkpt lat="45.204" lon="5.83225">
        <ele>224.39999389648</ele>
        <time>2013-12-14T10:56:22.000Z</time>
      </trkpt>
      <trkpt lat="45.20415" lon="5.83201">
        <ele>223.80000305176</ele>
        <time>2013-12-14T10:56:29.000Z</time>
      </trkpt>
      <trkpt lat="45.20428" lon="5.83182">
        <ele>223.19999694824</ele>
        <time>2013-12-14T10:56:35.000Z</time>
      </trkpt>
      <trkpt lat="45.20441" lon="5.8316">
        <ele>222.60000610352</ele>
        <time>2013-12-14T10:56:42.000Z</time>
      </trkpt>
      <trkpt lat="45.20442" lon="5.83156">
        <ele>222.60000610352</ele>
        <time>2013-12-14T10:56:43.000Z</time>
      </trkpt>
    </trkseg>
  </trk>
</gpx>